[[{"header":{"parameterUnit":"m.s-1","parameterCategory":1,"la1":31.0,"la2":29.5877,"lo1":-88.7671,"lo2":-86.6584,"dy":0.0162,"dx":0.0185,"nx":115,"ny":88,"refTime":"2023-07-03T12:00:00:Z","depth":0,"parameterNumber":2,"parameterNumberName":"U-component_of_WINDS"},"data":[0.0,0.0,0.0,0.0,0.0,0.0,0.0,0.0,0.0,0.0,0.0,0.0,0.0,0.0,0.0,0.0,0.0,0.0,0.0,0.0,0.0,0.0,0.0,0.0,0.0,0.0,0.0,0.0,0.0,0.0,0.0,0.0,0.0,0.0,0.0,0.0,0.0,0.0,0.0,0.0,0.0,0.0,0.0,0.0,0.0,0.0,0.0,0.0,0.0,0.0,0.0,0.0,0.0,0.0,0.0,0.0,0.0,0.0,0.0,0.0,0.0,0.0,0.0,0.0,0.0,0.0,0.0,0.0,0.0,0.0,0.0,0.0,0.0,0.0,0.0,0.0,0.0,0.0,0.0,0.0,0.0,0.0,0.0,0.0,0.0,0.0,0.0,0.0,0.0,0.0,0.0,0.0,0.0,0.0,0.0,0.0,0.0,0.0,0.0,0.0,0.0,0.0,0.0,0.0,0.0,0.0,0.0,0.0,0.0,0.0,0.0,0.0,0.0,0.0,0.0,0.0,0.0,0.0,0.0,0.0,0.0,0.0,0.0,0.0,0.0,0.0,0.0,0.0,0.0,0.0,0.0,0.0,0.0,0.0,0.0,0.0,0.0,0.0,0.0,0.0,0.0,0.0,0.0,0.0,0.0,0.0,0.0,0.0,0.0,0.0,0.0,0.0,0.0,0.0,0.0,0.0,0.0,0.0,0.0,0.0,0.0,0.0,0.0,0.0,0.0,0.0,0.0,0.0,0.0,0.0,0.0,0.0,0.0,0.0,0.0,0.0,0.0,0.0,0.0,0.0,0.0,0.0,0.0,0.0,0.0,0.0,0.0,0.0,0.0,0.0,0.0,0.0,0.0,0.0,0.0,0.0,0.0,0.0,0.0,0.0,0.0,0.0,0.0,0.0,0.0,0.0,0.0,0.0,0.0,0.0,0.0,0.0,0.0,0.0,0.0,0.0,0.0,0.0,0.0,0.0,0.0,0.0,0.0,0.0,0.0,0.0,0.0,0.0,0.0,0.0,0.0,0.0,0.0,0.0,0.0,0.0,0.0,0.0,0.0,0.0,0.0,0.0,0.0,0.0,0.0,0.0,0.0,0.0,0.0,0.0,0.0,0.0,0.0,0.0,0.0,0.0,0.0,0.0,0.0,0.0,0.0,0.0,0.0,0.0,0.0,0.0,0.0,0.0,0.0,0.0,0.0,0.0,0.0,0.0,0.0,0.0,0.0,0.0,0.0,0.0,0.0,0.0,0.0,0.0,0.0,0.0,0.0,0.0,0.0,0.0,0.0,0.0,0.0,0.0,0.0,0.0,0.0,0.0,0.0,0.0,0.0,0.0,0.0,0.0,0.0,0.0,0.0,0.0,0.0,0.0,0.0,0.0,0.0,0.0,0.0,0.0,0.0,0.0,0.0,0.0,0.0,0.0,0.0,0.0,0.0,0.0,0.0,0.0,0.0,0.0,0.0,0.0,0.0,0.0,0.0,0.0,0.0,0.0,0.0,0.0,0.0,0.0,0.0,0.0,0.0,0.0,0.0,0.0,0.0,0.0,0.0,0.0,0.0,0.0,0.0,0.0,0.0,0.0,0.0,0.0,0.0,0.0,0.0,0.0,0.0,0.0,0.0,0.0,0.0,0.0,0.0,0.0,0.0,0.0,0.0,0.0,0.0,0.0,0.0,0.0,0.0,0.0,0.0,0.0,0.0,0.0,0.0,0.0,0.0,0.0,0.0,0.0,0.0,0.0,0.0,0.0,0.0,0.0,0.0,0.0,0.0,0.0,0.0,0.0,0.0,0.0,0.0,0.0,0.0,0.0,0.0,0.0,0.0,0.0,0.0,0.0,0.0,0.0,0.0,0.0,0.0,0.0,0.0,0.0,0.0,0.0,0.0,0.0,0.0,0.0,0.0,0.0,0.0,0.0,0.0,0.0,0.0,0.0,0.0,0.0,0.0,0.0,0.0,0.0,0.0,0.0,0.0,0.0,0.0,0.0,0.0,0.0,0.0,0.0,0.0,0.0,0.0,0.0,0.0,0.0,0.0,0.0,0.0,0.0,0.0,0.0,0.0,0.0,0.0,0.0,0.0,0.0,0.0,0.0,0.0,0.0,0.0,0.0,0.0,0.0,0.0,0.0,0.0,0.0,0.0,0.0,0.0,0.0,0.0,0.0,0.0,0.0,0.0,0.0,0.0,0.0,0.0,0.0,0.0,0.0,0.0,0.0,0.0,0.0,0.0,0.0,0.0,0.0,0.0,0.0,0.0,0.0,0.0,0.0,0.0,0.0,0.0,0.0,0.0,0.0,0.0,0.0,0.0,0.0,0.0,0.0,0.0,0.0,0.0,0.0,0.0,0.0,0.0,0.0,0.0,0.0,0.0,0.0,0.0,0.0,0.0,0.0,0.0,0.0,0.0,0.0,0.0,0.0,0.0,0.0,0.0,0.0,0.0,0.0,0.0,0.0,0.0,0.0,0.0,0.0,0.0,0.0,0.0,0.0,0.0,0.0,0.0,0.0,0.0,0.0,0.0,0.0,0.0,0.0,0.0,0.0,0.0,0.0,0.0,0.0,0.0,0.0,0.0,0.0,0.0,0.0,0.0,0.0,0.0,0.0,0.0,0.0,0.0,0.0,0.0,0.0,0.0,0.0,0.0,0.0,0.0,0.0,0.0,0.0,0.0,0.0,0.0,0.0,0.0,0.0,0.0,0.0,0.0,0.0,0.0,0.0,0.0,0.0,0.0,0.0,0.0,0.0,0.0,0.0,0.0,0.0,0.0,0.0,0.0,0.0,0.0,0.0,0.0,0.0,0.0,0.0,0.0,0.0,0.0,0.0,0.0,0.0,0.0,0.0,0.0,0.0,0.0,0.0,0.0,0.0,0.0,0.0,0.0,0.0,0.0,0.0,0.0,0.0,0.0,0.0,0.0,0.0,0.0,0.0,0.0,0.0,0.0,0.0,0.0,0.0,0.0,0.0,0.0,0.0,0.0,0.0,0.0,0.0,0.0,0.0,0.0,0.0,0.0,0.0,0.0,0.0,0.0,0.0,0.0,0.0,0.0,0.0,0.0,0.0,0.0,0.0,0.0,0.0,0.0,0.0,0.0,0.0,0.0,0.0,0.0,0.0,0.0,0.0,0.0,0.0,0.0,0.0,0.0,0.0,0.0,0.0,0.0,0.0,0.0,0.0,0.0,0.0,0.0,0.0,0.0,0.0,0.0,0.0,0.0,0.0,0.0,0.0,0.0,0.0,0.0,0.0,0.0,0.0,0.0,0.0,0.0,0.0,0.0,0.0,0.0,0.0,0.0,0.0,0.0,0.0,0.0,0.0,0.0,0.0,0.0,0.0,0.0,0.0,0.0,0.0,0.0,0.0,0.0,0.0,0.0,0.0,0.0,0.0,0.0,0.0,0.0,0.0,0.0,0.0,0.0,0.0,0.0,0.0,0.0,0.0,0.0,0.0,0.0,0.0,0.0,0.0,0.0,0.0,0.0,0.0,0.0,0.0,0.0,0.0,0.0,0.0,0.0,0.0,0.0,0.0,0.0,0.0,0.0,0.0,0.0,0.0,0.0,0.0,0.0,0.0,0.0,0.0,0.0,0.0,0.0,0.0,0.0,0.0,0.0,0.0,0.0,0.0,0.0,0.0,0.0,0.0,0.0,0.0,0.0,0.0,0.0,0.0,0.0,0.0,0.0,0.0,0.0,0.0,0.0,0.0,0.0,0.0,0.0,0.0,0.0,0.0,0.0,0.0,0.0,0.0,0.0,0.0,0.0,0.0,0.0,0.0,0.0,0.0,0.0,0.0,0.0,0.0,0.0,0.0,0.0,0.0,0.0,0.0,0.0,0.0,0.0,0.0,0.0,0.0,0.0,0.0,0.0,0.0,0.0,0.0,0.0,0.0,0.0,0.0,0.0,0.0,0.0,0.0,0.0,0.0,0.0,0.0,0.0,0.0,0.0,0.0,0.0,0.0,0.0,0.0,0.0,0.0,0.0,0.0,0.0,0.0,0.0,0.0,0.0,0.0,0.0,0.0,0.0,0.0,0.0,0.0,0.0,0.0,0.0,0.0,0.0,0.0,0.0,0.0,0.0,0.0,0.0,0.0,0.0,0.0,0.0,0.0,0.0,0.0,0.0,0.0,0.0,0.0,0.0,0.0,0.0,0.0,0.0,0.0,0.0,0.0,0.0,0.0,0.0,0.0,0.0,0.0,0.0,0.0,0.0,0.0,0.0,0.0,0.0,0.0,0.0,0.0,-2.6563,0.0,0.0,0.0,-2.4671,0.0,0.0,0.0,0.0,0.0,0.0,0.0,0.0,0.0,0.0,0.0,0.0,0.0,0.0,0.0,0.0,0.0,0.0,0.0,0.0,0.0,0.0,0.0,0.0,0.0,0.0,0.0,0.0,0.0,0.0,0.0,0.0,0.0,0.0,0.0,0.0,0.0,0.0,0.0,0.0,0.0,0.0,0.0,0.0,0.0,0.0,0.0,0.0,0.0,0.0,0.0,0.0,0.0,0.0,0.0,0.0,0.0,0.0,0.0,0.0,0.0,0.0,0.0,0.0,0.0,0.0,0.0,0.0,0.0,0.0,0.0,0.0,0.0,0.0,0.0,0.0,0.0,0.0,0.0,0.0,0.0,0.0,0.0,0.0,0.0,0.0,0.0,0.0,0.0,0.0,0.0,0.0,0.0,0.0,0.0,0.0,0.0,0.0,0.0,0.0,0.0,0.0,0.0,0.0,0.0,0.0,0.0,0.0,0.0,0.0,-2.7866,-2.7495,-2.9313,-2.873,-2.5375,0.0,0.0,0.0,0.0,0.0,0.0,0.0,0.0,0.0,0.0,0.0,0.0,0.0,0.0,0.0,0.0,0.0,0.0,0.0,0.0,0.0,0.0,0.0,0.0,0.0,0.0,0.0,0.0,0.0,0.0,0.0,0.0,0.0,0.0,0.0,0.0,0.0,0.0,0.0,0.0,0.0,0.0,0.0,0.0,0.0,0.0,0.0,0.0,0.0,0.0,0.0,0.0,0.0,0.0,0.0,0.0,0.0,0.0,0.0,0.0,0.0,0.0,0.0,0.0,0.0,0.0,0.0,0.0,0.0,0.0,0.0,0.0,0.0,0.0,0.0,0.0,0.0,0.0,0.0,0.0,0.0,0.0,0.0,0.0,0.0,0.0,0.0,0.0,0.0,0.0,0.0,0.0,0.0,0.0,0.0,0.0,0.0,0.0,0.0,0.0,0.0,0.0,0.0,0.0,0.0,0.0,0.0,0.0,0.0,0.0,0.0,0.0,-3.0939,-3.0181,-2.6263,0.0,0.0,0.0,0.0,0.0,0.0,0.0,0.0,0.0,0.0,0.0,0.0,0.0,0.0,0.0,0.0,0.0,0.0,0.0,0.0,0.0,0.0,0.0,0.0,0.0,0.0,0.0,0.0,0.0,0.0,0.0,0.0,0.0,0.0,0.0,0.0,0.0,0.0,0.0,0.0,0.0,0.0,0.0,0.0,0.0,0.0,0.0,0.0,0.0,0.0,0.0,0.0,0.0,0.0,0.0,0.0,0.0,0.0,0.0,0.0,0.0,0.0,0.0,0.0,0.0,0.0,0.0,0.0,0.0,0.0,0.0,0.0,0.0,0.0,0.0,0.0,0.0,0.0,0.0,0.0,0.0,0.0,0.0,0.0,0.0,0.0,0.0,0.0,0.0,0.0,0.0,0.0,0.0,0.0,0.0,0.0,0.0,0.0,0.0,0.0,0.0,0.0,0.0,0.0,0.0,0.0,0.0,0.0,0.0,0.0,-3.038,-3.2531,-3.2876,0.0,-2.8876,0.0,0.0,0.0,0.0,0.0,0.0,0.0,0.0,0.0,0.0,0.0,0.0,0.0,0.0,0.0,0.0,0.0,0.0,0.0,0.0,0.0,0.0,0.0,0.0,0.0,0.0,0.0,0.0,0.0,0.0,0.0,0.0,0.0,0.0,0.0,0.0,0.0,0.0,0.0,0.0,0.0,0.0,0.0,0.0,0.0,0.0,0.0,0.0,0.0,0.0,0.0,0.0,0.0,0.0,0.0,0.0,0.0,0.0,0.0,0.0,0.0,0.0,0.0,0.0,0.0,0.0,0.0,0.0,0.0,0.0,0.0,0.0,0.0,0.0,0.0,0.0,0.0,0.0,0.0,0.0,0.0,0.0,0.0,0.0,0.0,0.0,0.0,0.0,0.0,0.0,0.0,0.0,0.0,0.0,0.0,0.0,0.0,0.0,0.0,0.0,0.0,0.0,0.0,0.0,0.0,0.0,0.0,0.0,0.0,0.0,-3.1115,-3.3059,-3.26,-3.1569,0.0,0.0,0.0,0.0,0.0,0.0,0.0,0.0,0.0,0.0,0.0,0.0,0.0,0.0,0.0,0.0,0.0,0.0,0.0,0.0,0.0,0.0,0.0,0.0,0.0,0.0,0.0,0.0,0.0,0.0,0.0,0.0,0.0,0.0,0.0,0.0,0.0,0.0,0.0,0.0,0.0,0.0,0.0,0.0,0.0,0.0,0.0,0.0,0.0,0.0,0.0,0.0,0.0,0.0,0.0,0.0,0.0,0.0,0.0,0.0,0.0,0.0,0.0,0.0,0.0,0.0,0.0,0.0,0.0,0.0,0.0,0.0,0.0,0.0,0.0,0.0,0.0,0.0,0.0,0.0,0.0,0.0,0.0,0.0,0.0,0.0,0.0,0.0,0.0,0.0,0.0,0.0,0.0,0.0,0.0,0.0,0.0,0.0,0.0,0.0,0.0,0.0,0.0,0.0,0.0,0.0,0.0,0.0,0.0,0.0,-3.1572,-3.2529,-3.4043,-3.3069,-3.1837,-3.0447,0.0,0.0,0.0,0.0,0.0,0.0,0.0,0.0,0.0,0.0,0.0,0.0,0.0,0.0,0.0,0.0,0.0,0.0,0.0,0.0,0.0,0.0,0.0,0.0,0.0,0.0,0.0,0.0,0.0,0.0,0.0,0.0,0.0,0.0,0.0,0.0,0.0,0.0,0.0,0.0,0.0,0.0,0.0,0.0,0.0,0.0,0.0,0.0,0.0,0.0,0.0,0.0,0.0,0.0,0.0,0.0,0.0,0.0,0.0,0.0,0.0,0.0,0.0,0.0,0.0,0.0,0.0,0.0,0.0,0.0,0.0,0.0,0.0,0.0,0.0,0.0,0.0,0.0,0.0,0.0,0.0,0.0,0.0,0.0,0.0,0.0,0.0,0.0,0.0,0.0,0.0,0.0,0.0,0.0,0.0,0.0,0.0,0.0,0.0,0.0,0.0,0.0,0.0,0.0,0.0,0.0,0.0,0.0,-3.52,-3.4744,-3.5195,-3.6766,-3.5263,-3.3084,0.0,0.0,0.0,0.0,0.0,0.0,0.0,0.0,0.0,0.0,0.0,0.0,0.0,0.0,0.0,0.0,0.0,0.0,0.0,0.0,0.0,0.0,0.0,0.0,0.0,0.0,0.0,0.0,0.0,0.0,0.0,0.0,0.0,0.0,0.0,0.0,0.0,0.0,0.0,0.0,0.0,0.0,0.0,0.0,0.0,0.0,0.0,0.0,0.0,0.0,0.0,0.0,0.0,0.0,0.0,0.0,0.0,0.0,0.0,0.0,0.0,0.0,0.0,0.0,0.0,0.0,0.0,0.0,0.0,0.0,0.0,0.0,0.0,0.0,0.0,0.0,0.0,0.0,0.0,0.0,0.0,0.0,0.0,0.0,0.0,0.0,0.0,0.0,0.0,0.0,0.0,0.0,0.0,0.0,0.0,0.0,0.0,0.0,0.0,0.0,0.0,0.0,0.0,0.0,0.0,0.0,0.0,0.0,0.0,-3.2914,-3.4527,-3.5955,-3.7049,-3.5382,-3.3655,0.0,0.0,0.0,0.0,0.0,0.0,0.0,0.0,0.0,0.0,0.0,0.0,0.0,0.0,0.0,0.0,0.0,0.0,0.0,0.0,0.0,0.0,0.0,0.0,0.0,0.0,0.0,0.0,0.0,0.0,0.0,0.0,0.0,0.0,0.0,0.0,0.0,0.0,0.0,0.0,0.0,0.0,0.0,0.0,0.0,0.0,0.0,0.0,0.0,0.0,0.0,0.0,0.0,0.0,0.0,0.0,0.0,0.0,0.0,0.0,0.0,0.0,0.0,0.0,0.0,0.0,0.0,0.0,0.0,0.0,0.0,0.0,0.0,0.0,0.0,0.0,0.0,0.0,0.0,0.0,0.0,0.0,0.0,0.0,0.0,0.0,0.0,0.0,0.0,0.0,0.0,0.0,0.0,0.0,0.0,0.0,0.0,0.0,0.0,0.0,0.0,0.0,0.0,0.0,0.0,0.0,0.0,0.0,0.0,-3.3577,0.0,-3.7363,-3.7882,-3.5927,-3.3823,0.0,0.0,0.0,0.0,0.0,0.0,0.0,0.0,0.0,0.0,0.0,0.0,0.0,0.0,0.0,0.0,0.0,0.0,0.0,0.0,0.0,0.0,0.0,0.0,0.0,0.0,0.0,0.0,0.0,0.0,0.0,0.0,0.0,0.0,0.0,0.0,0.0,0.0,0.0,0.0,0.0,0.0,0.0,0.0,0.0,0.0,0.0,0.0,0.0,0.0,0.0,0.0,0.0,0.0,0.0,0.0,0.0,0.0,0.0,0.0,0.0,0.0,0.0,0.0,0.0,0.0,0.0,0.0,0.0,0.0,0.0,0.0,0.0,0.0,0.0,0.0,0.0,0.0,0.0,0.0,0.0,0.0,0.0,0.0,0.0,0.0,0.0,0.0,0.0,0.0,0.0,0.0,0.0,0.0,0.0,0.0,0.0,0.0,0.0,0.0,0.0,0.0,0.0,0.0,0.0,0.0,0.0,0.0,-3.2491,-3.789,-3.9026,-3.9481,-3.9534,-3.7069,-3.3588,0.0,0.0,0.0,0.0,0.0,0.0,0.0,0.0,0.0,0.0,0.0,0.0,0.0,0.0,0.0,0.0,0.0,0.0,0.0,0.0,0.0,0.0,0.0,0.0,0.0,0.0,0.0,0.0,0.0,0.0,0.0,0.0,0.0,0.0,0.0,0.0,0.0,0.0,0.0,0.0,0.0,0.0,0.0,0.0,0.0,0.0,0.0,0.0,0.0,0.0,0.0,0.0,0.0,0.0,0.0,0.0,0.0,0.0,0.0,0.0,0.0,0.0,0.0,0.0,0.0,0.0,0.0,0.0,0.0,0.0,0.0,0.0,0.0,0.0,0.0,0.0,0.0,0.0,0.0,0.0,0.0,0.0,0.0,0.0,0.0,0.0,0.0,0.0,0.0,0.0,0.0,0.0,0.0,0.0,0.0,0.0,0.0,0.0,0.0,0.0,0.0,0.0,0.0,0.0,0.0,0.0,0.0,0.0,0.0,-3.5437,-3.7467,-3.9191,-4.0372,-3.6835,-3.4011,0.0,0.0,0.0,0.0,0.0,0.0,0.0,0.0,0.0,0.0,0.0,0.0,0.0,0.0,0.0,0.0,0.0,0.0,0.0,0.0,0.0,0.0,0.0,0.0,0.0,0.0,0.0,0.0,0.0,0.0,0.0,0.0,0.0,0.0,0.0,0.0,0.0,0.0,0.0,0.0,0.0,0.0,0.0,0.0,0.0,0.0,0.0,0.0,0.0,0.0,0.0,0.0,0.0,0.0,0.0,0.0,0.0,0.0,0.0,0.0,0.0,0.0,0.0,0.0,0.0,0.0,0.0,0.0,0.0,0.0,0.0,0.0,0.0,0.0,0.0,0.0,0.0,0.0,0.0,0.0,0.0,0.0,0.0,0.0,0.0,0.0,0.0,0.0,0.0,0.0,0.0,0.0,0.0,0.0,0.0,0.0,0.0,0.0,0.0,0.0,0.0,0.0,0.0,0.0,0.0,0.0,0.0,0.0,0.0,-3.5614,-3.8097,-3.9928,-4.0938,-3.733,-3.4686,-3.3184,0.0,0.0,0.0,0.0,0.0,0.0,0.0,0.0,0.0,0.0,0.0,0.0,0.0,0.0,0.0,0.0,0.0,0.0,0.0,0.0,0.0,0.0,0.0,0.0,0.0,0.0,0.0,0.0,0.0,0.0,0.0,0.0,0.0,0.0,0.0,0.0,0.0,0.0,0.0,0.0,0.0,0.0,0.0,0.0,0.0,0.0,0.0,0.0,0.0,0.0,0.0,0.0,0.0,0.0,0.0,0.0,0.0,0.0,0.0,0.0,0.0,0.0,0.0,0.0,0.0,0.0,0.0,0.0,0.0,0.0,0.0,0.0,0.0,0.0,0.0,0.0,0.0,0.0,0.0,0.0,0.0,0.0,0.0,0.0,0.0,0.0,0.0,0.0,0.0,0.0,0.0,0.0,0.0,0.0,0.0,0.0,0.0,0.0,0.0,0.0,0.0,0.0,0.0,0.0,0.0,0.0,0.0,0.0,-3.7824,-4.0513,-4.1581,-4.0974,-3.8385,-3.5542,0.0,0.0,0.0,0.0,0.0,0.0,0.0,0.0,0.0,0.0,0.0,0.0,0.0,0.0,0.0,0.0,0.0,0.0,0.0,0.0,0.0,0.0,0.0,0.0,0.0,0.0,0.0,0.0,0.0,0.0,0.0,0.0,0.0,0.0,0.0,0.0,0.0,0.0,0.0,0.0,0.0,0.0,0.0,0.0,0.0,0.0,0.0,0.0,0.0,0.0,0.0,0.0,0.0,0.0,0.0,0.0,0.0,0.0,0.0,0.0,0.0,0.0,0.0,0.0,0.0,0.0,0.0,0.0,0.0,0.0,0.0,0.0,0.0,0.0,0.0,0.0,0.0,0.0,0.0,0.0,0.0,0.0,0.0,0.0,0.0,0.0,0.0,0.0,0.0,0.0,0.0,0.0,0.0,0.0,0.0,0.0,0.0,0.0,0.0,0.0,0.0,0.0,0.0,0.0,0.0,0.0,0.0,0.0,0.0,-3.86,-4.0808,-4.1944,-4.1781,-3.8661,-3.6023,0.0,0.0,0.0,0.0,0.0,0.0,0.0,0.0,0.0,0.0,0.0,0.0,0.0,0.0,0.0,0.0,0.0,0.0,0.0,0.0,0.0,0.0,0.0,0.0,0.0,0.0,0.0,0.0,0.0,0.0,0.0,0.0,0.0,0.0,0.0,0.0,0.0,0.0,0.0,0.0,0.0,0.0,0.0,0.0,0.0,0.0,0.0,0.0,0.0,0.0,0.0,0.0,0.0,0.0,0.0,0.0,0.0,0.0,0.0,0.0,0.0,0.0,0.0,0.0,0.0,0.0,0.0,0.0,0.0,0.0,0.0,0.0,0.0,0.0,0.0,0.0,0.0,0.0,0.0,0.0,0.0,0.0,0.0,0.0,0.0,0.0,0.0,0.0,0.0,0.0,0.0,0.0,0.0,0.0,0.0,0.0,0.0,0.0,0.0,0.0,0.0,0.0,0.0,0.0,0.0,0.0,0.0,0.0,-3.7663,-3.9508,-4.0888,-4.1618,-4.1657,-3.9307,-3.6963,0.0,0.0,0.0,0.0,0.0,0.0,0.0,0.0,0.0,0.0,0.0,0.0,0.0,0.0,0.0,0.0,0.0,0.0,0.0,0.0,0.0,0.0,0.0,0.0,0.0,0.0,0.0,0.0,0.0,0.0,0.0,0.0,0.0,0.0,0.0,0.0,0.0,0.0,0.0,0.0,0.0,0.0,0.0,0.0,0.0,0.0,0.0,0.0,0.0,0.0,0.0,0.0,0.0,0.0,0.0,0.0,0.0,0.0,0.0,0.0,0.0,0.0,0.0,0.0,0.0,0.0,0.0,0.0,0.0,0.0,0.0,0.0,0.0,0.0,0.0,0.0,0.0,0.0,0.0,0.0,0.0,0.0,0.0,0.0,0.0,0.0,0.0,0.0,0.0,0.0,0.0,0.0,0.0,0.0,0.0,0.0,0.0,0.0,0.0,0.0,0.0,0.0,0.0,0.0,0.0,0.0,0.0,0.0,-3.8582,-4.0363,-4.0856,-4.1025,-4.0883,-4.0057,-3.8021,0.0,0.0,0.0,0.0,0.0,0.0,0.0,0.0,0.0,0.0,0.0,0.0,0.0,0.0,0.0,0.0,0.0,0.0,0.0,0.0,0.0,0.0,0.0,0.0,0.0,0.0,0.0,0.0,0.0,0.0,0.0,0.0,0.0,0.0,0.0,0.0,0.0,0.0,0.0,0.0,0.0,0.0,0.0,0.0,0.0,0.0,0.0,0.0,0.0,0.0,0.0,0.0,0.0,0.0,0.0,0.0,0.0,0.0,0.0,0.0,0.0,0.0,0.0,0.0,0.0,0.0,0.0,0.0,0.0,0.0,0.0,0.0,0.0,0.0,0.0,0.0,0.0,0.0,0.0,0.0,0.0,0.0,0.0,0.0,0.0,0.0,0.0,0.0,0.0,0.0,0.0,0.0,0.0,0.0,0.0,0.0,0.0,0.0,0.0,0.0,0.0,0.0,0.0,0.0,0.0,0.0,0.0,0.0,-3.8651,-4.0423,-4.0878,-4.1029,-4.09,-3.995,-3.7901,0.0,0.0,0.0,0.0,0.0,0.0,0.0,0.0,0.0,0.0,0.0,0.0,0.0,0.0,0.0,0.0,0.0,0.0,0.0,0.0,0.0,0.0,0.0,0.0,0.0,0.0,0.0,0.0,0.0,0.0,0.0,0.0,0.0,0.0,0.0,0.0,0.0,0.0,0.0,0.0,0.0,0.0,0.0,0.0,0.0,0.0,0.0,0.0,-3.7766,0.0,0.0,0.0,0.0,0.0,0.0,0.0,0.0,0.0,0.0,0.0,0.0,0.0,0.0,0.0,0.0,0.0,0.0,0.0,0.0,0.0,0.0,0.0,0.0,0.0,0.0,0.0,0.0,0.0,0.0,0.0,0.0,0.0,0.0,0.0,0.0,0.0,0.0,0.0,0.0,0.0,0.0,0.0,0.0,0.0,0.0,0.0,0.0,0.0,0.0,0.0,0.0,0.0,0.0,0.0,0.0,0.0,0.0,0.0,-3.9142,-4.0507,-4.0903,-4.1032,-4.0896,-4.0325,-3.8305,0.0,0.0,0.0,0.0,0.0,0.0,0.0,0.0,0.0,0.0,0.0,0.0,0.0,0.0,0.0,0.0,0.0,0.0,0.0,0.0,0.0,0.0,0.0,0.0,0.0,0.0,0.0,0.0,0.0,0.0,0.0,0.0,0.0,0.0,0.0,0.0,0.0,0.0,0.0,0.0,0.0,0.0,0.0,0.0,0.0,0.0,0.0,0.0,0.0,0.0,0.0,0.0,0.0,0.0,0.0,0.0,0.0,0.0,0.0,0.0,0.0,0.0,0.0,0.0,0.0,0.0,0.0,0.0,0.0,0.0,0.0,0.0,0.0,0.0,0.0,0.0,0.0,0.0,0.0,0.0,0.0,0.0,0.0,0.0,0.0,0.0,0.0,0.0,0.0,0.0,0.0,0.0,0.0,0.0,0.0,0.0,0.0,0.0,0.0,0.0,0.0,0.0,0.0,0.0,0.0,0.0,0.0,-3.7381,-3.9379,-4.0571,-4.0944,-4.1015,-4.0908,-4.0786,-3.8814,-3.4813,0.0,0.0,0.0,0.0,0.0,0.0,0.0,0.0,0.0,0.0,0.0,0.0,0.0,0.0,0.0,0.0,0.0,0.0,0.0,0.0,0.0,0.0,0.0,0.0,0.0,0.0,0.0,0.0,0.0,0.0,0.0,0.0,0.0,0.0,0.0,0.0,0.0,0.0,-3.6387,-3.9582,0.0,0.0,0.0,0.0,0.0,0.0,0.0,0.0,-4.0544,0.0,0.0,0.0,0.0,0.0,0.0,0.0,0.0,0.0,0.0,0.0,0.0,0.0,0.0,0.0,0.0,0.0,0.0,0.0,0.0,0.0,0.0,0.0,0.0,0.0,0.0,0.0,0.0,0.0,0.0,0.0,0.0,0.0,0.0,0.0,0.0,0.0,0.0,0.0,0.0,0.0,0.0,0.0,0.0,0.0,0.0,0.0,0.0,0.0,0.0,0.0,0.0,0.0,0.0,0.0,0.0,-3.6486,-3.6864,-3.8226,-4.0607,-4.0947,-4.1015,-4.0908,-4.0818,-3.8891,-3.5038,0.0,0.0,0.0,0.0,0.0,0.0,0.0,0.0,0.0,0.0,0.0,0.0,0.0,0.0,0.0,0.0,0.0,0.0,0.0,0.0,0.0,0.0,0.0,0.0,0.0,0.0,0.0,0.0,0.0,0.0,0.0,0.0,0.0,0.0,0.0,0.0,0.0,0.0,0.0,-4.3349,-4.4472,0.0,0.0,0.0,0.0,0.0,0.0,0.0,0.0,-4.1174,0.0,0.0,0.0,0.0,0.0,0.0,0.0,0.0,0.0,0.0,0.0,0.0,0.0,0.0,0.0,0.0,0.0,0.0,0.0,0.0,0.0,0.0,0.0,0.0,0.0,0.0,0.0,0.0,0.0,0.0,0.0,0.0,0.0,0.0,0.0,0.0,0.0,0.0,0.0,0.0,0.0,0.0,0.0,0.0,0.0,0.0,0.0,0.0,0.0,0.0,0.0,0.0,0.0,0.0,0.0,-3.5566,-3.675,-3.8423,-4.0599,-4.0566,-4.0605,-4.0888,-4.0386,-3.8459,0.0,0.0,0.0,0.0,0.0,0.0,0.0,0.0,0.0,0.0,0.0,0.0,0.0,0.0,0.0,0.0,0.0,0.0,0.0,0.0,0.0,0.0,0.0,0.0,0.0,0.0,0.0,0.0,0.0,0.0,0.0,0.0,0.0,0.0,0.0,0.0,0.0,0.0,0.0,0.0,-4.4923,-4.5917,-4.6834,0.0,0.0,0.0,0.0,0.0,0.0,-4.2263,-4.1527,0.0,0.0,0.0,0.0,0.0,0.0,0.0,0.0,0.0,0.0,0.0,0.0,0.0,0.0,0.0,0.0,0.0,0.0,0.0,0.0,0.0,0.0,0.0,0.0,0.0,0.0,0.0,0.0,0.0,0.0,0.0,0.0,0.0,0.0,0.0,0.0,0.0,0.0,0.0,0.0,0.0,0.0,0.0,0.0,0.0,0.0,0.0,0.0,0.0,0.0,0.0,0.0,0.0,0.0,0.0,-3.4314,-3.6399,-3.836,-4.0092,-3.9838,-3.9883,-4.0357,-3.9663,-3.7781,0.0,0.0,0.0,0.0,0.0,0.0,0.0,0.0,0.0,0.0,0.0,0.0,0.0,0.0,0.0,0.0,0.0,0.0,0.0,0.0,0.0,0.0,0.0,0.0,0.0,0.0,0.0,0.0,0.0,0.0,0.0,0.0,0.0,0.0,0.0,0.0,0.0,0.0,0.0,0.0,0.0,-4.7226,-4.7896,-4.6769,0.0,0.0,0.0,0.0,-4.2883,-4.261,0.0,0.0,0.0,0.0,0.0,0.0,0.0,0.0,0.0,0.0,0.0,0.0,0.0,0.0,0.0,0.0,0.0,0.0,0.0,0.0,0.0,0.0,0.0,0.0,0.0,0.0,0.0,0.0,0.0,0.0,0.0,0.0,0.0,0.0,0.0,0.0,0.0,0.0,0.0,0.0,0.0,0.0,0.0,0.0,0.0,0.0,0.0,0.0,0.0,0.0,0.0,0.0,0.0,0.0,0.0,0.0,-3.3849,-3.5072,-3.6648,-3.847,-3.8688,-3.875,-3.8688,-3.8533,-3.6988,0.0,0.0,0.0,0.0,0.0,0.0,0.0,0.0,0.0,0.0,0.0,0.0,0.0,0.0,0.0,0.0,0.0,0.0,0.0,0.0,0.0,0.0,0.0,0.0,0.0,0.0,0.0,0.0,0.0,0.0,0.0,0.0,0.0,0.0,0.0,0.0,0.0,0.0,0.0,0.0,0.0,-4.9023,-4.7521,-4.6991,-4.6461,0.0,0.0,-4.4135,-4.4625,-4.484,0.0,0.0,0.0,0.0,0.0,0.0,0.0,0.0,0.0,0.0,0.0,0.0,0.0,0.0,0.0,0.0,0.0,0.0,0.0,0.0,0.0,0.0,0.0,0.0,0.0,0.0,0.0,0.0,0.0,0.0,0.0,0.0,0.0,0.0,0.0,0.0,0.0,0.0,0.0,0.0,0.0,0.0,0.0,0.0,0.0,0.0,0.0,0.0,0.0,0.0,0.0,0.0,0.0,0.0,0.0,-3.2567,-3.378,-3.4905,-3.6372,-3.8192,-3.8014,-3.8027,-3.8393,-3.7419,-3.5897,0.0,0.0,0.0,0.0,0.0,0.0,0.0,0.0,0.0,0.0,0.0,0.0,0.0,0.0,0.0,0.0,0.0,0.0,0.0,0.0,0.0,0.0,0.0,0.0,0.0,0.0,0.0,0.0,0.0,0.0,0.0,0.0,0.0,0.0,0.0,0.0,0.0,0.0,0.0,0.0,0.0,0.0,-4.8697,-4.7816,0.0,0.0,0.0,-4.5168,-4.5597,0.0,0.0,0.0,0.0,0.0,0.0,0.0,0.0,0.0,0.0,0.0,0.0,0.0,0.0,0.0,0.0,0.0,0.0,0.0,0.0,0.0,0.0,0.0,0.0,0.0,0.0,0.0,0.0,0.0,0.0,0.0,0.0,0.0,0.0,0.0,0.0,0.0,0.0,0.0,0.0,0.0,0.0,0.0,0.0,0.0,0.0,0.0,0.0,0.0,0.0,0.0,0.0,0.0,0.0,0.0,0.0,0.0,-3.3555,-3.464,-3.5891,-3.7277,-3.6672,-3.6581,-3.7064,-3.5841,0.0,0.0,0.0,0.0,0.0,0.0,0.0,0.0,0.0,0.0,0.0,0.0,0.0,0.0,0.0,0.0,0.0,0.0,0.0,0.0,0.0,0.0,0.0,0.0,0.0,0.0,0.0,-2.6733,0.0,0.0,0.0,0.0,0.0,0.0,0.0,0.0,0.0,0.0,0.0,0.0,0.0,0.0,-4.7524,-4.8758,-4.796,-4.7474,0.0,0.0,-4.5599,-4.5578,-4.5223,-4.4202,0.0,0.0,0.0,0.0,0.0,0.0,0.0,0.0,0.0,0.0,0.0,0.0,0.0,0.0,0.0,0.0,0.0,0.0,0.0,0.0,0.0,0.0,0.0,0.0,0.0,0.0,0.0,0.0,0.0,0.0,0.0,0.0,0.0,0.0,0.0,0.0,0.0,0.0,0.0,0.0,0.0,0.0,0.0,0.0,0.0,0.0,0.0,0.0,0.0,0.0,0.0,0.0,0.0,0.0,-3.2821,-3.2897,-3.387,-3.4544,-3.4829,-3.406,-3.3652,-3.3631,-3.3465,-3.2815,0.0,0.0,0.0,0.0,0.0,0.0,0.0,0.0,0.0,0.0,0.0,0.0,0.0,0.0,0.0,0.0,0.0,0.0,0.0,0.0,0.0,0.0,0.0,0.0,0.0,0.0,0.0,0.0,0.0,0.0,0.0,0.0,0.0,0.0,0.0,0.0,0.0,0.0,0.0,0.0,0.0,-4.6221,-4.6247,-4.6801,-4.7204,0.0,-4.6138,-4.4997,-4.4024,-4.4859,-4.4477,-4.108,0.0,0.0,0.0,0.0,0.0,0.0,0.0,0.0,0.0,0.0,0.0,0.0,0.0,0.0,0.0,0.0,0.0,0.0,0.0,0.0,0.0,0.0,0.0,0.0,0.0,0.0,0.0,0.0,0.0,0.0,0.0,0.0,0.0,0.0,0.0,0.0,0.0,0.0,0.0,0.0,0.0,0.0,0.0,0.0,0.0,0.0,0.0,0.0,0.0,0.0,0.0,0.0,0.0,-3.2427,-3.2916,-3.335,-3.3658,-3.3817,-3.3036,-3.2322,-3.1718,-3.1646,-3.109,0.0,0.0,0.0,0.0,0.0,0.0,0.0,0.0,0.0,0.0,0.0,0.0,0.0,0.0,0.0,0.0,0.0,0.0,0.0,0.0,0.0,0.0,0.0,0.0,0.0,0.0,0.0,0.0,-2.9502,-2.9705,-3.0426,0.0,0.0,0.0,0.0,0.0,0.0,0.0,0.0,0.0,0.0,-4.5209,-4.5212,-4.5749,0.0,0.0,-4.5918,-4.5145,-4.5071,-4.4542,-4.3497,-4.152,-4.0228,0.0,0.0,0.0,0.0,0.0,0.0,0.0,0.0,0.0,0.0,0.0,0.0,0.0,0.0,0.0,0.0,0.0,0.0,0.0,0.0,0.0,0.0,0.0,0.0,0.0,0.0,0.0,0.0,0.0,0.0,0.0,0.0,0.0,0.0,0.0,0.0,0.0,0.0,0.0,0.0,0.0,0.0,0.0,0.0,0.0,0.0,0.0,0.0,0.0,0.0,0.0,0.0,-3.2258,-3.302,-3.2878,-3.2723,-3.2621,-3.177,-3.0894,-2.9991,-2.9886,-2.9478,0.0,0.0,0.0,0.0,0.0,0.0,0.0,0.0,0.0,0.0,0.0,0.0,0.0,0.0,0.0,0.0,0.0,0.0,0.0,0.0,0.0,0.0,0.0,0.0,0.0,0.0,0.0,0.0,-3.152,-3.1687,-3.252,0.0,0.0,0.0,0.0,0.0,0.0,0.0,0.0,0.0,0.0,-4.3992,-4.4195,-4.4523,-4.4962,-4.5531,-4.484,-4.4311,-4.4442,-4.3521,-4.2369,-4.1185,0.0,0.0,0.0,0.0,0.0,0.0,0.0,0.0,0.0,0.0,0.0,0.0,0.0,0.0,0.0,0.0,0.0,0.0,0.0,0.0,0.0,0.0,0.0,0.0,0.0,0.0,0.0,-3.1017,0.0,0.0,-3.0015,0.0,0.0,0.0,0.0,0.0,0.0,0.0,0.0,0.0,0.0,0.0,0.0,0.0,0.0,0.0,0.0,0.0,0.0,0.0,0.0,0.0,0.0,-3.2347,-3.3058,-3.2345,-3.161,-3.0854,-2.999,-2.9119,-2.8291,-2.8199,-2.8113,-2.8003,0.0,0.0,0.0,0.0,0.0,0.0,0.0,0.0,0.0,0.0,0.0,0.0,0.0,0.0,0.0,0.0,0.0,0.0,0.0,0.0,0.0,0.0,0.0,0.0,0.0,0.0,-3.4434,-3.3427,-3.3013,0.0,0.0,0.0,0.0,0.0,0.0,0.0,0.0,0.0,-4.1969,-4.2174,-4.2401,-4.3011,-4.3096,-4.309,-4.2975,-4.2629,-4.2108,-4.1408,-4.1588,-4.1297,0.0,0.0,0.0,0.0,0.0,0.0,0.0,0.0,0.0,0.0,0.0,0.0,0.0,0.0,0.0,0.0,0.0,0.0,0.0,0.0,0.0,0.0,0.0,0.0,0.0,0.0,0.0,-3.3028,-3.173,0.0,0.0,0.0,0.0,0.0,0.0,0.0,0.0,0.0,0.0,0.0,-3.6731,-3.7537,0.0,0.0,0.0,0.0,0.0,0.0,0.0,0.0,0.0,0.0,0.0,0.0,-3.2157,-3.2305,-3.1008,-2.9932,-2.9082,-2.822,-2.7356,-2.6518,-2.6976,-2.708,-2.6758,0.0,0.0,0.0,0.0,0.0,0.0,0.0,0.0,0.0,0.0,0.0,0.0,0.0,0.0,0.0,0.0,0.0,0.0,0.0,0.0,0.0,0.0,0.0,0.0,0.0,-3.5295,0.0,0.0,0.0,0.0,0.0,0.0,0.0,0.0,0.0,0.0,-4.0532,-4.0721,-4.1267,-4.1787,-4.1989,-4.1622,-4.2277,-4.2775,0.0,0.0,0.0,0.0,0.0,0.0,0.0,0.0,0.0,0.0,0.0,0.0,0.0,-4.3852,-4.4063,-4.2453,-4.1274,-4.0594,-4.0871,0.0,0.0,0.0,0.0,0.0,0.0,0.0,0.0,0.0,0.0,0.0,0.0,0.0,0.0,-3.3711,-3.2306,-3.274,0.0,0.0,0.0,0.0,0.0,0.0,0.0,0.0,-3.707,-3.7566,-3.7539,-3.8342,-3.8404,-3.7744,-3.7494,-3.6345,0.0,0.0,0.0,0.0,0.0,0.0,0.0,0.0,-3.2076,-3.1963,-3.036,-2.9086,-2.8233,-2.707,-2.6043,-2.5244,-2.5649,-2.5711,-2.5323,-2.5308,-2.5118,0.0,0.0,0.0,0.0,0.0,0.0,0.0,0.0,0.0,0.0,0.0,0.0,0.0,0.0,0.0,0.0,0.0,0.0,0.0,0.0,0.0,0.0,0.0,-3.6689,0.0,0.0,0.0,0.0,0.0,0.0,0.0,0.0,0.0,-4.0378,-4.0665,-4.0824,-4.0883,-4.1333,-4.1416,-4.0771,0.0,0.0,0.0,0.0,0.0,0.0,0.0,-4.0452,-3.9664,-4.0413,-4.1017,-4.0815,-4.2244,-4.3337,-4.3013,0.0,0.0,-4.3017,-4.1772,-4.0884,-4.1181,-4.0816,-4.0286,-3.9728,-4.0104,-4.0295,0.0,0.0,0.0,0.0,-3.7065,0.0,0.0,0.0,-3.4596,-3.379,0.0,-3.3522,0.0,0.0,0.0,0.0,-3.4713,-3.6386,0.0,0.0,-3.7615,-3.7498,-3.6008,-3.6758,-3.705,-3.6983,-3.7817,-3.771,-3.6704,-3.5079,0.0,0.0,0.0,0.0,0.0,0.0,-3.2087,-3.2,-3.0306,-2.9062,-2.8221,-2.6542,-2.524,-2.4507,-2.4352,-2.4163,-2.3929,-2.5323,-2.527,-2.3427,-2.5383,0.0,0.0,0.0,0.0,0.0,0.0,0.0,0.0,0.0,0.0,0.0,0.0,0.0,0.0,0.0,0.0,0.0,0.0,0.0,0.0,-3.6705,0.0,0.0,0.0,0.0,0.0,0.0,0.0,0.0,0.0,-4.0046,-3.9652,-4.0176,-4.0674,-4.0867,0.0,0.0,0.0,0.0,-4.0177,-4.0093,-3.9792,-3.967,-3.9756,-4.0328,-4.0497,-3.9721,0.0,0.0,-4.0888,-4.1351,-4.1633,-4.0825,-4.132,-4.2404,-4.4578,-4.3002,-4.1757,-4.2389,-4.1363,-4.0453,-4.0341,-4.0304,-4.0165,-3.5646,0.0,0.0,0.0,0.0,-3.5037,-3.4881,-3.5063,-3.4923,-3.3989,-3.2561,-3.3006,0.0,0.0,0.0,0.0,0.0,0.0,-3.6541,-3.6799,-3.6672,-3.6635,-3.6726,-3.6929,-3.7028,-3.7055,-3.7316,-3.7296,-3.6966,-3.5839,-3.5264,-3.5215,0.0,0.0,0.0,0.0,-3.1796,-3.1132,-2.9508,-2.8221,-2.7323,-2.6184,-2.5492,-2.5254,-2.5136,-2.4967,-2.4823,-2.5189,-2.5335,-2.5153,-2.5804,0.0,0.0,0.0,0.0,0.0,0.0,0.0,0.0,0.0,0.0,0.0,0.0,0.0,0.0,0.0,0.0,0.0,0.0,0.0,-3.7789,-3.7255,-3.7595,0.0,0.0,0.0,0.0,0.0,0.0,0.0,0.0,0.0,-4.013,-4.0462,-4.0718,0.0,0.0,-4.0788,-4.0545,-4.0364,-4.0404,-4.0734,-4.0151,0.0,-4.0409,-4.0184,-3.9871,-3.9646,-4.0472,-4.1222,-4.1493,-4.1729,-4.179,-4.1528,-4.1157,-4.1096,-4.1626,-4.1318,-4.0861,-4.0996,-4.068,-4.0178,-3.964,-3.9937,-4.0151,-3.5035,-3.4135,-3.5068,-3.5608,-3.5718,-3.4717,-3.4313,-3.4387,-3.4065,-3.3272,-3.2269,-3.3175,-3.3298,-3.2916,-3.4107,0.0,0.0,0.0,-3.6031,-3.6173,-3.5248,-3.5075,-3.5595,-3.5872,-3.6206,-3.6602,-3.6965,-3.7105,-3.7047,-3.6565,-3.6114,-3.5644,0.0,-3.4357,-3.4007,-3.2406,-3.1158,-3.0269,-2.8632,-2.7341,-2.6387,-2.5197,-2.4568,-2.4564,-2.4797,-2.5019,-2.5226,-2.5177,-2.5287,-2.5584,-2.6152,-2.6426,0.0,0.0,0.0,0.0,0.0,0.0,0.0,0.0,0.0,0.0,0.0,-3.182,-3.231,0.0,0.0,0.0,-3.4014,-3.5101,-3.6908,-3.7283,0.0,0.0,0.0,0.0,0.0,0.0,0.0,-3.7819,-3.8039,-3.8413,-3.8873,-3.9353,-3.9835,-4.0319,-4.0067,-3.976,-3.9605,0.0,-3.9352,-3.9669,-3.912,-3.8818,-3.9251,-3.8932,-3.8613,-3.8613,-3.9007,-3.9571,-4.0295,-4.0457,-4.0457,-4.0394,-4.0253,-4.0,-3.9664,-3.9751,-3.9923,-3.9895,-3.9881,-3.9709,-3.9235,-3.9328,-3.9319,-3.4211,-3.3418,-3.5769,-3.6616,-3.6297,-3.4618,-3.3599,-3.3079,-3.2562,-3.2109,-3.1868,-3.3598,-3.443,-3.4572,-3.6114,0.0,-3.5794,-3.5719,-3.5273,-3.4569,-3.3628,-3.3241,-3.3338,-3.4007,-3.4753,-3.5638,-3.6484,-3.684,-3.6704,-3.685,-3.653,-3.5602,-3.4749,-3.3965,-3.3254,-3.165,-3.0354,-2.9424,-2.7822,-2.6528,-2.5601,-2.4022,-2.3181,-2.323,-2.398,-2.474,-2.5385,-2.5441,-2.5399,-2.5382,-2.6472,-2.677,-2.6087,0.0,0.0,0.0,0.0,0.0,0.0,0.0,0.0,0.0,0.0,0.0,0.0,0.0,0.0,-3.2936,-3.3001,0.0,-3.4309,-3.712,0.0,0.0,0.0,-4.0561,-3.8971,-3.879,-3.8095,-3.6307,0.0,0.0,-3.68,-3.7518,-3.8426,-3.9386,-3.875,-3.8214,-3.8174,-3.7913,-3.7597,-3.7734,-3.7339,-3.7141,-3.7366,-3.7279,-3.726,-3.726,-3.711,-3.7481,-3.809,-3.8364,-3.8302,-3.8377,-3.889,-3.9177,-3.8353,-3.8762,-3.909,-3.9036,-3.9003,-3.9036,-3.9016,-3.8484,-3.8026,-3.4126,-3.3239,-3.3761,-3.3455,-3.2625,-3.2371,-3.231,-3.2376,-3.2548,-3.2358,-3.1973,-3.2467,-3.3039,-3.3631,-3.4027,-3.4452,-3.4878,-3.4225,-3.3836,-3.3667,-3.2785,-3.2748,-3.3338,-3.2894,-3.3123,-3.3937,-3.4211,-3.4285,-3.4252,-3.4311,-3.4206,-3.3936,-3.31,-3.2591,-3.2372,-3.1322,-3.0078,-2.8597,-2.7535,-2.655,-2.563,-2.5098,-2.4879,-2.4991,-2.5751,-2.6268,-2.6442,-2.7079,-2.7355,-2.7228,-2.677,-2.6381,-2.6091,-2.606,0.0,0.0,0.0,0.0,0.0,0.0,0.0,0.0,0.0,-3.4903,-3.2988,0.0,-3.6026,0.0,-3.4555,-3.5576,-3.7592,-3.7943,0.0,0.0,-4.0359,-3.9882,-3.8843,-3.8729,-3.8074,-3.6357,-3.7604,-3.8572,-3.85,-3.8204,-3.815,-3.8542,-3.8418,-3.8232,-3.8061,-3.7889,-3.7679,-3.7424,-3.7244,-3.7242,-3.7103,-3.7114,-3.7073,-3.711,-3.7091,-3.7155,-3.7331,-3.7894,-3.8288,-3.8295,-3.8359,-3.839,-3.8165,-3.8315,-3.8344,-3.8337,-3.8298,-3.8253,-3.8266,-3.7703,-3.7175,-3.2995,-3.2086,-3.1991,-3.1325,-3.0406,-3.0999,-3.1354,-3.1538,-3.1644,-3.1576,-3.145,-3.1884,-3.2549,-3.334,-3.331,-3.3761,-3.4472,-3.331,-3.2952,-3.3289,-3.2099,-3.1793,-3.2285,-3.2185,-3.24,-3.2871,-3.3222,-3.3396,-3.3395,-3.3389,-3.3208,-3.2833,-3.2733,-3.1928,-3.0461,-2.9925,-2.9218,-2.8301,-2.6623,-2.5509,-2.5036,-2.4913,-2.507,-2.5544,-2.6362,-2.6986,-2.7365,-2.784,-2.8035,-2.7846,-2.7577,-2.7164,-2.6624,-2.6663,-2.6408,0.0,0.0,0.0,0.0,0.0,0.0,0.0,0.0,0.0,0.0,0.0,-3.5927,-3.5332,-3.5217,-3.5874,-3.7612,-3.8013,-3.8423,-3.8969,-3.922,-3.8866,-3.7673,-3.7559,-3.7068,-3.5828,-3.6621,-3.7349,-3.7425,-3.7173,-3.7007,-3.7133,-3.7138,-3.6963,-3.6488,-3.6239,-3.6055,-3.5888,-3.5713,-3.5748,-3.6015,-3.6058,-3.6024,-3.5983,-3.5983,-3.6115,-3.6479,-3.6911,-3.7117,-3.6798,-3.7225,-3.7427,-3.6778,-3.688,-3.7224,-3.781,-3.7206,-3.7069,-3.8351,-3.7742,-3.6893,-3.1634,-3.0713,-3.0667,-3.0124,-2.9321,-3.0133,-3.0511,-3.0538,-3.0448,-3.0528,-3.076,-3.1578,-3.2404,-3.3195,-3.3039,-3.3445,-3.415,-3.2575,-3.2255,-3.2868,-3.147,-3.0871,-3.1072,-3.1621,-3.1934,-3.207,-3.2519,-3.2753,-3.2752,-3.2751,-3.2358,-3.1674,-3.2378,-3.1243,-2.8427,-2.8197,-2.807,-2.793,-2.5605,-2.4452,-2.4619,-2.4457,-2.4784,-2.5647,-2.6401,-2.7168,-2.7905,-2.8138,-2.8198,-2.8019,-2.8504,-2.8337,-2.7322,-2.7774,-2.7703,0.0,-2.7132,0.0,0.0,0.0,0.0,0.0,0.0,0.0,0.0,-3.5014,-3.4873,-3.5824,-3.5524,-3.5561,-3.6112,-3.7671,-3.8032,-3.6604,-3.7532,-3.7764,-3.6305,-3.6097,-3.5817,-3.5111,-3.528,-3.5506,-3.5713,-3.5742,-3.5853,-3.5834,-3.5689,-3.5258,-3.4313,-3.4269,-3.4422,-3.4094,-3.3852,-3.4298,-3.4728,-3.4697,-3.462,-3.4634,-3.4594,-3.4733,-3.5615,-3.5889,-3.5702,-3.5187,-3.607,-3.6475,-3.5007,-3.53,-3.611,-3.7447,-3.6237,-3.5869,-3.8059,-3.7529,-3.6384,-3.1674,-3.0864,-3.0913,-3.044,-2.9664,-2.9435,-2.926,-2.9234,-3.009,-3.0592,-3.0773,-3.0962,-3.1488,-3.2172,-3.151,-3.1679,-3.2405,-3.1406,-3.1057,-3.1262,-3.0953,-3.1178,-3.1774,-3.0643,-3.0448,-3.1034,-2.9863,-2.9257,-2.9276,-2.9276,-2.9196,-2.9038,-2.9195,-2.894,-2.8295,0.0,0.0,0.0,-2.5632,-2.569,-2.6337,-2.5647,-2.5677,-2.652,-2.6722,0.0,-2.7094,-2.8399,-2.9125,-2.9021,-2.8933,0.0,0.0,0.0,0.0,0.0,0.0,0.0,0.0,0.0,0.0,0.0,-3.3814,-3.3604,-3.3913,-3.4491,-3.5132,-3.5776,-3.6446,-3.6651,-3.6187,-3.7148,-3.7661,-3.7255,-3.736,-3.7149,-3.623,-3.6019,-3.5787,-3.5247,-3.5829,-3.6378,-3.6383,-3.6654,-3.6429,-3.5684,-3.5122,-3.4099,-3.2647,-3.388,-3.4952,-3.5012,-3.4606,-3.4641,-3.483,-3.4202,-3.3944,-3.4413,-3.4041,-3.4001,-3.4706,-3.5434,-3.587,-3.5569,-3.5959,-3.6101,-3.5606,-3.5257,-3.5141,-3.6149,-3.5893,-3.5994,-3.7154,-3.5672,-3.4028,-3.0818,-3.0411,-3.0525,-3.0113,0.0,-2.9674,-2.9288,-2.8524,-2.9566,-3.0323,-3.0798,-3.0786,-3.1018,-3.1334,-3.0911,-3.1164,-3.1905,-3.1063,-3.0911,-3.1365,-3.096,-3.1022,-3.1458,-3.0211,-2.9822,-3.0194,-2.8925,-2.83,-2.83,-2.8301,-2.8086,-2.7675,-2.8085,-2.787,-2.7028,-2.6574,-2.6137,-2.5699,-2.5632,-2.5831,-2.6226,-2.5771,-2.5915,-2.6768,-2.7218,0.0,0.0,0.0,0.0,0.0,0.0,0.0,0.0,-2.8707,0.0,-2.7911,-2.9125,-3.0264,-3.1048,-3.2007,-3.2991,-3.3903,-3.3207,-3.2903,-3.3339,-3.3884,-3.4637,-3.5734,-3.6087,-3.5918,-3.5273,-3.575,-3.5786,-3.5057,-3.4856,-3.4676,-3.4358,-3.4302,-3.4239,-3.4117,-3.4473,-3.4859,-3.501,-3.5078,-3.4957,-3.4535,-3.4113,-3.352,-3.2811,-3.3081,-3.3468,-3.3386,-3.4025,-3.4159,-3.3734,-3.3327,-3.3052,-3.3353,-3.3154,-3.3209,-3.3915,-3.4406,-3.4718,-3.4756,-3.5049,-3.5151,-3.4227,-3.3717,-3.3707,-3.436,-3.4041,-3.4116,-3.5375,-3.5165,-3.4524,-2.9916,-2.995,-3.0098,-2.9821,-2.9356,-3.0086,-2.9546,-2.8184,-2.894,0.0,0.0,-3.0567,-3.0625,-3.0694,-3.0701,-3.1063,-3.1627,-3.0952,-3.1036,-3.1716,-3.0881,-3.055,-3.0614,-2.9622,-2.9137,-2.9099,-2.8241,-2.7851,-2.7832,-2.7832,-2.748,-2.6894,-2.748,-2.7109,-2.5778,-2.5694,-2.5707,-2.5702,-2.563,-2.5685,-2.5822,-2.5643,-2.5945,-2.6773,-2.733,-2.7981,-2.8687,-2.9481,-2.9829,-2.9674,-2.9647,-2.9558,-2.933,-2.9308,-2.9208,-2.9106,-2.9453,-3.0092,-3.0995,-3.1454,-3.2118,-3.3107,-3.2321,-3.2112,-3.2893,-3.2877,-3.343,-3.4876,-3.4618,-3.4232,-3.3817,-3.4016,-3.3708,-3.2514,-3.2354,-3.2392,-3.2428,-3.2349,-3.2546,-3.2756,-3.2896,-3.2909,-3.3276,-3.3322,-3.3117,-3.2985,-3.283,-3.2578,-3.2395,-3.213,-3.2135,-3.2023,-3.29,-3.3321,-3.2679,-3.2304,-3.2231,-3.2402,-3.2241,-3.2355,-3.2985,-3.323,-3.3258,-3.3506,-3.3882,-3.3619,-3.2671,-3.2257,-3.2295,-3.3045,-3.207,-3.1619,-3.3648,-3.4883,-3.5133,-3.0023,-3.0075,-3.0219,-3.0293,-3.0332,-2.9868,-2.9135,-2.8279,-2.8365,-2.887,-2.9679,-2.9683,-3.0055,-3.0698,-3.0695,-3.0752,-3.0874,-3.0735,-3.0769,-3.084,-3.0027,-2.971,-2.9696,-2.8116,-2.7355,-2.7297,-2.6482,-2.6073,-2.6074,-2.6074,-2.5996,-2.5918,-2.6016,-2.5957,-2.572,-2.5696,-2.5692,-2.5692,-2.569,-2.6037,-2.6687,-2.604,-2.6036,-2.6721,-2.6203,-2.5916,-2.6048,-2.6858,-2.7224,-2.7222,-2.7683,-2.791,-2.7832,-2.8234,-2.8377,-2.8228,-2.8552,-2.9186,-3.0122,-3.0603,-3.1315,-3.2206,-3.1495,-3.1017,-3.106,-3.1008,-3.1141,-3.1509,-3.1823,-3.1857,-3.2102,-3.2402,-3.2562,-3.239,-3.2372,-3.2436,-3.2496,-3.2008,-3.1957,-3.2825,-3.2356,-3.231,-3.2994,-3.314,-3.2762,-3.2151,-3.1445,-3.056,-2.9742,-3.1033,-3.2455,-3.2473,-3.2602,-3.2708,-3.2349,-3.1853,-3.1678,-3.2285,-3.1664,-3.1459,-3.2131,-3.2235,-3.2418,-3.2873,-3.2676,-3.2518,-3.2695,-3.1894,-3.1588,-3.2136,-3.1487,-3.1412,-3.2524,-3.3392,-3.3893,-3.0166,-3.0266,-3.0414,-3.0253,-2.9922,-2.9606,-2.9022,-2.8257,-2.8209,-2.8407,-2.8764,-2.8799,-2.8995,-2.9338,-2.9349,-2.9331,-2.9344,-2.9337,-2.934,-2.9306,-2.8955,-2.8838,-2.8763,-2.759,-2.7003,-2.6947,-2.6122,-2.5692,-2.5694,-2.5674,-2.5676,-2.5698,-2.5697,-2.5695,-2.5691,-2.5705,-2.5704,-2.5706,-2.5694,-2.5889,-2.6231,-2.5899,-2.5848,-2.6149,-2.6157,-2.6214,-2.622,-2.6978,-2.7406,-2.7406,-2.7547,-2.7758,-2.8139,-2.8252,-2.8396,-2.8635,-2.8801,-2.921,-2.9958,-3.0907,-3.1466,-3.1494,-3.1024,-3.0682,-3.0547,-3.0912,-3.1161,-3.1171,-3.1398,-3.1336,-3.1013,-3.1571,-3.1759,-3.1206,-3.1987,-3.242,-3.2118,-3.225,-3.2482,-3.2859,-3.2369,-3.2088,-3.2506,-3.1779,-3.1135,-3.0586,-2.9878,-2.8923,-2.8024,-2.9129,-3.0325,-3.056,-3.0956,-3.1215,-3.1234,-3.092,-3.0801,-3.1116,-3.0799,-3.0784,-3.1261,-3.1401,-3.1648,-3.2166,-3.1942,-3.176,-3.1853,-3.1277,-3.0928,-3.0592,-3.0667,-3.0731,-3.1439,-3.2317,-3.3044,-3.0286,-3.0447,-3.0758,-3.0558,-3.001,-2.9842,-2.9172,-2.8244,-2.8198,-2.7974,-2.7683,-2.7815,-2.8108,-2.8476,-2.849,-2.859,-2.8757,-2.8783,-2.8675,-2.8487,-2.8301,-2.8233,-2.8201,-2.7398,-2.7102,-2.7138,-2.6384,-2.5984,-2.5942,-2.5723,-2.5611,-2.5679,-2.5673,-2.5669,-2.5668,-2.5689,-2.5692,-2.5679,-2.5696,-2.57,-2.5696,-2.5696,-2.5672,-2.5679,-2.6208,-2.6512,-2.6548,-2.7113,-2.7445,-2.7394,-2.7163,-2.7389,-2.8053,-2.8038,-2.8264,-2.882,-2.8997,-2.9312,-2.9908,-3.0754,-3.1077,-3.0648,-3.032,-3.0159,-3.0208,-3.0856,-3.1288,-3.1241,-3.1143,-3.0974,-3.0709,-3.1076,-3.1202,-3.0551,-3.1419,-3.1833,-3.1456,-3.202,-3.2623,-3.2638,-3.2331,-3.2026,-3.1758,-3.0718,-2.9673,-2.9,-2.832,-2.7802,-2.7464,-2.737,-2.7634,-2.8347,-2.9198,-2.9851,-2.9877,-3.0063,-3.0129,-3.0091,-3.0133,-3.0265,-3.0526,-3.0547,-3.0728,-3.1162,-3.1073,-3.084,-3.0479,-3.0405,-3.0212,-2.9822,-2.9868,-3.0225,-3.103,-3.1672,-3.2418,-3.0361,-3.0617,-3.1377,-3.1809,-3.1659,-3.0908,-2.9674,-2.8293,-2.8203,-2.7319,-2.6211,-2.6711,-2.7918,-2.9242,-2.9301,-2.9652,-3.0281,-3.0511,-3.0055,-2.9258,-2.8565,-2.824,-2.8223,-2.7421,-2.7375,-2.7881,-2.7198,-2.6793,-2.6736,-2.6005,-2.5623,-2.5605,-2.5617,-2.5589,-2.5604,-2.5655,-2.5669,-2.5614,-2.566,-2.5703,-2.5702,-2.5702,-2.5703,-2.5699,-2.571,-2.5682,-2.5682,-2.5707,-2.5712,-2.5648,-2.5488,-2.5685,-2.6401,-2.6879,-2.7388,-2.8025,-2.8583,-2.9156,-2.9623,-2.9155,-2.917,-2.9584,-2.9071,-2.8903,-2.9447,-3.0044,-3.0397,-3.0347,-2.9944,-3.0301,-3.1191,-3.1064,-3.1035,-3.1192,-3.1012,-3.0439,-3.067,-3.064,-3.1086,-3.2016,-3.2157,-3.2113,-3.2049,-3.1176,-2.9675,-2.767,-2.722,-2.6784,-2.6149,-2.598,-2.6199,-2.6991,-2.8076,-2.9009,-2.9276,-2.9735,-3.0042,-3.0109,-3.0098,-3.0035,-2.9878,-2.967,-2.9606,-3.0083,-2.96,-2.9418,-2.9751,-2.9802,-2.9544,-2.9598,-2.9783,-3.017,-3.098,-3.132,-3.1708,-3.0394,-3.0486,-3.0936,-3.1176,-3.1193,-3.0859,-2.9757,-2.8285,-2.8746,-2.8013,-2.6679,-2.7368,-2.7848,-2.8051,-2.8511,-2.8926,-2.9212,-2.9256,-2.9077,-2.8711,-2.8376,-2.8256,-2.8237,-2.7968,-2.7947,-2.8158,-2.7828,-2.7629,-2.7414,-2.668,-2.6009,-2.5582,-2.5504,-2.5495,-2.554,-2.5571,-2.56,-2.5607,-2.5621,-2.5641,-2.5701,-2.57,-2.5703,-2.57,-2.5637,-2.557,-2.5507,-2.5513,-2.5444,-2.5331,-2.5157,-2.5323,-2.5982,-2.6165,-2.6718,-2.7739,-2.8396,-2.8789,-2.8974,-2.9026,-2.9206,-2.952,-2.9182,-2.924,-2.9816,-2.9402,-2.9337,-3.0252,-3.0639,-3.1074,-3.148,-3.1874,-3.1977,-3.1742,-3.2128,-3.226,-3.1366,-3.1788,-3.2345,-3.2694,-3.2331,-3.2267,-3.2398,-3.1184,-2.9272,-2.7341,-2.6591,-2.603,-2.5568,-2.5511,-2.5641,-2.6084,-2.7314,-2.849,-2.9068,-2.9765,-3.0133,-3.0208,-3.0192,-3.0019,-2.9732,-2.9514,-2.9456,-2.9409,-2.8968,-2.8766,-2.9095,-2.9351,-2.9326,-2.9504,-2.9753,-3.0097,-3.0481,-3.0562,-3.0776,-3.024,-3.0142,-3.0222,-3.0535,-3.0999,-3.0766,-2.9852,-2.8704,-2.9219,-2.866,-2.7497,-2.8248,-2.8151,-2.7553,-2.82,-2.8549,-2.8581,-2.8807,-2.8631,-2.8303,-2.8486,-2.8642,-2.863,-2.8628,-2.8729,-2.8827,-2.8665,-2.8333,-2.7923,-2.7084,-2.6354,-2.5844,-2.553,-2.5391,-2.5449,-2.5466,-2.5517,-2.5561,-2.5588,-2.5627,-2.5663,-2.5664,-2.5683,-2.5681,-2.5638,-2.5572,-2.5529,-2.5517,-2.5443,-2.5274,-2.5094,-2.5157,-2.5501,-2.5593,-2.6252,-2.7526,-2.8028,-2.8263,-2.8304,-2.8764,-2.9016,-2.8988,-2.8873,-2.9077,-2.947,-2.8858,-2.8919,-3.0026,-3.1252,-3.1855,-3.2038,-3.2686,-3.2874,-3.2423,-3.3263,-3.3078,-3.2098,-3.2408,-3.2577,-3.2821,-3.2316,-3.2102,-3.2231,-3.0815,-2.89,-2.7288,-2.6454,-2.5837,-2.5602,-2.5554,-2.5617,-2.5872,-2.6993,-2.7907,-2.8788,-2.9715,-3.016,-3.0279,-3.0241,-3.0121,-2.9851,-2.9643,-2.9427,-2.9293,-2.8923,-2.8749,-2.887,-2.9074,-2.9405,-2.9532,-2.977,-3.0022,-3.016,-3.0114,-3.0144,-2.993,-2.9413,-2.9349,-3.035,-3.175,-3.096,-3.0137,-2.9359,-2.9497,-2.9008,-2.838,-2.9054,-2.9001,-2.8372,-2.9134,-2.9428,-2.9524,-3.0137,-2.968,-2.8508,-2.9115,-2.9443,-2.9434,-2.9449,-2.9821,-3.0264,-2.9679,-2.8872,-2.7957,-2.7016,-2.6528,-2.6477,-2.5682,-2.5293,-2.5341,-2.5434,-2.5499,-2.5518,-2.5576,-2.5603,-2.5616,-2.5603,-2.5633,-2.5679,-2.562,-2.5611,-2.5599,-2.552,-2.541,-2.5217,-2.5071,-2.4897,-2.4762,-2.5226,-2.609,-2.7217,-2.7392,-2.752,-2.7809,-2.7917,-2.7909,-2.7804,-2.7648,-2.7644,-2.8333,-2.8503,-2.8847,-2.9494,-3.1048,-3.2223,-3.2716,-3.3085,-3.3479,-3.3722,-3.2739,-3.2188,-3.1937,-3.1425,-3.1296,-3.1851,-3.2024,-3.1814,-3.1187,-3.0149,-2.8933,-2.7615,-2.6937,-2.6603,-2.5933,-2.5741,-2.6102,-2.6519,-2.694,-2.7277,-2.8113,-2.9245,-3.0053,-3.0309,-3.0273,-3.0169,-2.9921,-2.968,-2.9437,-2.9201,-2.892,-2.8791,-2.8803,-2.9034,-2.9456,-2.9698,-2.9864,-3.0046,-3.0064,-3.0094,-3.0116,-3.0254,-3.0071,-3.0075,-3.0475,-3.1006,-3.0714,-3.0463,-3.024,-3.0239,-3.0135,-2.9934,-3.0195,-3.0183,-2.9995,-3.0264,-3.0074,-2.957,-2.9841,-2.9902,-2.979,-3.0127,-3.0302,-3.0339,-3.0342,-3.0428,-3.0602,-3.0375,-2.9699,-2.8639,-2.7679,-2.6924,-2.6331,-2.5585,-2.5181,-2.5252,-2.536,-2.5453,-2.5511,-2.5528,-2.5556,-2.5591,-2.5609,-2.5609,-2.5639,-2.5621,-2.5578,-2.5541,-2.5515,-2.5369,-2.5082,-2.5018,-2.4842,-2.4561,-2.5012,-2.5695,-2.6512,-2.6803,-2.7179,-2.7677,-2.755,-2.7415,-2.7367,-2.7276,-2.7276,-2.7526,-2.7733,-2.8025,-2.8763,-3.032,-3.1623,-3.2423,-3.3347,-3.4084,-3.4083,-3.3615,-3.2825,-3.2115,-3.1583,-3.1329,-3.1291,-3.1648,-3.1771,-3.1104,-3.0602,-2.9935,-2.8856,-2.8175,-2.7455,-2.6832,-2.6932,-2.705,-2.6638,-2.7491,-2.8447,-2.806,-2.8912,-2.9688,-3.0155,-3.031,-3.0226,-3.0042,-2.9751,-2.9523,-2.9387,-2.9082,-2.8863,-2.8887,-2.9104,-2.9533,-2.9883,-3.0046,-3.0064,-3.0101,-3.0123,-3.0145,-3.0078,-3.0718,-3.0332,-3.0462,-3.1002,-3.1015,-3.0878,-3.0723,-3.072,-3.0765,-3.0795,-3.0808,-3.0717,-3.0505,-3.0486,-3.0156,-2.9618,-3.0043,-3.0459,-3.0682,-3.0966,-3.1147,-3.1133,-3.0908,-3.0799,-3.0714,-3.0591,-3.0081,-2.9238,-2.8058,-2.7155,-2.6513,-2.553,-2.5057,-2.5147,-2.5276,-2.5364,-2.5418,-2.5452,-2.5441,-2.5485,-2.5438,-2.5467,-2.5486,-2.5489,-2.5509,-2.5515,-2.5452,-2.5308,-2.5059,-2.4949,-2.4753,-2.4422,-2.4626,-2.5034,-2.5595,-2.605,-2.6514,-2.7033,-2.7073,-2.7053,-2.7053,-2.694,-2.694,-2.7164,-2.7243,-2.7502,-2.8294,-2.9893,-3.1353,-3.2187,-3.3595,-3.4612,-3.4591,-3.4269,-3.357,-3.2452,-3.1903,-3.1337,-3.0874,-3.117,-3.1404,-3.1336,-3.1286,-3.0994,-3.0443,-2.9667,-2.873,-2.7793,-2.7754,-2.791,-2.6894,-2.7903,-2.8846,-2.8981,-2.9463,-2.9781,-3.0181,-3.0316,-3.0246,-3.0128,-2.9847,-2.9617,-2.9504,-2.9295,-2.9052,-2.9034,-2.9217,-2.9561,-2.9937,-3.0098,-3.0142,-3.0164,-3.0171,-3.0185,-2.9375,-3.1209,-2.9975,-3.0418,-3.1684,-3.176,-3.1398,-3.0776,-3.0757,-3.0798,-3.0822,-3.0871,-3.0506,-2.9882,-2.9902,-2.9665,-2.9893,-3.109,-3.1315,-3.0742,-3.1346,-3.1679,-3.1634,-3.0855,-3.0558,-3.0625,-3.036,-3.0041,-2.959,-2.8125,-2.7204,-2.674,-2.5589,-2.4986,-2.4994,-2.5122,-2.5236,-2.5303,-2.5327,-2.5322,-2.5279,-2.5191,-2.5192,-2.5272,-2.5301,-2.5365,-2.5484,-2.5373,-2.5219,-2.5016,-2.4871,-2.4607,-2.4266,-2.4117,-2.4125,-2.4574,-2.5103,-2.5512,-2.581,-2.6384,-2.6758,-2.6792,-2.6502,-2.6707,-2.7207,-2.7353,-2.7639,-2.85,-3.0033,-3.152,-3.2291,-3.3809,-3.5041,-3.524,-3.4623,-3.3658,-3.2985,-3.2044,-3.1212,-3.0632,-3.0715,-3.1103,-3.1728,-3.1929,-3.1874,-3.1796,-3.1289,-3.0155,-2.871,-2.8574,-2.8418,-2.8044,-2.8534,-2.9294,-2.971,-3.0067,-3.0149,-3.025,-3.0238,-3.0207,-3.0123,-2.9894,-2.9653,-2.9504,-2.9209,-2.8962,-2.8776,-2.901,-2.9382,-2.9731,-2.9935,-3.0154,-3.0213,-3.0219,-3.0199,-3.026,-3.1511,-3.1191,-3.1328,-3.1873,-3.1882,-3.1445,-3.072,-3.0721,-3.0765,-3.0811,-3.0878,-3.0742,-3.0545,-3.0446,-3.0374,-3.0431,-3.1447,-3.1512,-3.0714,-3.0377,-3.0308,-3.0154,-2.9446,-2.9285,-2.9757,-3.0076,-3.0015,-2.9519,-2.8426,-2.755,-2.6749,-2.5907,-2.5244,-2.4794,-2.4975,-2.5124,-2.5287,-2.5292,-2.5233,-2.5108,-2.5094,-2.5046,-2.4984,-2.513,-2.526,-2.536,-2.5327,-2.5184,-2.501,-2.4864,-2.4607,-2.4275,-2.4094,-2.4165,-2.4473,-2.4958,-2.5406,-2.5759,-2.6252,-2.6589,-2.669,-2.692,-2.7242,-2.7589,-2.827,-2.8904,-2.9523,-3.0648,-3.1709,-3.2941,-3.416,-3.5274,-3.6187,-3.4864,-3.3934,-3.3481,-3.1891,-3.0725,-3.0485,-3.0511,-3.0986,-3.1741,-3.2085,-3.2402,-3.2906,-3.2671,-3.1694,-2.9831,-2.9862,-2.9629,-2.8066,-2.8937,-2.9467,-2.9537,-2.973,-2.9975,-3.0141,-3.0205,-3.0235,-3.014,-2.9942,-2.9706,-2.9407,-2.9101,-2.8908,-2.873,-2.8809,-2.9163,-2.9501,-2.973,-2.9952,-3.0202,-3.0253,-3.0233,-2.9902,-3.1064,-3.0949,-3.1086,-3.1394,-3.1418,-3.1142,-3.0639,-3.0355,-3.0441,-3.0715,-3.0839,-3.0873,-3.0849,-3.0823,-3.059,-3.0353,-3.08,-3.0526,-2.9943,-2.9995,-2.9741,-2.947,-2.8956,-2.8834,-2.9266,-2.9794,-2.983,-2.9373,-2.8066,-2.699,-2.622,-2.5403,-2.4801,-2.4493,-2.4728,-2.4974,-2.5122,-2.5136,-2.5043,-2.4885,-2.4771,-2.4721,-2.4724,-2.4892,-2.5094,-2.5243,-2.5228,-2.5179,-2.5018,-2.4809,-2.4526,-2.4228,-2.4123,-2.408,-2.4129,-2.4739,-2.5273,-2.5405,-2.6067,-2.6688,-2.6974,-2.7466,-2.796,-2.8355,-2.9264,-2.9929,-3.0481,-3.1326,-3.2254,-3.3323,-3.4368,-3.5463,-3.6522,-3.5586,-3.4538,-3.3849,-3.1708,-3.054,-3.0578,-3.0627,-3.1181,-3.2067,-3.2556,-3.2927,-3.3634,-3.358,-3.2453,-3.0591,-3.037,-2.9101,-2.8197,-2.8499,-2.8853,-2.9012,-2.9328,-2.9748,-2.999,-3.0182,-3.0244,-3.0241,-2.9965,-2.9688,-2.9264,-2.8915,-2.8845,-2.8691,-2.8648,-2.8864,-2.9178,-2.9541,-2.9768,-2.9998,-3.0222,-3.0253,-2.8682,-3.0086,-2.9573,-2.9858,-3.0494,-3.0539,-3.0435,-3.0273,-2.984,-2.9959,-3.0479,-3.0721,-3.0804,-3.0792,-3.0663,-3.0213,-2.9613,-2.935,-2.8927,-2.8712,-2.9237,-2.9605,-2.9002,-2.9006,-2.9037,-2.9082,-2.9438,-2.9361,-2.8734,-2.697,-2.5759,-2.5345,-2.4367,-2.3668,-2.3812,-2.4304,-2.4452,-2.4465,-2.4587,-2.4569,-2.4446,-2.4318,-2.4256,-2.4484,-2.467,-2.4898,-2.5126,-2.5153,-2.5093,-2.5018,-2.4731,-2.4469,-2.4257,-2.4143,-2.3876,-2.3395,-2.4497,-2.4871,-2.4948,-2.5826,-2.6809,-2.7452,-2.7913,-2.8543,-2.9314,-3.0018,-3.0668,-3.1203,-3.2148,-3.2985,-3.3626,-3.4491,-3.5501,-3.6302,-3.5904,-3.4952,-3.3421,-3.1225,-3.0472,-3.0803,-3.0857,-3.1112,-3.2636,-3.3007,-3.3526,-3.4017,-3.375,-3.2238,-3.0464,-2.9668,-2.8795,-2.8374,-2.8175,-2.8439,-2.8657,-2.8743,-2.9112,-2.922,-2.9509,-2.9683,-2.9819,-2.9569,-2.9306,-2.8912,-2.867,-2.8645,-2.8499,-2.8305,-2.8568,-2.9066,-2.9353,-2.9558,-2.9722,-2.9889,-2.9979,-2.9383,-2.934,-2.9266,-2.9381,-2.965,-2.9698,-2.9334,-2.8902,-2.9306,-2.9536,-2.9938,-3.0517,-3.0726,-3.0712,-3.0102,-2.9683,-2.9237,-2.8636,-2.7888,-2.721,-2.7391,-2.7635,-2.7668,-2.8184,-2.8395,-2.8303,-2.8436,-2.8391,-2.7711,-2.5988,-2.5038,-2.4798,-2.3825,-2.3025,-2.2589,-2.2852,-2.2895,-2.2876,-2.3382,-2.3627,-2.3675,-2.4087,-2.4238,-2.4165,-2.4593,-2.4895,-2.505,-2.5086,-2.5,-2.4813,-2.4704,-2.4561,-2.4456,-2.444,-2.4169,-2.3766,-2.4253,-2.4761,-2.4944,-2.5764,-2.6635,-2.7372,-2.8249,-2.9029,-2.9878,-3.096,-3.1753,-3.2397,-3.3213,-3.3728,-3.3999,-3.4772,-3.5606,-3.5902,-3.5191,-3.3682,-3.1644,-3.0332,-3.001,-3.033,-3.0379,-3.096,-3.1831,-3.2324,-3.2662,-3.3261,-3.3122,-3.2282,-3.0057,-2.9507,-2.8966,-2.7977,-2.7681,-2.8064,-2.8314,-2.8325,-2.8384,-2.8387,-2.8582,-2.8756,-2.8804,-2.8722,-2.8453,-2.8131,-2.8071,-2.8047,-2.7738,-2.7454,-2.8089,-2.875,-2.8986,-2.9096,-2.9208,-2.9356,-2.9415,-2.9121,-2.8421,-2.8195,-2.8155,-2.8217,-2.8229,-2.8343,-2.8493,-2.8372,-2.884,-2.9427,-3.0009,-3.0033,-2.9695,-2.9524,-2.8978,-2.8297,-2.7756,-2.6973,-2.614,-2.5945,-2.6213,-2.6719,-2.7304,-2.7439,-2.7304,-2.6934,-2.6577,-2.5976,-2.4458,-2.359,-2.3326,-2.2845,-2.2124,-2.15,-2.1784,-2.2185,-2.2502,-2.2945,-2.3233,-2.3554,-2.3953,-2.4118,-2.4088,-2.4439,-2.473,-2.4987,-2.5411,-2.5526,-2.5389,-2.5299,-2.5333,-2.5524,-2.5544,-2.5134,-2.4353,-2.5092,-2.5575,-2.5272,-2.6109,-2.7158,-2.7869,-2.8705,-2.9713,-3.0737,-3.1715,-3.2361,-3.3147,-3.357,-3.3787,-3.4148,-3.4778,-3.5011,-3.4714,-3.4015,-3.2883,-3.1421,-3.0497,-3.0168,-3.0293,-3.0165,-3.0133,-3.1174,-3.1148,-3.1246,-3.1503,-3.1554,-3.031,-2.8867,-2.9122,-2.8854,-2.7578,-2.6829,-2.7021,-2.7135,-2.7162,-2.7408,-2.7473,-2.7424,-2.7644,-2.7661,-2.7661,-2.7613,-2.7429,-2.7443,-2.7452,-2.7262,-2.7157,-2.743,-2.7965,-2.8327,-2.8526,-2.8579,-2.8712,-2.8791,-2.8357,-2.7388,-2.675,-2.6444,-2.6414,-2.6391,-2.7157,-2.8217,-2.7294,-2.7692,-2.8947,-2.9312,-2.9017,-2.8269,-2.8724,-2.8272,-2.6884,-2.6792,-2.6124,-2.543,-2.5066,-2.5268,-2.6177,-2.6275,-2.6381,-2.6163,-2.4979,-2.4324,-2.3624,-2.2028,-2.1307,-2.1249,-2.1042,-2.0797,-2.049,-2.0904,-2.1767,-2.2389,-2.2784,-2.3208,-2.3667,-2.3951,-2.4097,-2.4097,-2.4344,-2.4798,-2.5317,-2.5919,-2.6371,-2.6512,-2.6269,-2.6451,-2.6988,-2.7054,-2.6451,-2.558,-2.6059,-2.623,-2.5819,-2.6782,-2.7906,-2.8458,-2.9026,-3.0085,-3.1197,-3.1723,-3.2254,-3.3056,-3.3339,-3.3775,-3.4159,-3.4544,-3.421,-3.363,-3.3127,-3.3034,-3.2604,-3.1026,-3.0007,-3.072,-2.9553,-2.9481,-2.9729,-2.9757,-2.9335,-2.9936,-2.9863,-2.9138,-2.8099,-2.7863,-2.7376,-2.6391,-2.5953,-2.5825,-2.5882,-2.5881,-2.6246,-2.6478,-2.6308,-2.634,-2.6379,-2.644,-2.661,-2.6623,-2.6566,-2.6878,-2.7275,-2.7241,-2.7032,-2.7445,-2.7954,-2.7872,-2.7741,-2.7972,-2.8121,-2.831,-2.5715,-2.5629,-2.5197,-2.463,-2.4633,-2.5263,-2.6183,-2.5957,-2.6856,-2.8113,-2.8448,-2.8343,-2.8101,-2.7715,-2.7158,-2.6676,-2.6153,-2.5502,-2.5105,-2.4316,-2.4474,-2.5018,-2.4992,-2.5027,-2.4558,-2.2792,-2.1692,-2.0915,-1.9411,-1.8454,-1.906,-1.8974,-1.8619,-1.895,-1.9761,-2.027,-2.0953,-2.1995,-2.2817,-2.3345,-2.3915,-2.4192,-2.422,-2.4546,-2.5265,-2.6033,-2.6335,-2.7045,-2.7829,-2.7683,-2.7384,-2.7437,-2.6915,-2.6478,-2.6299,-2.5834,-2.5929,-2.6357,-2.6983,-2.7647,-2.8344,-2.8866,-2.9448,-3.0239,-3.1093,-3.1558,-3.228,-3.3301,-3.4083,-3.4408,-3.4251,-3.3722,-3.3022,-3.2321,-3.1459,-3.0344,-2.9719,-2.9344,-2.887,-2.836,-2.8027,-2.8382,-2.8427,-2.828,-2.8416,-2.8218,-2.7926,-2.7405,-2.6805,-2.6326,-2.5708,-2.5672,-2.5678,-2.5693,-2.5641,-2.5705,-2.5777,-2.5532,-2.5158,-2.5185,-2.5321,-2.5521,-2.5632,-2.5662,-2.6118,-2.6758,-2.6339,-2.5924,-2.6757,-2.744,-2.717,-2.7031,-2.7262,-2.7547,-2.783,-2.5781,-2.4943,-2.4568,-2.4577,-2.4925,-2.5379,-2.5823,-2.5975,-2.6578,-2.7376,-2.7578,-2.7382,-2.7039,-2.6903,-2.6683,-2.6151,-2.5677,-2.509,-2.4525,-2.3846,-2.3549,-2.3195,-2.2866,-2.2546,-2.2163,-2.0137,-1.8875,-1.789,-1.6799,-1.6349,-1.7404,-1.7301,-1.7749,-1.8135,-1.8914,-1.9802,-2.0776,-2.1634,-2.2464,-2.3232,-2.384,-2.433,-2.4434,-2.4772,-2.5418,-2.6376,-2.6895,-2.7744,-2.8612,-2.8802,-2.8685,-2.8556,-2.7824,-2.7219,-2.674,-2.6749,-2.6279,-2.6682,-2.7459,-2.8264,-2.8462,-2.8797,-2.9509,-3.0106,-3.0794,-3.1166,-3.1886,-3.2821,-3.3598,-3.387,-3.3543,-3.2981,-3.2491,-3.152,-3.0258,-2.9046,-2.8635,-2.8351,-2.7615,-2.7037,-2.695,-2.6998,-2.7068,-2.6909,-2.6872,-2.6927,-2.6646,-2.6572,-2.6072,-2.6047,-2.5715,-2.566,-2.5644,-2.5659,-2.5572,-2.5401,-2.5287,-2.4962,-2.4487,-2.4153,-2.4327,-2.4523,-2.468,-2.4953,-2.5474,-2.5895,-2.5371,-2.5315,-2.6042,-2.6505,-2.631,-2.6375,-2.6702,-2.6982,-2.7286,-2.6006,-2.4449,-2.411,-2.4627,-2.5342,-2.5736,-2.6017,-2.6468,-2.6685,-2.6874,-2.6884,-2.664,-2.6025,-2.6401,-2.6185,-2.5712,-2.5405,-2.4979,-2.4071,-2.3417,-2.2738,-2.1976,-2.1011,-1.9816,-1.8997,-1.7524,-1.6342,-1.5319,-1.4329,-1.4337,-1.5531,-1.6194,-1.6686,-1.76,-1.8584,-1.9655,-2.1087,-2.1816,-2.2533,-2.3404,-2.3915,-2.4275,-2.4693,-2.5172,-2.5805,-2.6812,-2.7568,-2.8362,-2.9227,-2.969,-2.9865,-2.9673,-2.8957,-2.8033,-2.6981,-2.7239,-2.7122,-2.6961,-2.7903,-2.8865,-2.8842,-2.8761,-2.9258,-3.0124,-3.0259,-3.0543,-3.1117,-3.1787,-3.2168,-3.2497,-3.2208,-3.189,-3.1374,-3.03,-2.9137,-2.7931,-2.7357,-2.6819,-2.646,-2.5875,-2.5684,-2.5755,-2.5798,-2.5543,-2.5409,-2.5507,-2.5547,-2.5521,-2.5576,-2.5654,-2.5698,-2.5641,-2.5624,-2.564,-2.5498,-2.532,-2.4941,-2.4586,-2.4091,-2.3589,-2.3755,-2.4026,-2.4077,-2.4396,-2.4966,-2.5395,-2.5299,-2.5385,-2.5703,-2.5811,-2.5875,-2.6002,-2.6178,-2.6485,-2.7318,-2.4462,-2.406,-2.3184,-2.2291,-2.3518,-2.4347,-2.4583,-2.5981,-2.6653,-2.6743,-2.6853,-2.6405,-2.5934,-2.5775,-2.5765,-2.5602,-2.5406,-2.4858,-2.3854,-2.304,-2.208,-2.1,-2.0066,-1.8133,-1.5898,-1.5142,-1.4725,-1.33,-1.2342,-1.2487,-1.2929,-1.4092,-1.5311,-1.6932,-1.8245,-1.986,-2.1236,-2.201,-2.2784,-2.3421,-2.3925,-2.4344,-2.4905,-2.5495,-2.6477,-2.7531,-2.8426,-2.9252,-2.9939,-2.9436,-2.9138,-2.8817,-2.8085,-2.7382,-2.7044,-2.6961,-2.6988,-2.7198,-2.8087,-2.8658,-2.8628,-2.8496,-2.8339,-2.8746,-2.905,-2.9501,-2.9677,-3.0189,-3.0637,-3.1524,-3.097,-3.0091,-2.9313,-2.8519,-2.7491,-2.5836,-2.5105,-2.5001,-2.4877,-2.4579,-2.4523,-2.476,-2.4999,-2.5057,-2.5215,-2.5479,-2.5476,-2.541,-2.5512,-2.5627,-2.563,-2.5623,-2.5603,-2.5619,-2.5401,-2.5179,-2.4746,-2.4379,-2.4029,-2.3646,-2.3548,-2.362,-2.3747,-2.4104,-2.4713,-2.4979,-2.5129,-2.535,-2.5595,-2.559,-2.5538,-2.5719,-2.5929,-2.6184,-2.7125,-2.467,-2.4457,-2.3917,-2.3366,-2.4365,-2.442,-2.4054,-2.5695,-2.6115,-2.5784,-2.597,-2.6078,-2.5758,-2.5702,-2.5683,-2.5592,-2.5091,-2.4366,-2.3358,-2.2365,-2.1335,-2.042,-1.9664,-1.7191,-1.5047,-1.4321,-1.3492,-1.1588,-1.1007,-1.1244,-1.2242,-1.3324,-1.4821,-1.6682,-1.8476,-1.9991,-2.1226,-2.2017,-2.2682,-2.3385,-2.3918,-2.4548,-2.4984,-2.5547,-2.6495,-2.7697,-2.7691,-2.8643,-2.9582,-2.8957,-2.8329,-2.7808,-2.7148,-2.6474,-2.6437,-2.6543,-2.6681,-2.717,-2.7958,-2.8646,-2.8529,-2.8316,-2.8352,-2.8493,-2.881,-2.8891,-2.9216,-2.9211,-2.978,-3.046,-2.9539,-2.8673,-2.7933,-2.6973,-2.5667,-2.4541,-2.3807,-2.3589,-2.3558,-2.3567,-2.3753,-2.4165,-2.4404,-2.4631,-2.4967,-2.5391,-2.5469,-2.5413,-2.5615,-2.5861,-2.5839,-2.5893,-2.601,-2.6014,-2.5842,-2.5326,-2.4783,-2.4248,-2.3912,-2.3654,-2.3518,-2.3457,-2.3472,-2.3955,-2.4518,-2.4819,-2.5042,-2.5278,-2.5482,-2.5482,-2.5506,-2.5559,-2.5705,-2.5961,-2.6642,-2.4799,-2.4472,-2.4252,-2.4298,-2.5027,-2.4682,-2.4099,-2.5611,-2.5738,-2.4681,-2.5483,-2.593,-2.5729,-2.5681,-2.5656,-2.5585,-2.4754,-2.383,-2.2894,-2.1918,-2.0838,-2.0074,-1.9356,-1.7963,-1.5367,-1.421,-1.2799,-1.0622,-1.0176,-1.101,-1.2248,-1.3362,-1.5055,-1.7135,-1.8865,-2.0158,-2.1118,-2.1779,-2.2381,-2.324,-2.41,-2.4733,-2.5006,-2.5305,-2.6294,-2.7401,-2.7446,-2.7956,-2.8657,-2.8255,-2.7245,-2.6896,-2.5942,-2.5456,-2.576,-2.62,-2.6481,-2.7068,-2.7761,-2.8498,-2.8504,-2.8106,-2.824,-2.8361,-2.8342,-2.8532,-2.9209,-2.899,-2.8767,-2.8895,-2.8082,-2.7313,-2.6618,-2.5352,-2.4091,-2.38,-2.3292,-2.2744,-2.2705,-2.2717,-2.3069,-2.359,-2.4004,-2.428,-2.5086,-2.5536,-2.6045,-2.6027,-2.6111,-2.6258,-2.6229,-2.6295,-2.6473,-2.6532,-2.6528,-2.5866,-2.5077,-2.4426,-2.3921,-2.3688,-2.3484,-2.3519,-2.3703,-2.3858,-2.4388,-2.4672,-2.4998,-2.5276,-2.545,-2.5459,-2.5487,-2.5561,-2.5621,-2.5783,-2.5663,-2.387,-2.2839,-2.2327,-2.251,-2.3159,-2.3392,-2.3532,-2.5279,-2.5889,-2.4908,-2.6124,-2.6246,-2.5818,-2.5634,-2.5612,-2.5358,-2.4704,-2.3804,-2.2853,-2.1883,-2.0955,-2.0144,-1.9914,-1.8645,-1.6403,-1.5044,-1.2369,-1.0586,-1.0307,-1.0948,-1.2435,-1.4287,-1.595,-1.7786,-1.9502,-2.0701,-2.1555,-2.1926,-2.2548,-2.3491,-2.4346,-2.4805,-2.5256,-2.586,-2.6504,-2.6975,-2.7151,-2.7766,-2.7752,-2.7058,-2.6273,-2.5745,-2.4829,-2.4751,-2.5214,-2.5917,-2.6687,-2.7335,-2.7827,-2.8128,-2.8115,-2.7848,-2.7529,-2.7565,-2.754,-2.767,-2.8202,-2.7725,-2.7331,-2.7274,-2.6588,-2.5865,-2.5146,-2.4239,-2.367,-2.3386,-2.2855,-2.2324,-2.2203,-2.2309,-2.2708,-2.32,-2.3588,-2.4018,-2.4912,-2.5693,-2.622,-2.6631,-2.6703,-2.6831,-2.6834,-2.7085,-2.7305,-2.7152,-2.7153,-2.639,-2.5448,-2.4681,-2.3992,-2.3661,-2.3574,-2.4109,-2.4243,-2.4307,-2.4343,-2.4643,-2.4976,-2.529,-2.5442,-2.5449,-2.551,-2.5595,-2.5637,-2.5704,-2.5143,-2.4298,-2.3995,-2.3241,-2.2364,-2.2537,-2.2118,-2.1964,-2.3658,-2.4257,-2.4137,-2.5483,-2.5974,-2.5685,-2.5636,-2.5605,-2.5414,-2.4702,-2.3824,-2.2983,-2.2034,-2.1121,-2.0392,-2.0021,-1.9059,-1.7529,-1.6243,-1.5266,-1.2886,-1.1431,-1.1507,-1.3695,-1.5403,-1.7109,-1.8788,-2.0444,-2.1512,-2.2259,-2.2754,-2.3275,-2.3884,-2.4484,-2.4937,-2.5152,-2.5717,-2.6165,-2.6571,-2.6338,-2.6902,-2.6918,-2.6253,-2.5758,-2.5644,-2.5022,-2.4496,-2.6062,-2.5505,-2.5792,-2.6649,-2.7187,-2.7392,-2.7481,-2.7417,-2.7478,-2.7166,-2.7006,-2.682,-2.6818,-2.6596,-2.622,-2.5709,-2.4995,-2.4492,-2.3854,-2.3274,-2.2935,-2.2716,-2.2416,-2.2027,-2.1955,-2.1955,-2.2405,-2.2788,-2.3093,-2.3804,-2.4988,-2.5798,-2.6413,-2.688,-2.7204,-2.7374,-2.753,-2.7884,-2.8286,-2.8008,-2.7792,-2.6851,-2.5917,-2.4936,-2.4289,-2.3694,-2.3706,-2.4128,-2.4486,-2.4563,-2.4612,-2.473,-2.4945,-2.5271,-2.537,-2.5455,-2.5526,-2.56,-2.566,-2.5704,-2.5062,-2.4576,-2.4543,-2.3771,-2.2593,-2.2043,-2.1166,-2.045,-2.207,-2.2672,-2.3004,-2.4525,-2.5565,-2.5554,-2.5535,-2.5518,-2.5507,-2.466,-2.3996,-2.32,-2.2457,-2.1732,-2.1372,-2.0915,-2.0205,-1.8222,-1.8047,-1.751,-1.6382,-1.4759,-1.4168,-1.5823,-1.7394,-1.876,-2.0158,-2.1453,-2.2449,-2.2875,-2.3351,-2.3764,-2.4128,-2.4606,-2.4924,-2.5146,-2.537,-2.5713,-2.612,-2.5705,-2.5938,-2.6075,-2.5801,-2.5498,-2.5609,-2.5183,-2.5229,-2.6088,-2.5468,-2.5117,-2.5937,-2.6478,-2.6499,-2.6577,-2.676,-2.6951,-2.7022,-2.6839,-2.6516,-2.6006,-2.5615,-2.5171,-2.4539,-2.3867,-2.3659,-2.3218,-2.2612,-2.2184,-2.1883,-2.189,-2.1986,-2.2075,-2.2075,-2.2099,-2.2436,-2.263,-2.3503,-2.4925,-2.5845,-2.6542,-2.7095,-2.7565,-2.7769,-2.7931,-2.8431,-2.89,-2.8975,-2.8446,-2.7448,-2.6451,-2.5485,-2.4647,-2.4134,-2.3785,-2.3892,-2.4259,-2.4679,-2.4847,-2.4924,-2.5072,-2.5216,-2.5367,-2.5492,-2.5532,-2.5604,-2.5665,-2.5704,-2.55,-2.4118,-2.2956,-2.2694,-2.2847,-2.1113,-2.0395,-2.0291,-2.1197,-2.1835,-2.2474,-2.4176,-2.5269,-2.5254,-2.5297,-2.5383,-2.5447,-2.4594,-2.4231,-2.3886,-2.3371,-2.2851,-2.2537,-2.2398,-2.2419,-2.1847,-2.0631,-2.0225,-2.0183,-1.8239,-1.8031,-1.8905,-1.9646,-2.0746,-2.1706,-2.2596,-2.3118,-2.3453,-2.3738,-2.3931,-2.4219,-2.459,-2.4916,-2.5062,-2.5257,-2.5437,-2.5466,-2.5162,-2.5019,-2.529,-2.5329,-2.5309,-2.5386,-2.5421,-2.5945,-2.6331,-2.53,-2.5114,-2.5792,-2.5936,-2.587,-2.5835,-2.5953,-2.6358,-2.6807,-2.6099,-2.5695,-2.5572,-2.5081,-2.4338,-2.3812,-2.3393,-2.3163,-2.2811,-2.2373,-2.2234,-2.195,-2.1807,-2.1906,-2.2137,-2.2206,-2.2189,-2.2226,-2.2453,-2.3201,-2.4569,-2.573,-2.6435,-2.7298,-2.7816,-2.8033,-2.8317,-2.8835,-2.9341,-2.9873,-2.9275,-2.8376,-2.7345,-2.6297,-2.543,-2.467,-2.4382,-2.3934,-2.4353,-2.484,-2.4969,-2.5116,-2.5253,-2.536,-2.5453,-2.5528,-2.5568,-2.5605,-2.5663,-2.5692,-2.5514,-2.407,-2.313,-2.2394,-2.1751,-2.077,-2.0114,-1.9894,-2.0767,-2.1962,-2.3087,-2.4417,-2.4946,-2.4849,-2.502,-2.5146,-2.5178,-2.5008,-2.4556,-2.4247,-2.3887,-2.3515,-2.3299,-2.3113,-2.3002,-2.2982,-2.2158,-2.2129,-2.2581,-2.1171,-2.189,-2.2268,-2.1722,-2.2339,-2.3084,-2.3589,-2.3846,-2.4004,-2.4126,-2.4257,-2.4403,-2.4559,-2.483,-2.5059,-2.4917,-2.5066,-2.508,-2.4816,-2.4644,-2.4711,-2.5051,-2.5266,-2.547,-2.5809,-2.6379,-2.6894,-2.5548,-2.5235,-2.5607,-2.5643,-2.554,-2.6102,-2.5969,-2.5928,-2.6605,-2.6353,-2.5661,-2.522,-2.4629,-2.3971,-2.2939,-2.2719,-2.2608,-2.2365,-2.2228,-2.2184,-2.2089,-2.1913,-2.1908,-2.2152,-2.2163,-2.2149,-2.22,-2.2292,-2.3182,-2.4181,-2.53,-2.6325,-2.7072,-2.7934,-2.816,-2.8579,-2.9121,-2.9555,-3.0069,-2.9711,-2.9248,-2.8192,-2.7077,-2.6144,-2.5241,-2.4473,-2.4207,-2.463,-2.4984,-2.5181,-2.5325,-2.5408,-2.547,-2.5515,-2.5568,-2.5586,-2.5619,-2.5652,-2.5675,-2.5848,-2.4386,-2.359,-2.2509,-2.1305,-2.0628,-1.9993,-1.9679,-2.0627,-2.2036,-2.3628,-2.4225,-2.4346,-2.422,-2.4354,-2.453,-2.4556,-2.4588,-2.4444,-2.4258,-2.4098,-2.3932,-2.3692,-2.3637,-2.3847,-2.3743,-2.3787,-2.3993,-2.3975,-2.3207,-2.3327,-2.3408,-2.3093,-2.3177,-2.4061,-2.4471,-2.4469,-2.4508,-2.4485,-2.4454,-2.454,-2.4578,-2.4636,-2.4859,-2.4764,-2.4776,-2.478,-2.4612,-2.4618,-2.4838,-2.5191,-2.56,-2.5958,-2.6361,-2.6829,-2.6786,-2.6331,-2.5428,-2.5566,-2.5052,-2.4901,-2.5345,-2.5448,-2.5638,-2.6133,-2.6336,-2.5627,-2.4728,-2.4289,-2.3665,-2.2465,-2.2398,-2.2372,-2.224,-2.219,-2.2113,-2.2161,-2.2065,-2.208,-2.2163,-2.2163,-2.2209,-2.2135,-2.2248,-2.2907,-2.3911,-2.5072,-2.5882,-2.6315,-2.725,-2.8187,-2.8712,-2.9365,-2.9781,-3.0126,-2.9794,-2.9418,-2.8821,-2.7722,-2.6705,-2.5814,-2.5032,-2.4459,-2.462,-2.4973,-2.535,-2.5429,-2.5384,-2.5457,-2.5563,-2.56,-2.563,-2.5607,-2.5641,-2.5669,-2.6631,-2.5125,-2.4117,-2.3041,-2.1922,-2.0649,-2.0044,-2.0027,-2.0899,-2.2016,-2.3159,-2.3559,-2.3595,-2.3446,-2.3765,-2.3927,-2.3997,-2.4089,-2.4058,-2.4086,-2.4091,-2.4283,-2.4401,-2.4424,-2.4393,-2.5166,-2.4967,-2.4649,-2.4505,-2.3604,-2.3684,-2.3792,-2.3355,-2.3335,-2.4758,-2.4763,-2.47,-2.4674,-2.4588,-2.4493,-2.4452,-2.4485,-2.4505,-2.4551,-2.4695,-2.4762,-2.4773,-2.4818,-2.4948,-2.5319,-2.576,-2.6181,-2.6566,-2.7165,-2.7568,-2.7653,-2.6495,-2.592,-2.5966,-2.423,-2.3927,-2.4476,-2.4751,-2.5098,-2.5524,-2.5628,-2.5576,-2.491,-2.4239,-2.3397,-2.2704,-2.2364,-2.2386,-2.2223,-2.2158,-2.2184,-2.2231,-2.2276,-2.226,-2.2304,-2.2335,-2.2321,-2.218,-2.2233,-2.2731,-2.3629,-2.4844,-2.5517,-2.5881,-2.6702,-2.7846,-2.8771,-2.9429,-2.9831,-3.0091,-2.9953,-2.9593,-2.9069,-2.8287,-2.7194,-2.6477,-2.586,-2.5356,-2.4957,-2.5164,-2.5757,-2.5545,-2.5288,-2.5406,-2.5534,-2.5644,-2.5681,-2.5632,-2.5603,-2.5637,-2.7481,-2.5988,-2.4983,-2.4005,-2.2999,-2.1724,-2.1025,-2.097,-2.168,-2.2312,-2.2861,-2.3622,-2.395,-2.3838,-2.3867,-2.4003,-2.4083,-2.3908,-2.3956,-2.4117,-2.3913,-2.3927,-2.4118,-2.4268,-2.4405,-2.4651,-2.4761,-2.4607,-2.3986,-2.3491,-2.3616,-2.3721,-2.3776,-2.4216,-2.457,-2.4704,-2.4799,-2.4871,-2.4723,-2.4534,-2.4462,-2.4356,-2.4338,-2.4391,-2.4737,-2.4977,-2.5153,-2.5262,-2.5575,-2.587,-2.6272,-2.6535,-2.6861,-2.7373,-2.7823,-2.784,-2.6961,-2.6309,-2.548,-2.4094,-2.3585,-2.3972,-2.4351,-2.4791,-2.5504,-2.6082,-2.5894,-2.5517,-2.4944,-2.4181,-2.3507,-2.3175,-2.2994,-2.2412,-2.226,-2.2326,-2.2385,-2.2426,-2.2453,-2.2467,-2.2511,-2.238,-2.2225,-2.2223,-2.2643,-2.2983,-2.4038,-2.5199,-2.5758,-2.6544,-2.7549,-2.8632,-2.94,-2.9827,-3.0054,-3.0006,-2.9954,-2.9604,-2.8655,-2.7517,-2.6919,-2.6755,-2.6424,-2.6137,-2.6117,-2.6118,-2.5831,-2.5594,-2.5449,-2.5498,-2.5568,-2.5659,-2.5657,-2.5624,-2.5621,-2.7892,-2.6814,-2.5877,-2.507,-2.4166,-2.2526,-2.1742,-2.1807,-2.2248,-2.2573,-2.3031,-2.3764,-2.3882,-2.3753,-2.385,-2.3975,-2.4,-2.3903,-2.3822,-2.3999,-2.3673,-2.3614,-2.3678,-2.3735,-2.3793,-2.3959,-2.4087,-2.4023,-2.3533,-2.3293,-2.3283,-2.353,-2.4047,-2.4153,-2.4398,-2.4644,-2.4832,-2.4842,-2.4659,-2.4495,-2.4366,-2.4284,-2.4318,-2.4622,-2.4955,-2.5254,-2.5658,-2.5975,-2.6237,-2.6408,-2.6566,-2.6764,-2.7056,-2.7433,-2.7886,-2.7783,-2.7192,-2.6338,-2.5118,-2.4014,-2.3601,-2.3751,-2.4044,-2.4499,-2.5215,-2.576,-2.5944,-2.5822,-2.5788,-2.5088,-2.4215,-2.3915,-2.3294,-2.2711,-2.2514,-2.2583,-2.248,-2.2521,-2.2628,-2.2655,-2.2565,-2.2422,-2.2324,-2.2366,-2.2531,-2.2814,-2.3172,-2.445,-2.5753,-2.6659,-2.7515,-2.8528,-2.9391,-2.9846,-3.0107,-3.0187,-3.013,-3.0064,-2.9108,-2.798,-2.8198,-2.8145,-2.7721,-2.7225,-2.6911,-2.6575,-2.6199,-2.5921,-2.5502,-2.5362,-2.5457,-2.5548,-2.5647,-2.5616,-2.5548,-2.7954,-2.7541,-2.6757,-2.6158,-2.5362,-2.3215,-2.2368,-2.2621,-2.2475,-2.2881,-2.36,-2.3629,-2.3684,-2.3303,-2.3275,-2.3412,-2.3486,-2.365,-2.3687,-2.3621,-2.3485,-2.3347,-2.3198,-2.326,-2.3092,-2.3139,-2.3314,-2.344,-2.3071,-2.2964,-2.288,-2.3084,-2.369,-2.402,-2.4374,-2.4712,-2.4859,-2.4817,-2.4631,-2.4452,-2.4284,-2.4251,-2.4547,-2.4936,-2.5383,-2.5807,-2.6161,-2.6399,-2.6691,-2.6843,-2.6884,-2.7169,-2.7464,-2.7786,-2.7844,-2.7632,-2.6933,-2.5965,-2.5199,-2.421,-2.3466,-2.3407,-2.3405,-2.3857,-2.462,-2.5468,-2.5873,-2.6057,-2.6071,-2.5444,-2.4815,-2.4207,-2.3583,-2.3193,-2.287,-2.276,-2.2596,-2.2628,-2.2773,-2.276,-2.2636,-2.2515,-2.2487,-2.2515,-2.272,-2.3184,-2.3693,-2.4682,-2.595,-2.7027,-2.7858,-2.8623,-2.9374,-2.9863,-3.0082,-3.0206,-3.0267,-3.0195,-2.9583,-2.8746,-2.9136,-2.9152,-2.8432,-2.782,-2.7445,-2.6987,-2.6296,-2.5717,-2.5215,-2.5192,-2.5271,-2.5392,-2.5471,-2.5479,-2.5415,-2.8804,-2.8517,-2.7634,-2.7061,-2.6525,-2.4854,-2.3917,-2.3555,-2.3592,-2.3833,-2.3969,-2.4293,-2.4246,-2.4304,-2.4461,-2.4302,-2.4173,-2.4103,-2.3991,-2.3797,-2.3381,-2.2875,-2.2606,-2.255,-2.2265,-2.2306,-2.2544,-2.2917,-2.2534,-2.2489,-2.2996,-2.3405,-2.3892,-2.4241,-2.4505,-2.4983,-2.4934,-2.4824,-2.4569,-2.4456,-2.4459,-2.4539,-2.4913,-2.5281,-2.6166,-2.6603,-2.6818,-2.7277,-2.7522,-2.7374,-2.7364,-2.7477,-2.735,-2.7745,-2.8024,-2.8255,-2.7224,-2.6029,-2.5604,-2.4236,-2.3259,-2.3139,-2.3028,-2.3627,-2.4481,-2.5268,-2.5883,-2.6049,-2.6254,-2.5813,-2.5217,-2.4575,-2.3873,-2.3362,-2.3007,-2.2708,-2.2588,-2.2721,-2.285,-2.2863,-2.2725,-2.2738,-2.2694,-2.2807,-2.3068,-2.3607,-2.4319,-2.5244,-2.6197,-2.7284,-2.8184,-2.8942,-2.9379,-2.9869,-3.0068,-3.018,-3.0254,-3.0231,-2.9694,-2.9342,-2.9438,-2.9308,-2.8815,-2.8236,-2.7573,-2.6862,-2.6136,-2.5681,-2.5456,-2.5053,-2.506,-2.5195,-2.529,-2.5274,-2.5237,-2.9082,-2.8862,-2.8323,-2.7919,-2.7492,-2.65,-2.5663,-2.5112,-2.4649,-2.4464,-2.4573,-2.476,-2.4842,-2.4684,-2.4752,-2.4692,-2.45,-2.4394,-2.4286,-2.3963,-2.339,-2.2748,-2.2337,-2.2095,-2.1792,-2.1804,-2.2132,-2.2712,-2.2364,-2.2548,-2.3017,-2.3515,-2.4255,-2.432,-2.4383,-2.4626,-2.4788,-2.4634,-2.4479,-2.4505,-2.4705,-2.4962,-2.5241,-2.5963,-2.7007,-2.7257,-2.7517,-2.8067,-2.7908,-2.7704,-2.7659,-2.763,-2.7587,-2.7933,-2.8304,-2.8347,-2.7151,-2.636,-2.5802,-2.4354,-2.3573,-2.3156,-2.2898,-2.3353,-2.393,-2.4609,-2.5287,-2.5764,-2.6145,-2.6252,-2.562,-2.4959,-2.4179,-2.3435,-2.3017,-2.2599,-2.2668,-2.2799,-2.2863,-2.2927,-2.294,-2.2965,-2.3022,-2.3157,-2.3383,-2.3877,-2.471,-2.5816,-2.6721,-2.7703,-2.8513,-2.9251,-2.9538,-2.984,-3.0004,-3.0133,-3.0241,-3.0266,-3.0037,-2.9787,-2.98,-2.9567,-2.9179,-2.8392,-2.7509,-2.6836,-2.6223,-2.6121,-2.5913,-2.5473,-2.5113,-2.5227,-2.5236,-2.5074,-2.5028,-2.8952,-2.8822,-2.8816,-2.8565,-2.8353,-2.7741,-2.7245,-2.6804,-2.5494,-2.5043,-2.5221,-2.5084,-2.4906,-2.4831,-2.4815,-2.4751,-2.469,-2.4649,-2.4467,-2.4271,-2.3891,-2.3163,-2.24,-2.2145,-2.209,-2.1855,-2.2145,-2.3051,-2.2674,-2.2754,-2.304,-2.3482,-2.3927,-2.4122,-2.4175,-2.4722,-2.492,-2.4699,-2.4725,-2.4807,-2.5082,-2.5313,-2.5756,-2.6904,-2.7421,-2.7628,-2.7978,-2.8059,-2.7855,-2.78,-2.7789,-2.7832,-2.8017,-2.8128,-2.8479,-2.8251,-2.7266,-2.6578,-2.5881,-2.4581,-2.375,-2.3294,-2.305,-2.3167,-2.3553,-2.4013,-2.466,-2.5296,-2.5678,-2.562,-2.5079,-2.4511,-2.3833,-2.3222,-2.2741,-2.2504,-2.25,-2.2725,-2.3022,-2.3096,-2.3188,-2.3271,-2.3708,-2.3853,-2.3869,-2.4266,-2.5102,-2.6313,-2.7114,-2.8011,-2.877,-2.9444,-2.9625,-2.9796,-2.9923,-3.0082,-3.0195,-3.019,-3.0126,-3.0241,-3.0288,-2.9992,-2.9587,-2.8761,-2.794,-2.7078,-2.6504,-2.6298,-2.6054,-2.5783,-2.5487,-2.5389,-2.5241,-2.4968,-2.4866,-2.9127,-2.8947,-2.8785,-2.86,-2.8367,-2.8095,-2.7547,-2.6871,-2.632,-2.5724,-2.5339,-2.5119,-2.5064,-2.5088,-2.4958,-2.4914,-2.4895,-2.4771,-2.4589,-2.4152,-2.3837,-2.32,-2.2607,-2.2512,-2.2571,-2.2874,-2.3227,-2.3663,-2.3465,-2.3265,-2.314,-2.3513,-2.4112,-2.4552,-2.4202,-2.4923,-2.5447,-2.5073,-2.5444,-2.543,-2.5441,-2.6299,-2.7067,-2.7518,-2.7745,-2.806,-2.8295,-2.8251,-2.8134,-2.8047,-2.8037,-2.8161,-2.8391,-2.8344,-2.8492,-2.8518,-2.7665,-2.6868,-2.6021,-2.4956,-2.3968,-2.3339,-2.3035,-2.2907,-2.3051,-2.3471,-2.3987,-2.4623,-2.494,-2.4784,-2.4509,-2.3979,-2.3487,-2.2944,-2.2497,-2.2417,-2.2361,-2.2794,-2.3175,-2.336,-2.3481,-2.3914,-2.4382,-2.4483,-2.4498,-2.5039,-2.5891,-2.6784,-2.7317,-2.8079,-2.8836,-2.9434,-2.9606,-2.9761,-2.9899,-2.9942,-3.0017,-3.0209,-3.0203,-3.0445,-3.07,-3.0227,-2.9672,-2.9163,-2.8436,-2.7491,-2.6674,-2.62,-2.5968,-2.5781,-2.5655,-2.5444,-2.5091,-2.478,-2.4752,-2.9188,-2.9007,-2.8706,-2.8497,-2.8367,-2.8168,-2.7609,-2.692,-2.6522,-2.5979,-2.5336,-2.5119,-2.5064,-2.5143,-2.4993,-2.4977,-2.4914,-2.4831,-2.4328,-2.3837,-2.3462,-2.2739,-2.2561,-2.2555,-2.2449,-2.2756,-2.3802,-2.4255,-2.4311,-2.4171,-2.4073,-2.3991,-2.4724,-2.5089,-2.4675,-2.5641,-2.6198,-2.5747,-2.6372,-2.6456,-2.6139,-2.6838,-2.7497,-2.7772,-2.8113,-2.8353,-2.83,-2.8282,-2.8224,-2.8174,-2.8192,-2.8391,-2.8551,-2.8556,-2.8582,-2.8402,-2.7827,-2.7041,-2.6252,-2.526,-2.4155,-2.3584,-2.3077,-2.2963,-2.2771,-2.3137,-2.3229,-2.3802,-2.4113,-2.4047,-2.3638,-2.3131,-2.2849,-2.2427,-2.2295,-2.2265,-2.2802,-2.3497,-2.391,-2.4249,-2.4621,-2.5339,-2.5544,-2.5157,-2.5184,-2.5268,-2.6205,-2.668,-2.7296,-2.7903,-2.8721,-2.921,-2.9266,-2.9612,-2.9875,-2.9827,-2.9775,-2.9985,-3.0145,-3.0343,-3.0433,-3.0147,-2.9755,-2.9139,-2.8469,-2.7699,-2.6949,-2.6324,-2.5871,-2.5671,-2.5551,-2.5455,-2.5051,-2.4731,-2.4825,-2.9264,-2.9049,-2.8601,-2.8424,-2.8371,-2.8109,-2.7565,-2.6904,-2.6539,-2.5979,-2.5317,-2.5123,-2.5001,-2.4946,-2.4686,-2.471,-2.469,-2.463,-2.4099,-2.3664,-2.3325,-2.2829,-2.2326,-2.1892,-2.2479,-2.3127,-2.4027,-2.482,-2.5335,-2.4957,-2.4607,-2.4606,-2.5086,-2.5667,-2.5538,-2.5968,-2.6477,-2.6601,-2.7001,-2.7392,-2.7383,-2.7343,-2.773,-2.8111,-2.8327,-2.8304,-2.8232,-2.8174,-2.8169,-2.8197,-2.8233,-2.8357,-2.8487,-2.85,-2.8487,-2.8281,-2.7789,-2.7192,-2.653,-2.5347,-2.4516,-2.3871,-2.338,-2.302,-2.2832,-2.2693,-2.2798,-2.2928,-2.3244,-2.3229,-2.2825,-2.2555,-2.2293,-2.2224,-2.2216,-2.2425,-2.3293,-2.4165,-2.4642,-2.5071,-2.5771,-2.6544,-2.6504,-2.6074,-2.5808,-2.5864,-2.6042,-2.6442,-2.6926,-2.7531,-2.8222,-2.8484,-2.851,-2.8958,-2.9534,-2.9777,-2.9659,-2.9486,-2.964,-2.9966,-3.0171,-2.9965,-2.9593,-2.8965,-2.8288,-2.7471,-2.6966,-2.6392,-2.598,-2.5461,-2.5531,-2.542,-2.5045,-2.4825,-2.5,-2.9437,-2.8993,-2.8639,-2.8445,-2.8353,-2.8095,-2.7532,-2.6788,-2.6488,-2.5926,-2.5343,-2.532,-2.5435,-2.5698,-2.4895,-2.4775,-2.513,-2.4731,-2.4276,-2.3882,-2.3397,-2.3105,-2.286,-2.2566,-2.3561,-2.4216,-2.4638,-2.4919,-2.5692,-2.5326,-2.4767,-2.448,-2.5425,-2.5727,-2.5454,-2.6169,-2.7254,-2.7398,-2.7702,-2.8141,-2.8048,-2.8027,-2.8116,-2.8277,-2.83,-2.8349,-2.8331,-2.8201,-2.8273,-2.8291,-2.8165,-2.8151,-2.8179,-2.8215,-2.8174,-2.8029,-2.7547,-2.7095,-2.6339,-2.5606,-2.4891,-2.389,-2.3433,-2.3177,-2.2874,-2.2497,-2.2518,-2.2453,-2.2632,-2.2572,-2.2284,-2.2168,-2.1999,-2.2262,-2.2374,-2.3083,-2.389,-2.4706,-2.5379,-2.5946,-2.661,-2.7218,-2.7629,-2.7012,-2.6199,-2.619,-2.6089,-2.6405,-2.6338,-2.7007,-2.7735,-2.7905,-2.7983,-2.8237,-2.8768,-2.952,-2.9564,-2.9301,-2.911,-2.9345,-2.9588,-2.984,-2.9423,-2.853,-2.781,-2.7048,-2.6589,-2.5998,-2.5623,-2.5181,-2.5436,-2.5402,-2.5008,-2.4923,-2.5109]},{"header":{"parameterUnit":"m.s-1","parameterCategory":1,"la1":31.0,"la2":29.5877,"lo1":-88.7671,"lo2":-86.6584,"dy":0.0162,"dx":0.0185,"nx":115,"ny":88,"refTime":"2023-07-03T12:00:00:Z","depth":0,"parameterNumber":3,"parameterNumberName":"V-component_of_WINDS"},"data":[0.0,0.0,0.0,0.0,0.0,0.0,0.0,0.0,0.0,0.0,0.0,0.0,0.0,0.0,0.0,0.0,0.0,0.0,0.0,0.0,0.0,0.0,0.0,0.0,0.0,0.0,0.0,0.0,0.0,0.0,0.0,0.0,0.0,0.0,0.0,0.0,0.0,0.0,0.0,0.0,0.0,0.0,0.0,0.0,0.0,0.0,0.0,0.0,0.0,0.0,0.0,0.0,0.0,0.0,0.0,0.0,0.0,0.0,0.0,0.0,0.0,0.0,0.0,0.0,0.0,0.0,0.0,0.0,0.0,0.0,0.0,0.0,0.0,0.0,0.0,0.0,0.0,0.0,0.0,0.0,0.0,0.0,0.0,0.0,0.0,0.0,0.0,0.0,0.0,0.0,0.0,0.0,0.0,0.0,0.0,0.0,0.0,0.0,0.0,0.0,0.0,0.0,0.0,0.0,0.0,0.0,0.0,0.0,0.0,0.0,0.0,0.0,0.0,0.0,0.0,0.0,0.0,0.0,0.0,0.0,0.0,0.0,0.0,0.0,0.0,0.0,0.0,0.0,0.0,0.0,0.0,0.0,0.0,0.0,0.0,0.0,0.0,0.0,0.0,0.0,0.0,0.0,0.0,0.0,0.0,0.0,0.0,0.0,0.0,0.0,0.0,0.0,0.0,0.0,0.0,0.0,0.0,0.0,0.0,0.0,0.0,0.0,0.0,0.0,0.0,0.0,0.0,0.0,0.0,0.0,0.0,0.0,0.0,0.0,0.0,0.0,0.0,0.0,0.0,0.0,0.0,0.0,0.0,0.0,0.0,0.0,0.0,0.0,0.0,0.0,0.0,0.0,0.0,0.0,0.0,0.0,0.0,0.0,0.0,0.0,0.0,0.0,0.0,0.0,0.0,0.0,0.0,0.0,0.0,0.0,0.0,0.0,0.0,0.0,0.0,0.0,0.0,0.0,0.0,0.0,0.0,0.0,0.0,0.0,0.0,0.0,0.0,0.0,0.0,0.0,0.0,0.0,0.0,0.0,0.0,0.0,0.0,0.0,0.0,0.0,0.0,0.0,0.0,0.0,0.0,0.0,0.0,0.0,0.0,0.0,0.0,0.0,0.0,0.0,0.0,0.0,0.0,0.0,0.0,0.0,0.0,0.0,0.0,0.0,0.0,0.0,0.0,0.0,0.0,0.0,0.0,0.0,0.0,0.0,0.0,0.0,0.0,0.0,0.0,0.0,0.0,0.0,0.0,0.0,0.0,0.0,0.0,0.0,0.0,0.0,0.0,0.0,0.0,0.0,0.0,0.0,0.0,0.0,0.0,0.0,0.0,0.0,0.0,0.0,0.0,0.0,0.0,0.0,0.0,0.0,0.0,0.0,0.0,0.0,0.0,0.0,0.0,0.0,0.0,0.0,0.0,0.0,0.0,0.0,0.0,0.0,0.0,0.0,0.0,0.0,0.0,0.0,0.0,0.0,0.0,0.0,0.0,0.0,0.0,0.0,0.0,0.0,0.0,0.0,0.0,0.0,0.0,0.0,0.0,0.0,0.0,0.0,0.0,0.0,0.0,0.0,0.0,0.0,0.0,0.0,0.0,0.0,0.0,0.0,0.0,0.0,0.0,0.0,0.0,0.0,0.0,0.0,0.0,0.0,0.0,0.0,0.0,0.0,0.0,0.0,0.0,0.0,0.0,0.0,0.0,0.0,0.0,0.0,0.0,0.0,0.0,0.0,0.0,0.0,0.0,0.0,0.0,0.0,0.0,0.0,0.0,0.0,0.0,0.0,0.0,0.0,0.0,0.0,0.0,0.0,0.0,0.0,0.0,0.0,0.0,0.0,0.0,0.0,0.0,0.0,0.0,0.0,0.0,0.0,0.0,0.0,0.0,0.0,0.0,0.0,0.0,0.0,0.0,0.0,0.0,0.0,0.0,0.0,0.0,0.0,0.0,0.0,0.0,0.0,0.0,0.0,0.0,0.0,0.0,0.0,0.0,0.0,0.0,0.0,0.0,0.0,0.0,0.0,0.0,0.0,0.0,0.0,0.0,0.0,0.0,0.0,0.0,0.0,0.0,0.0,0.0,0.0,0.0,0.0,0.0,0.0,0.0,0.0,0.0,0.0,0.0,0.0,0.0,0.0,0.0,0.0,0.0,0.0,0.0,0.0,0.0,0.0,0.0,0.0,0.0,0.0,0.0,0.0,0.0,0.0,0.0,0.0,0.0,0.0,0.0,0.0,0.0,0.0,0.0,0.0,0.0,0.0,0.0,0.0,0.0,0.0,0.0,0.0,0.0,0.0,0.0,0.0,0.0,0.0,0.0,0.0,0.0,0.0,0.0,0.0,0.0,0.0,0.0,0.0,0.0,0.0,0.0,0.0,0.0,0.0,0.0,0.0,0.0,0.0,0.0,0.0,0.0,0.0,0.0,0.0,0.0,0.0,0.0,0.0,0.0,0.0,0.0,0.0,0.0,0.0,0.0,0.0,0.0,0.0,0.0,0.0,0.0,0.0,0.0,0.0,0.0,0.0,0.0,0.0,0.0,0.0,0.0,0.0,0.0,0.0,0.0,0.0,0.0,0.0,0.0,0.0,0.0,0.0,0.0,0.0,0.0,0.0,0.0,0.0,0.0,0.0,0.0,0.0,0.0,0.0,0.0,0.0,0.0,0.0,0.0,0.0,0.0,0.0,0.0,0.0,0.0,0.0,0.0,0.0,0.0,0.0,0.0,0.0,0.0,0.0,0.0,0.0,0.0,0.0,0.0,0.0,0.0,0.0,0.0,0.0,0.0,0.0,0.0,0.0,0.0,0.0,0.0,0.0,0.0,0.0,0.0,0.0,0.0,0.0,0.0,0.0,0.0,0.0,0.0,0.0,0.0,0.0,0.0,0.0,0.0,0.0,0.0,0.0,0.0,0.0,0.0,0.0,0.0,0.0,0.0,0.0,0.0,0.0,0.0,0.0,0.0,0.0,0.0,0.0,0.0,0.0,0.0,0.0,0.0,0.0,0.0,0.0,0.0,0.0,0.0,0.0,0.0,0.0,0.0,0.0,0.0,0.0,0.0,0.0,0.0,0.0,0.0,0.0,0.0,0.0,0.0,0.0,0.0,0.0,0.0,0.0,0.0,0.0,0.0,0.0,0.0,0.0,0.0,0.0,0.0,0.0,0.0,0.0,0.0,0.0,0.0,0.0,0.0,0.0,0.0,0.0,0.0,0.0,0.0,0.0,0.0,0.0,0.0,0.0,0.0,0.0,0.0,0.0,0.0,0.0,0.0,0.0,0.0,0.0,0.0,0.0,0.0,0.0,0.0,0.0,0.0,0.0,0.0,0.0,0.0,0.0,0.0,0.0,0.0,0.0,0.0,0.0,0.0,0.0,0.0,0.0,0.0,0.0,0.0,0.0,0.0,0.0,0.0,0.0,0.0,0.0,0.0,0.0,0.0,0.0,0.0,0.0,0.0,0.0,0.0,0.0,0.0,0.0,0.0,0.0,0.0,0.0,0.0,0.0,0.0,0.0,0.0,0.0,0.0,0.0,0.0,0.0,0.0,0.0,0.0,0.0,0.0,0.0,0.0,0.0,0.0,0.0,0.0,0.0,0.0,0.0,0.0,0.0,0.0,0.0,0.0,0.0,0.0,0.0,0.0,0.0,0.0,0.0,0.0,0.0,0.0,0.0,0.0,0.0,0.0,0.0,0.0,0.0,0.0,0.0,0.0,0.0,0.0,0.0,0.0,0.0,0.0,0.0,0.0,0.0,0.0,0.0,0.0,0.0,0.0,0.0,0.0,0.0,0.0,0.0,0.0,0.0,0.0,0.0,0.0,0.0,0.0,0.0,0.0,0.0,0.0,0.0,0.0,0.0,0.0,0.0,0.0,0.0,0.0,0.0,0.0,0.0,0.0,0.0,0.0,0.0,0.0,0.0,0.0,0.0,0.0,0.0,0.0,0.0,0.0,0.0,0.0,0.0,0.0,0.0,0.0,0.0,0.0,0.0,0.0,0.0,0.0,0.0,0.0,0.0,0.0,0.0,0.0,0.0,0.0,0.0,0.0,0.0,0.0,0.0,0.0,0.0,0.0,0.0,0.0,0.0,0.0,0.0,0.0,0.0,0.0,0.0,0.0,0.0,0.0,0.0,0.0,0.0,0.0,0.0,0.0,0.0,0.0,0.0,0.0,0.0,0.0,0.0,0.0,0.0,0.0,0.0,0.0,0.0,0.0,0.0,0.0,0.0,0.0,0.0,0.0,0.0,-0.8503,0.0,0.0,0.0,-0.2756,0.0,0.0,0.0,0.0,0.0,0.0,0.0,0.0,0.0,0.0,0.0,0.0,0.0,0.0,0.0,0.0,0.0,0.0,0.0,0.0,0.0,0.0,0.0,0.0,0.0,0.0,0.0,0.0,0.0,0.0,0.0,0.0,0.0,0.0,0.0,0.0,0.0,0.0,0.0,0.0,0.0,0.0,0.0,0.0,0.0,0.0,0.0,0.0,0.0,0.0,0.0,0.0,0.0,0.0,0.0,0.0,0.0,0.0,0.0,0.0,0.0,0.0,0.0,0.0,0.0,0.0,0.0,0.0,0.0,0.0,0.0,0.0,0.0,0.0,0.0,0.0,0.0,0.0,0.0,0.0,0.0,0.0,0.0,0.0,0.0,0.0,0.0,0.0,0.0,0.0,0.0,0.0,0.0,0.0,0.0,0.0,0.0,0.0,0.0,0.0,0.0,0.0,0.0,0.0,0.0,0.0,0.0,0.0,0.0,0.0,-0.6915,-0.619,-0.5499,-0.4872,-0.4332,0.0,0.0,0.0,0.0,0.0,0.0,0.0,0.0,0.0,0.0,0.0,0.0,0.0,0.0,0.0,0.0,0.0,0.0,0.0,0.0,0.0,0.0,0.0,0.0,0.0,0.0,0.0,0.0,0.0,0.0,0.0,0.0,0.0,0.0,0.0,0.0,0.0,0.0,0.0,0.0,0.0,0.0,0.0,0.0,0.0,0.0,0.0,0.0,0.0,0.0,0.0,0.0,0.0,0.0,0.0,0.0,0.0,0.0,0.0,0.0,0.0,0.0,0.0,0.0,0.0,0.0,0.0,0.0,0.0,0.0,0.0,0.0,0.0,0.0,0.0,0.0,0.0,0.0,0.0,0.0,0.0,0.0,0.0,0.0,0.0,0.0,0.0,0.0,0.0,0.0,0.0,0.0,0.0,0.0,0.0,0.0,0.0,0.0,0.0,0.0,0.0,0.0,0.0,0.0,0.0,0.0,0.0,0.0,0.0,0.0,0.0,0.0,-0.4797,-0.4713,-0.4808,0.0,0.0,0.0,0.0,0.0,0.0,0.0,0.0,0.0,0.0,0.0,0.0,0.0,0.0,0.0,0.0,0.0,0.0,0.0,0.0,0.0,0.0,0.0,0.0,0.0,0.0,0.0,0.0,0.0,0.0,0.0,0.0,0.0,0.0,0.0,0.0,0.0,0.0,0.0,0.0,0.0,0.0,0.0,0.0,0.0,0.0,0.0,0.0,0.0,0.0,0.0,0.0,0.0,0.0,0.0,0.0,0.0,0.0,0.0,0.0,0.0,0.0,0.0,0.0,0.0,0.0,0.0,0.0,0.0,0.0,0.0,0.0,0.0,0.0,0.0,0.0,0.0,0.0,0.0,0.0,0.0,0.0,0.0,0.0,0.0,0.0,0.0,0.0,0.0,0.0,0.0,0.0,0.0,0.0,0.0,0.0,0.0,0.0,0.0,0.0,0.0,0.0,0.0,0.0,0.0,0.0,0.0,0.0,0.0,0.0,-0.2324,-0.3814,-0.3891,0.0,-0.4832,0.0,0.0,0.0,0.0,0.0,0.0,0.0,0.0,0.0,0.0,0.0,0.0,0.0,0.0,0.0,0.0,0.0,0.0,0.0,0.0,0.0,0.0,0.0,0.0,0.0,0.0,0.0,0.0,0.0,0.0,0.0,0.0,0.0,0.0,0.0,0.0,0.0,0.0,0.0,0.0,0.0,0.0,0.0,0.0,0.0,0.0,0.0,0.0,0.0,0.0,0.0,0.0,0.0,0.0,0.0,0.0,0.0,0.0,0.0,0.0,0.0,0.0,0.0,0.0,0.0,0.0,0.0,0.0,0.0,0.0,0.0,0.0,0.0,0.0,0.0,0.0,0.0,0.0,0.0,0.0,0.0,0.0,0.0,0.0,0.0,0.0,0.0,0.0,0.0,0.0,0.0,0.0,0.0,0.0,0.0,0.0,0.0,0.0,0.0,0.0,0.0,0.0,0.0,0.0,0.0,0.0,0.0,0.0,0.0,0.0,-0.1529,-0.384,-0.4364,-0.4683,0.0,0.0,0.0,0.0,0.0,0.0,0.0,0.0,0.0,0.0,0.0,0.0,0.0,0.0,0.0,0.0,0.0,0.0,0.0,0.0,0.0,0.0,0.0,0.0,0.0,0.0,0.0,0.0,0.0,0.0,0.0,0.0,0.0,0.0,0.0,0.0,0.0,0.0,0.0,0.0,0.0,0.0,0.0,0.0,0.0,0.0,0.0,0.0,0.0,0.0,0.0,0.0,0.0,0.0,0.0,0.0,0.0,0.0,0.0,0.0,0.0,0.0,0.0,0.0,0.0,0.0,0.0,0.0,0.0,0.0,0.0,0.0,0.0,0.0,0.0,0.0,0.0,0.0,0.0,0.0,0.0,0.0,0.0,0.0,0.0,0.0,0.0,0.0,0.0,0.0,0.0,0.0,0.0,0.0,0.0,0.0,0.0,0.0,0.0,0.0,0.0,0.0,0.0,0.0,0.0,0.0,0.0,0.0,0.0,0.0,0.0792,-0.0816,-0.3465,-0.439,-0.4865,-0.5027,0.0,0.0,0.0,0.0,0.0,0.0,0.0,0.0,0.0,0.0,0.0,0.0,0.0,0.0,0.0,0.0,0.0,0.0,0.0,0.0,0.0,0.0,0.0,0.0,0.0,0.0,0.0,0.0,0.0,0.0,0.0,0.0,0.0,0.0,0.0,0.0,0.0,0.0,0.0,0.0,0.0,0.0,0.0,0.0,0.0,0.0,0.0,0.0,0.0,0.0,0.0,0.0,0.0,0.0,0.0,0.0,0.0,0.0,0.0,0.0,0.0,0.0,0.0,0.0,0.0,0.0,0.0,0.0,0.0,0.0,0.0,0.0,0.0,0.0,0.0,0.0,0.0,0.0,0.0,0.0,0.0,0.0,0.0,0.0,0.0,0.0,0.0,0.0,0.0,0.0,0.0,0.0,0.0,0.0,0.0,0.0,0.0,0.0,0.0,0.0,0.0,0.0,0.0,0.0,0.0,0.0,0.0,0.0,0.3273,0.2049,0.0115,-0.2571,-0.3434,-0.4429,0.0,0.0,0.0,0.0,0.0,0.0,0.0,0.0,0.0,0.0,0.0,0.0,0.0,0.0,0.0,0.0,0.0,0.0,0.0,0.0,0.0,0.0,0.0,0.0,0.0,0.0,0.0,0.0,0.0,0.0,0.0,0.0,0.0,0.0,0.0,0.0,0.0,0.0,0.0,0.0,0.0,0.0,0.0,0.0,0.0,0.0,0.0,0.0,0.0,0.0,0.0,0.0,0.0,0.0,0.0,0.0,0.0,0.0,0.0,0.0,0.0,0.0,0.0,0.0,0.0,0.0,0.0,0.0,0.0,0.0,0.0,0.0,0.0,0.0,0.0,0.0,0.0,0.0,0.0,0.0,0.0,0.0,0.0,0.0,0.0,0.0,0.0,0.0,0.0,0.0,0.0,0.0,0.0,0.0,0.0,0.0,0.0,0.0,0.0,0.0,0.0,0.0,0.0,0.0,0.0,0.0,0.0,0.0,0.0,0.437,0.1734,-0.0353,-0.1739,-0.3212,-0.4431,0.0,0.0,0.0,0.0,0.0,0.0,0.0,0.0,0.0,0.0,0.0,0.0,0.0,0.0,0.0,0.0,0.0,0.0,0.0,0.0,0.0,0.0,0.0,0.0,0.0,0.0,0.0,0.0,0.0,0.0,0.0,0.0,0.0,0.0,0.0,0.0,0.0,0.0,0.0,0.0,0.0,0.0,0.0,0.0,0.0,0.0,0.0,0.0,0.0,0.0,0.0,0.0,0.0,0.0,0.0,0.0,0.0,0.0,0.0,0.0,0.0,0.0,0.0,0.0,0.0,0.0,0.0,0.0,0.0,0.0,0.0,0.0,0.0,0.0,0.0,0.0,0.0,0.0,0.0,0.0,0.0,0.0,0.0,0.0,0.0,0.0,0.0,0.0,0.0,0.0,0.0,0.0,0.0,0.0,0.0,0.0,0.0,0.0,0.0,0.0,0.0,0.0,0.0,0.0,0.0,0.0,0.0,0.0,0.0,0.457,0.0,-0.0163,-0.1447,-0.2788,-0.419,0.0,0.0,0.0,0.0,0.0,0.0,0.0,0.0,0.0,0.0,0.0,0.0,0.0,0.0,0.0,0.0,0.0,0.0,0.0,0.0,0.0,0.0,0.0,0.0,0.0,0.0,0.0,0.0,0.0,0.0,0.0,0.0,0.0,0.0,0.0,0.0,0.0,0.0,0.0,0.0,0.0,0.0,0.0,0.0,0.0,0.0,0.0,0.0,0.0,0.0,0.0,0.0,0.0,0.0,0.0,0.0,0.0,0.0,0.0,0.0,0.0,0.0,0.0,0.0,0.0,0.0,0.0,0.0,0.0,0.0,0.0,0.0,0.0,0.0,0.0,0.0,0.0,0.0,0.0,0.0,0.0,0.0,0.0,0.0,0.0,0.0,0.0,0.0,0.0,0.0,0.0,0.0,0.0,0.0,0.0,0.0,0.0,0.0,0.0,0.0,0.0,0.0,0.0,0.0,0.0,0.0,0.0,0.0,0.6647,0.3857,0.2729,0.0948,-0.1683,-0.2105,-0.3679,0.0,0.0,0.0,0.0,0.0,0.0,0.0,0.0,0.0,0.0,0.0,0.0,0.0,0.0,0.0,0.0,0.0,0.0,0.0,0.0,0.0,0.0,0.0,0.0,0.0,0.0,0.0,0.0,0.0,0.0,0.0,0.0,0.0,0.0,0.0,0.0,0.0,0.0,0.0,0.0,0.0,0.0,0.0,0.0,0.0,0.0,0.0,0.0,0.0,0.0,0.0,0.0,0.0,0.0,0.0,0.0,0.0,0.0,0.0,0.0,0.0,0.0,0.0,0.0,0.0,0.0,0.0,0.0,0.0,0.0,0.0,0.0,0.0,0.0,0.0,0.0,0.0,0.0,0.0,0.0,0.0,0.0,0.0,0.0,0.0,0.0,0.0,0.0,0.0,0.0,0.0,0.0,0.0,0.0,0.0,0.0,0.0,0.0,0.0,0.0,0.0,0.0,0.0,0.0,0.0,0.0,0.0,0.0,0.0,0.4351,0.3773,0.1925,-0.1233,-0.2414,-0.4101,0.0,0.0,0.0,0.0,0.0,0.0,0.0,0.0,0.0,0.0,0.0,0.0,0.0,0.0,0.0,0.0,0.0,0.0,0.0,0.0,0.0,0.0,0.0,0.0,0.0,0.0,0.0,0.0,0.0,0.0,0.0,0.0,0.0,0.0,0.0,0.0,0.0,0.0,0.0,0.0,0.0,0.0,0.0,0.0,0.0,0.0,0.0,0.0,0.0,0.0,0.0,0.0,0.0,0.0,0.0,0.0,0.0,0.0,0.0,0.0,0.0,0.0,0.0,0.0,0.0,0.0,0.0,0.0,0.0,0.0,0.0,0.0,0.0,0.0,0.0,0.0,0.0,0.0,0.0,0.0,0.0,0.0,0.0,0.0,0.0,0.0,0.0,0.0,0.0,0.0,0.0,0.0,0.0,0.0,0.0,0.0,0.0,0.0,0.0,0.0,0.0,0.0,0.0,0.0,0.0,0.0,0.0,0.0,0.0,0.5362,0.4804,0.2705,-0.1251,-0.2324,-0.422,-0.7054,0.0,0.0,0.0,0.0,0.0,0.0,0.0,0.0,0.0,0.0,0.0,0.0,0.0,0.0,0.0,0.0,0.0,0.0,0.0,0.0,0.0,0.0,0.0,0.0,0.0,0.0,0.0,0.0,0.0,0.0,0.0,0.0,0.0,0.0,0.0,0.0,0.0,0.0,0.0,0.0,0.0,0.0,0.0,0.0,0.0,0.0,0.0,0.0,0.0,0.0,0.0,0.0,0.0,0.0,0.0,0.0,0.0,0.0,0.0,0.0,0.0,0.0,0.0,0.0,0.0,0.0,0.0,0.0,0.0,0.0,0.0,0.0,0.0,0.0,0.0,0.0,0.0,0.0,0.0,0.0,0.0,0.0,0.0,0.0,0.0,0.0,0.0,0.0,0.0,0.0,0.0,0.0,0.0,0.0,0.0,0.0,0.0,0.0,0.0,0.0,0.0,0.0,0.0,0.0,0.0,0.0,0.0,0.0,0.6499,0.5739,0.3136,-0.1341,-0.2012,-0.4128,0.0,0.0,0.0,0.0,0.0,0.0,0.0,0.0,0.0,0.0,0.0,0.0,0.0,0.0,0.0,0.0,0.0,0.0,0.0,0.0,0.0,0.0,0.0,0.0,0.0,0.0,0.0,0.0,0.0,0.0,0.0,0.0,0.0,0.0,0.0,0.0,0.0,0.0,0.0,0.0,0.0,0.0,0.0,0.0,0.0,0.0,0.0,0.0,0.0,0.0,0.0,0.0,0.0,0.0,0.0,0.0,0.0,0.0,0.0,0.0,0.0,0.0,0.0,0.0,0.0,0.0,0.0,0.0,0.0,0.0,0.0,0.0,0.0,0.0,0.0,0.0,0.0,0.0,0.0,0.0,0.0,0.0,0.0,0.0,0.0,0.0,0.0,0.0,0.0,0.0,0.0,0.0,0.0,0.0,0.0,0.0,0.0,0.0,0.0,0.0,0.0,0.0,0.0,0.0,0.0,0.0,0.0,0.0,0.0,0.7154,0.5463,0.2703,-0.114,-0.2322,-0.4543,0.0,0.0,0.0,0.0,0.0,0.0,0.0,0.0,0.0,0.0,0.0,0.0,0.0,0.0,0.0,0.0,0.0,0.0,0.0,0.0,0.0,0.0,0.0,0.0,0.0,0.0,0.0,0.0,0.0,0.0,0.0,0.0,0.0,0.0,0.0,0.0,0.0,0.0,0.0,0.0,0.0,0.0,0.0,0.0,0.0,0.0,0.0,0.0,0.0,0.0,0.0,0.0,0.0,0.0,0.0,0.0,0.0,0.0,0.0,0.0,0.0,0.0,0.0,0.0,0.0,0.0,0.0,0.0,0.0,0.0,0.0,0.0,0.0,0.0,0.0,0.0,0.0,0.0,0.0,0.0,0.0,0.0,0.0,0.0,0.0,0.0,0.0,0.0,0.0,0.0,0.0,0.0,0.0,0.0,0.0,0.0,0.0,0.0,0.0,0.0,0.0,0.0,0.0,0.0,0.0,0.0,0.0,0.0,0.7577,0.6966,0.4659,0.1863,-0.1364,-0.2318,-0.4579,0.0,0.0,0.0,0.0,0.0,0.0,0.0,0.0,0.0,0.0,0.0,0.0,0.0,0.0,0.0,0.0,0.0,0.0,0.0,0.0,0.0,0.0,0.0,0.0,0.0,0.0,0.0,0.0,0.0,0.0,0.0,0.0,0.0,0.0,0.0,0.0,0.0,0.0,0.0,0.0,0.0,0.0,0.0,0.0,0.0,0.0,0.0,0.0,0.0,0.0,0.0,0.0,0.0,0.0,0.0,0.0,0.0,0.0,0.0,0.0,0.0,0.0,0.0,0.0,0.0,0.0,0.0,0.0,0.0,0.0,0.0,0.0,0.0,0.0,0.0,0.0,0.0,0.0,0.0,0.0,0.0,0.0,0.0,0.0,0.0,0.0,0.0,0.0,0.0,0.0,0.0,0.0,0.0,0.0,0.0,0.0,0.0,0.0,0.0,0.0,0.0,0.0,0.0,0.0,0.0,0.0,0.0,0.0,0.6586,0.6348,0.3619,0.0895,-0.1696,-0.2187,-0.4458,0.0,0.0,0.0,0.0,0.0,0.0,0.0,0.0,0.0,0.0,0.0,0.0,0.0,0.0,0.0,0.0,0.0,0.0,0.0,0.0,0.0,0.0,0.0,0.0,0.0,0.0,0.0,0.0,0.0,0.0,0.0,0.0,0.0,0.0,0.0,0.0,0.0,0.0,0.0,0.0,0.0,0.0,0.0,0.0,0.0,0.0,0.0,0.0,0.0,0.0,0.0,0.0,0.0,0.0,0.0,0.0,0.0,0.0,0.0,0.0,0.0,0.0,0.0,0.0,0.0,0.0,0.0,0.0,0.0,0.0,0.0,0.0,0.0,0.0,0.0,0.0,0.0,0.0,0.0,0.0,0.0,0.0,0.0,0.0,0.0,0.0,0.0,0.0,0.0,0.0,0.0,0.0,0.0,0.0,0.0,0.0,0.0,0.0,0.0,0.0,0.0,0.0,0.0,0.0,0.0,0.0,0.0,0.0,0.6295,0.6086,0.3352,0.0716,-0.1741,-0.2662,-0.4948,0.0,0.0,0.0,0.0,0.0,0.0,0.0,0.0,0.0,0.0,0.0,0.0,0.0,0.0,0.0,0.0,0.0,0.0,0.0,0.0,0.0,0.0,0.0,0.0,0.0,0.0,0.0,0.0,0.0,0.0,0.0,0.0,0.0,0.0,0.0,0.0,0.0,0.0,0.0,0.0,0.0,0.0,0.0,0.0,0.0,0.0,0.0,0.0,-1.2636,0.0,0.0,0.0,0.0,0.0,0.0,0.0,0.0,0.0,0.0,0.0,0.0,0.0,0.0,0.0,0.0,0.0,0.0,0.0,0.0,0.0,0.0,0.0,0.0,0.0,0.0,0.0,0.0,0.0,0.0,0.0,0.0,0.0,0.0,0.0,0.0,0.0,0.0,0.0,0.0,0.0,0.0,0.0,0.0,0.0,0.0,0.0,0.0,0.0,0.0,0.0,0.0,0.0,0.0,0.0,0.0,0.0,0.0,0.0,0.5937,0.5648,0.304,0.0492,-0.183,-0.2908,-0.5171,0.0,0.0,0.0,0.0,0.0,0.0,0.0,0.0,0.0,0.0,0.0,0.0,0.0,0.0,0.0,0.0,0.0,0.0,0.0,0.0,0.0,0.0,0.0,0.0,0.0,0.0,0.0,0.0,0.0,0.0,0.0,0.0,0.0,0.0,0.0,0.0,0.0,0.0,0.0,0.0,0.0,0.0,0.0,0.0,0.0,0.0,0.0,0.0,0.0,0.0,0.0,0.0,0.0,0.0,0.0,0.0,0.0,0.0,0.0,0.0,0.0,0.0,0.0,0.0,0.0,0.0,0.0,0.0,0.0,0.0,0.0,0.0,0.0,0.0,0.0,0.0,0.0,0.0,0.0,0.0,0.0,0.0,0.0,0.0,0.0,0.0,0.0,0.0,0.0,0.0,0.0,0.0,0.0,0.0,0.0,0.0,0.0,0.0,0.0,0.0,0.0,0.0,0.0,0.0,0.0,0.0,0.0,0.7393,0.5534,0.5161,0.2728,0.0268,-0.201,-0.3031,-0.5196,-0.868,0.0,0.0,0.0,0.0,0.0,0.0,0.0,0.0,0.0,0.0,0.0,0.0,0.0,0.0,0.0,0.0,0.0,0.0,0.0,0.0,0.0,0.0,0.0,0.0,0.0,0.0,0.0,0.0,0.0,0.0,0.0,0.0,0.0,0.0,0.0,0.0,0.0,0.0,-0.2664,-0.1469,0.0,0.0,0.0,0.0,0.0,0.0,0.0,0.0,-1.332,0.0,0.0,0.0,0.0,0.0,0.0,0.0,0.0,0.0,0.0,0.0,0.0,0.0,0.0,0.0,0.0,0.0,0.0,0.0,0.0,0.0,0.0,0.0,0.0,0.0,0.0,0.0,0.0,0.0,0.0,0.0,0.0,0.0,0.0,0.0,0.0,0.0,0.0,0.0,0.0,0.0,0.0,0.0,0.0,0.0,0.0,0.0,0.0,0.0,0.0,0.0,0.0,0.0,0.0,0.0,0.0,1.0505,0.7291,0.5457,0.5031,0.2684,0.0268,-0.201,-0.2854,-0.4904,-0.825,0.0,0.0,0.0,0.0,0.0,0.0,0.0,0.0,0.0,0.0,0.0,0.0,0.0,0.0,0.0,0.0,0.0,0.0,0.0,0.0,0.0,0.0,0.0,0.0,0.0,0.0,0.0,0.0,0.0,0.0,0.0,0.0,0.0,0.0,0.0,0.0,0.0,0.0,0.0,0.1608,0.0243,0.0,0.0,0.0,0.0,0.0,0.0,0.0,0.0,-1.4732,0.0,0.0,0.0,0.0,0.0,0.0,0.0,0.0,0.0,0.0,0.0,0.0,0.0,0.0,0.0,0.0,0.0,0.0,0.0,0.0,0.0,0.0,0.0,0.0,0.0,0.0,0.0,0.0,0.0,0.0,0.0,0.0,0.0,0.0,0.0,0.0,0.0,0.0,0.0,0.0,0.0,0.0,0.0,0.0,0.0,0.0,0.0,0.0,0.0,0.0,0.0,0.0,0.0,0.0,0.0,1.0031,0.706,0.5315,0.494,0.2526,0.0133,-0.2009,-0.2868,-0.4893,0.0,0.0,0.0,0.0,0.0,0.0,0.0,0.0,0.0,0.0,0.0,0.0,0.0,0.0,0.0,0.0,0.0,0.0,0.0,0.0,0.0,0.0,0.0,0.0,0.0,0.0,0.0,0.0,0.0,0.0,0.0,0.0,0.0,0.0,0.0,0.0,0.0,0.0,0.0,0.0,0.1274,0.025,-0.046,0.0,0.0,0.0,0.0,0.0,0.0,-1.1969,-1.3643,0.0,0.0,0.0,0.0,0.0,0.0,0.0,0.0,0.0,0.0,0.0,0.0,0.0,0.0,0.0,0.0,0.0,0.0,0.0,0.0,0.0,0.0,0.0,0.0,0.0,0.0,0.0,0.0,0.0,0.0,0.0,0.0,0.0,0.0,0.0,0.0,0.0,0.0,0.0,0.0,0.0,0.0,0.0,0.0,0.0,0.0,0.0,0.0,0.0,0.0,0.0,0.0,0.0,0.0,0.0,0.9355,0.6705,0.505,0.4568,0.2262,0.0,-0.2071,-0.286,-0.4806,0.0,0.0,0.0,0.0,0.0,0.0,0.0,0.0,0.0,0.0,0.0,0.0,0.0,0.0,0.0,0.0,0.0,0.0,0.0,0.0,0.0,0.0,0.0,0.0,0.0,0.0,0.0,0.0,0.0,0.0,0.0,0.0,0.0,0.0,0.0,0.0,0.0,0.0,0.0,0.0,0.0,-0.0206,-0.115,-0.3681,0.0,0.0,0.0,0.0,-1.0295,-1.1218,0.0,0.0,0.0,0.0,0.0,0.0,0.0,0.0,0.0,0.0,0.0,0.0,0.0,0.0,0.0,0.0,0.0,0.0,0.0,0.0,0.0,0.0,0.0,0.0,0.0,0.0,0.0,0.0,0.0,0.0,0.0,0.0,0.0,0.0,0.0,0.0,0.0,0.0,0.0,0.0,0.0,0.0,0.0,0.0,0.0,0.0,0.0,0.0,0.0,0.0,0.0,0.0,0.0,0.0,0.0,0.0,0.7582,0.6026,0.4581,0.3323,0.1816,-0.0042,-0.2197,-0.2779,-0.4542,0.0,0.0,0.0,0.0,0.0,0.0,0.0,0.0,0.0,0.0,0.0,0.0,0.0,0.0,0.0,0.0,0.0,0.0,0.0,0.0,0.0,0.0,0.0,0.0,0.0,0.0,0.0,0.0,0.0,0.0,0.0,0.0,0.0,0.0,0.0,0.0,0.0,0.0,0.0,0.0,0.0,-0.0267,-0.1296,-0.3853,-0.5756,0.0,0.0,-0.8879,-1.0046,-1.1492,0.0,0.0,0.0,0.0,0.0,0.0,0.0,0.0,0.0,0.0,0.0,0.0,0.0,0.0,0.0,0.0,0.0,0.0,0.0,0.0,0.0,0.0,0.0,0.0,0.0,0.0,0.0,0.0,0.0,0.0,0.0,0.0,0.0,0.0,0.0,0.0,0.0,0.0,0.0,0.0,0.0,0.0,0.0,0.0,0.0,0.0,0.0,0.0,0.0,0.0,0.0,0.0,0.0,0.0,0.0,0.7406,0.7257,0.5841,0.4426,0.3132,0.1577,-0.0207,-0.2222,-0.274,-0.4447,0.0,0.0,0.0,0.0,0.0,0.0,0.0,0.0,0.0,0.0,0.0,0.0,0.0,0.0,0.0,0.0,0.0,0.0,0.0,0.0,0.0,0.0,0.0,0.0,0.0,0.0,0.0,0.0,0.0,0.0,0.0,0.0,0.0,0.0,0.0,0.0,0.0,0.0,0.0,0.0,0.0,0.0,-0.2659,-0.4288,0.0,0.0,0.0,-0.8371,-1.0265,0.0,0.0,0.0,0.0,0.0,0.0,0.0,0.0,0.0,0.0,0.0,0.0,0.0,0.0,0.0,0.0,0.0,0.0,0.0,0.0,0.0,0.0,0.0,0.0,0.0,0.0,0.0,0.0,0.0,0.0,0.0,0.0,0.0,0.0,0.0,0.0,0.0,0.0,0.0,0.0,0.0,0.0,0.0,0.0,0.0,0.0,0.0,0.0,0.0,0.0,0.0,0.0,0.0,0.0,0.0,0.0,0.0,0.6903,0.5525,0.4169,0.2811,0.1401,-0.0279,-0.2186,-0.2624,0.0,0.0,0.0,0.0,0.0,0.0,0.0,0.0,0.0,0.0,0.0,0.0,0.0,0.0,0.0,0.0,0.0,0.0,0.0,0.0,0.0,0.0,0.0,0.0,0.0,0.0,0.0,-0.7163,0.0,0.0,0.0,0.0,0.0,0.0,0.0,0.0,0.0,0.0,0.0,0.0,0.0,0.0,-0.2647,-0.4051,-0.4829,-0.5514,0.0,0.0,-0.8297,-1.0261,-1.1171,-1.2362,0.0,0.0,0.0,0.0,0.0,0.0,0.0,0.0,0.0,0.0,0.0,0.0,0.0,0.0,0.0,0.0,0.0,0.0,0.0,0.0,0.0,0.0,0.0,0.0,0.0,0.0,0.0,0.0,0.0,0.0,0.0,0.0,0.0,0.0,0.0,0.0,0.0,0.0,0.0,0.0,0.0,0.0,0.0,0.0,0.0,0.0,0.0,0.0,0.0,0.0,0.0,0.0,0.0,0.0,0.5861,0.5875,0.4873,0.3555,0.194,0.1227,-0.0073,-0.202,-0.245,-0.3739,0.0,0.0,0.0,0.0,0.0,0.0,0.0,0.0,0.0,0.0,0.0,0.0,0.0,0.0,0.0,0.0,0.0,0.0,0.0,0.0,0.0,0.0,0.0,0.0,0.0,0.0,0.0,0.0,0.0,0.0,0.0,0.0,0.0,0.0,0.0,0.0,0.0,0.0,0.0,0.0,0.0,-0.4145,-0.5065,-0.5384,-0.5796,0.0,-0.7824,-0.9053,-0.9962,-1.1653,-1.2964,-1.3249,0.0,0.0,0.0,0.0,0.0,0.0,0.0,0.0,0.0,0.0,0.0,0.0,0.0,0.0,0.0,0.0,0.0,0.0,0.0,0.0,0.0,0.0,0.0,0.0,0.0,0.0,0.0,0.0,0.0,0.0,0.0,0.0,0.0,0.0,0.0,0.0,0.0,0.0,0.0,0.0,0.0,0.0,0.0,0.0,0.0,0.0,0.0,0.0,0.0,0.0,0.0,0.0,0.0,0.4882,0.5177,0.4502,0.3389,0.1846,0.0829,-0.0388,-0.194,-0.2664,-0.3852,0.0,0.0,0.0,0.0,0.0,0.0,0.0,0.0,0.0,0.0,0.0,0.0,0.0,0.0,0.0,0.0,0.0,0.0,0.0,0.0,0.0,0.0,0.0,0.0,0.0,0.0,0.0,0.0,-1.0884,-1.2191,-1.2798,0.0,0.0,0.0,0.0,0.0,0.0,0.0,0.0,0.0,0.0,-0.4851,-0.5351,-0.6379,0.0,0.0,-0.8718,-0.9957,-1.1133,-1.1935,-1.2627,-1.3091,-1.395,0.0,0.0,0.0,0.0,0.0,0.0,0.0,0.0,0.0,0.0,0.0,0.0,0.0,0.0,0.0,0.0,0.0,0.0,0.0,0.0,0.0,0.0,0.0,0.0,0.0,0.0,0.0,0.0,0.0,0.0,0.0,0.0,0.0,0.0,0.0,0.0,0.0,0.0,0.0,0.0,0.0,0.0,0.0,0.0,0.0,0.0,0.0,0.0,0.0,0.0,0.0,0.0,0.3961,0.4604,0.4037,0.3115,0.1888,0.0659,-0.0539,-0.1703,-0.2615,-0.3685,0.0,0.0,0.0,0.0,0.0,0.0,0.0,0.0,0.0,0.0,0.0,0.0,0.0,0.0,0.0,0.0,0.0,0.0,0.0,0.0,0.0,0.0,0.0,0.0,0.0,0.0,0.0,0.0,-1.1162,-1.2283,-1.2565,0.0,0.0,0.0,0.0,0.0,0.0,0.0,0.0,0.0,0.0,-0.5353,-0.5917,-0.7052,-0.7979,-0.8233,-0.9429,-1.0536,-1.139,-1.1967,-1.245,-1.2788,0.0,0.0,0.0,0.0,0.0,0.0,0.0,0.0,0.0,0.0,0.0,0.0,0.0,0.0,0.0,0.0,0.0,0.0,0.0,0.0,0.0,0.0,0.0,0.0,0.0,0.0,0.0,-0.8602,0.0,0.0,-0.6999,0.0,0.0,0.0,0.0,0.0,0.0,0.0,0.0,0.0,0.0,0.0,0.0,0.0,0.0,0.0,0.0,0.0,0.0,0.0,0.0,0.0,0.0,0.315,0.4169,0.3364,0.2627,0.1988,0.0753,-0.0381,-0.1297,-0.2157,-0.3079,-0.4091,0.0,0.0,0.0,0.0,0.0,0.0,0.0,0.0,0.0,0.0,0.0,0.0,0.0,0.0,0.0,0.0,0.0,0.0,0.0,0.0,0.0,0.0,0.0,0.0,0.0,0.0,-0.9509,-1.07,-1.1448,0.0,0.0,0.0,0.0,0.0,0.0,0.0,0.0,0.0,-0.4087,-0.4758,-0.5629,-0.686,-0.7308,-0.7792,-0.8402,-0.9842,-1.0743,-1.0324,-1.1631,-1.2626,0.0,0.0,0.0,0.0,0.0,0.0,0.0,0.0,0.0,0.0,0.0,0.0,0.0,0.0,0.0,0.0,0.0,0.0,0.0,0.0,0.0,0.0,0.0,0.0,0.0,0.0,0.0,-0.9315,-0.9024,0.0,0.0,0.0,0.0,0.0,0.0,0.0,0.0,0.0,0.0,0.0,-0.1845,-0.2132,0.0,0.0,0.0,0.0,0.0,0.0,0.0,0.0,0.0,0.0,0.0,0.0,0.239,0.3182,0.2781,0.229,0.1842,0.04,-0.0627,-0.1158,-0.2479,-0.3926,-0.5535,0.0,0.0,0.0,0.0,0.0,0.0,0.0,0.0,0.0,0.0,0.0,0.0,0.0,0.0,0.0,0.0,0.0,0.0,0.0,0.0,0.0,0.0,0.0,0.0,0.0,-0.9005,0.0,0.0,0.0,0.0,0.0,0.0,0.0,0.0,0.0,0.0,-0.3724,-0.4011,-0.4428,-0.5038,-0.5621,-0.6128,-0.7455,-0.8509,0.0,0.0,0.0,0.0,0.0,0.0,0.0,0.0,0.0,0.0,0.0,0.0,0.0,-1.4513,-1.5172,-1.4566,-1.4212,-1.4027,-1.4123,0.0,0.0,0.0,0.0,0.0,0.0,0.0,0.0,0.0,0.0,0.0,0.0,0.0,0.0,-0.9191,-0.8317,-0.7785,0.0,0.0,0.0,0.0,0.0,0.0,0.0,0.0,0.0081,-0.0943,-0.2707,-0.2975,-0.3825,-0.5095,-0.4895,-0.4946,0.0,0.0,0.0,0.0,0.0,0.0,0.0,0.0,0.1471,0.2095,0.2056,0.1779,0.1264,0.0059,-0.0767,-0.1213,-0.2611,-0.4216,-0.5963,-0.6193,-0.6995,0.0,0.0,0.0,0.0,0.0,0.0,0.0,0.0,0.0,0.0,0.0,0.0,0.0,0.0,0.0,0.0,0.0,0.0,0.0,0.0,0.0,0.0,0.0,-0.9148,0.0,0.0,0.0,0.0,0.0,0.0,0.0,0.0,0.0,-0.4288,-0.4364,-0.4696,-0.4703,-0.5212,-0.5775,-0.6139,0.0,0.0,0.0,0.0,0.0,0.0,0.0,-1.1838,-1.1608,-1.1971,-1.2199,-1.1848,-1.2664,-1.3301,-1.3356,0.0,0.0,-1.3925,-1.3522,-1.3284,-1.3381,-1.3114,-1.2847,-1.2669,-1.2645,-1.256,0.0,0.0,0.0,0.0,-1.0105,0.0,0.0,0.0,-0.9798,-0.8582,0.0,-0.6364,0.0,0.0,0.0,0.0,-0.0985,0.0159,0.0,0.0,-0.0369,-0.1269,-0.2478,-0.2933,-0.3812,-0.5033,-0.435,-0.4588,-0.5731,-0.587,0.0,0.0,0.0,0.0,0.0,0.0,0.042,0.0873,0.1257,0.1078,0.0308,-0.0261,-0.0826,-0.1472,-0.2613,-0.3881,-0.5223,-0.5788,-0.6506,-0.7471,-0.8709,0.0,0.0,0.0,0.0,0.0,0.0,0.0,0.0,0.0,0.0,0.0,0.0,0.0,0.0,0.0,0.0,0.0,0.0,0.0,0.0,-0.8053,0.0,0.0,0.0,0.0,0.0,0.0,0.0,0.0,0.0,-0.7061,-0.4957,-0.5468,-0.5716,-0.4837,0.0,0.0,0.0,0.0,-0.8723,-0.9533,-1.0569,-1.1235,-1.1072,-1.1421,-1.1612,-1.1343,0.0,0.0,-1.2015,-1.2445,-1.2728,-1.2433,-1.288,-1.3472,-1.443,-1.3972,-1.3568,-1.3773,-1.339,-1.3095,-1.3059,-1.3047,-1.2905,-0.9593,0.0,0.0,0.0,0.0,-1.0921,-1.0831,-1.1097,-0.9194,-0.7847,-0.6884,-0.5931,0.0,0.0,0.0,0.0,0.0,0.0,-0.0399,-0.1124,-0.1401,-0.18,-0.2286,-0.3231,-0.3647,-0.3568,-0.3511,-0.3714,-0.4048,-0.4599,-0.4917,-0.4988,0.0,0.0,0.0,0.0,-0.0243,0.0238,0.0451,0.0308,-0.0238,-0.0628,-0.1336,-0.2432,-0.3142,-0.3926,-0.4853,-0.5211,-0.5995,-0.7302,-0.7582,0.0,0.0,0.0,0.0,0.0,0.0,0.0,0.0,0.0,0.0,0.0,0.0,0.0,0.0,0.0,0.0,0.0,0.0,0.0,-0.7645,-0.8004,-0.855,0.0,0.0,0.0,0.0,0.0,0.0,0.0,0.0,0.0,-0.6446,-0.5957,-0.5542,0.0,0.0,-0.546,-0.6694,-0.739,-0.8312,-0.9874,-1.0665,0.0,-1.1492,-1.1428,-1.1386,-1.1321,-1.1557,-1.1918,-1.2242,-1.241,-1.2478,-1.24,-1.2681,-1.3007,-1.3275,-1.3276,-1.3227,-1.332,-1.3218,-1.3055,-1.288,-1.2976,-1.2949,-0.9306,-0.999,-1.0346,-1.1057,-1.1864,-1.1155,-1.0942,-1.0966,-0.8612,-0.6921,-0.5726,-0.4626,-0.3978,-0.3714,-0.3961,0.0,0.0,0.0,-0.0511,-0.1145,-0.1346,-0.1723,-0.2216,-0.2981,-0.3207,-0.2921,-0.2788,-0.3002,-0.3445,-0.336,-0.3557,-0.41,0.0,-0.2817,-0.2266,-0.1521,-0.0918,-0.0528,-0.0187,-0.0358,-0.1008,-0.1376,-0.1987,-0.2826,-0.3182,-0.3711,-0.4391,-0.4666,-0.5317,-0.6379,-0.6916,-0.7609,0.0,0.0,0.0,0.0,0.0,0.0,0.0,0.0,0.0,0.0,0.0,-1.1307,-0.9955,0.0,0.0,0.0,-0.6804,-0.6942,-0.7467,-0.7967,0.0,0.0,0.0,0.0,0.0,0.0,0.0,-0.9298,-0.922,-0.856,-0.7073,-0.6233,-0.551,-0.4817,-0.4787,-0.519,-0.614,0.0,-0.8096,-0.9204,-1.0208,-1.0948,-1.1209,-1.1118,-1.1026,-1.1026,-1.1139,-1.144,-1.1888,-1.1888,-1.1888,-1.1965,-1.2163,-1.2325,-1.2221,-1.2533,-1.2828,-1.2915,-1.2958,-1.2854,-1.2607,-1.2636,-1.2539,-0.9287,-1.0137,-1.0384,-1.0759,-1.1141,-1.1206,-1.0674,-0.9563,-0.7855,-0.5843,-0.3596,-0.2755,-0.237,-0.2304,-0.2644,0.0,-0.1367,-0.0507,-0.0192,-0.0339,-0.0587,-0.1161,-0.2003,-0.2266,-0.2506,-0.2727,-0.2072,-0.2334,-0.3332,-0.2173,-0.1954,-0.2685,-0.3269,-0.3046,-0.2107,-0.1763,-0.1491,-0.1317,-0.0759,-0.0897,-0.179,-0.2392,-0.2718,-0.2801,-0.2944,-0.3312,-0.3907,-0.4172,-0.4536,-0.5049,-0.6447,-0.7173,-0.7082,0.0,0.0,0.0,0.0,0.0,0.0,0.0,0.0,0.0,0.0,0.0,0.0,0.0,0.0,-0.7001,-0.6489,0.0,-0.7019,-0.789,0.0,0.0,0.0,-0.9504,-0.9356,-0.9357,-0.9322,-0.9305,0.0,0.0,-0.7111,-0.632,-0.5572,-0.488,-0.493,-0.5116,-0.5407,-0.6898,-0.7992,-0.8193,-0.9526,-1.0562,-1.0626,-1.0646,-1.064,-1.064,-1.0597,-1.0792,-1.1147,-1.1182,-1.1119,-1.1277,-1.1473,-1.1605,-1.1361,-1.1897,-1.2419,-1.2589,-1.2626,-1.2589,-1.2395,-1.2134,-1.1898,-0.9665,-1.0122,-1.0483,-1.0992,-1.1433,-1.091,-0.9686,-0.796,-0.6363,-0.4404,-0.2236,-0.1844,-0.2093,-0.2831,-0.3014,-0.2863,-0.2401,-0.1494,-0.0886,-0.0551,-0.0715,-0.0607,-0.0364,-0.1041,-0.1193,-0.0741,-0.0709,-0.0898,-0.1308,-0.1311,-0.1493,-0.1816,-0.2061,-0.2065,-0.1803,-0.1676,-0.1543,-0.1436,-0.1142,-0.1304,-0.1933,-0.2971,-0.3303,-0.2875,-0.3105,-0.3225,-0.3247,-0.3505,-0.3936,-0.4618,-0.5477,-0.6242,-0.6839,-0.8279,0.0,0.0,0.0,0.0,0.0,0.0,0.0,0.0,0.0,-1.1467,-1.1037,0.0,-0.84,0.0,-0.7463,-0.7157,-0.7734,-0.8152,0.0,0.0,-0.9596,-0.9575,-0.955,-0.9522,-0.9405,-0.9107,-0.8768,-0.8199,-0.7266,-0.6479,-0.5702,-0.486,-0.459,-0.4821,-0.5773,-0.6809,-0.7794,-0.8683,-0.9502,-1.0197,-1.0333,-1.0511,-1.0587,-1.0597,-1.0592,-1.0654,-1.0749,-1.0911,-1.1024,-1.1071,-1.1271,-1.1372,-1.1305,-1.1623,-1.186,-1.195,-1.2075,-1.2153,-1.2111,-1.1752,-1.141,-0.95,-0.9886,-1.0125,-1.0405,-1.0618,-1.0147,-0.8917,-0.7173,-0.5331,-0.3388,-0.1476,-0.1392,-0.1777,-0.2551,-0.2914,-0.2917,-0.26,-0.2147,-0.1547,-0.0872,-0.0806,-0.052,0.0,-0.0421,-0.0389,0.0,-0.0181,-0.0364,-0.0474,-0.0801,-0.0978,-0.1111,-0.1179,-0.1254,-0.1297,-0.147,-0.1531,-0.1483,-0.1745,-0.198,-0.2245,-0.3197,-0.3495,-0.3023,-0.3091,-0.3134,-0.3088,-0.3234,-0.3722,-0.4597,-0.5423,-0.624,-0.7041,-0.8184,-0.9093,0.0,0.0,0.0,0.0,0.0,0.0,0.0,0.0,0.0,0.0,0.0,-0.9291,-0.9096,-0.8171,-0.783,-0.8295,-0.8558,-0.8871,-0.9446,-0.9733,-0.9781,-0.948,-0.9452,-0.9242,-0.8643,-0.8161,-0.7556,-0.6852,-0.6012,-0.5283,-0.4642,-0.4437,-0.4579,-0.5331,-0.6268,-0.7254,-0.8038,-0.8946,-0.9662,-0.9946,-1.0084,-1.0202,-1.0276,-1.0276,-1.0313,-1.046,-1.0584,-1.0643,-1.0552,-1.0762,-1.0909,-1.0763,-1.0968,-1.1248,-1.147,-1.1375,-1.1422,-1.1771,-1.1494,-1.106,-0.9146,-0.95,-0.9449,-0.9354,-0.9175,-0.8783,-0.7926,-0.6631,-0.4517,-0.2671,-0.1141,-0.1206,-0.1556,-0.2103,-0.2637,-0.2706,-0.2463,-0.2564,-0.2114,-0.122,-0.0961,-0.0674,-0.0339,-0.0138,-0.0035,-0.0035,-0.0213,-0.0286,-0.0322,-0.0464,-0.0565,-0.0587,-0.0565,-0.0648,-0.0775,-0.12,-0.141,-0.1464,-0.224,-0.2597,-0.2506,-0.322,-0.3428,-0.3149,-0.3096,-0.3095,-0.3179,-0.3206,-0.3681,-0.4626,-0.567,-0.6542,-0.7225,-0.8425,-0.9102,0.0,-1.079,0.0,0.0,0.0,0.0,0.0,0.0,0.0,0.0,-1.1504,-1.0247,-0.9683,-0.8816,-0.8414,-0.8795,-0.8914,-0.8999,-0.9084,-0.9794,-0.9987,-0.9389,-0.9335,-0.9013,-0.8106,-0.7338,-0.6701,-0.6217,-0.5302,-0.4641,-0.4479,-0.4382,-0.4368,-0.4517,-0.5619,-0.6652,-0.6898,-0.8088,-0.919,-0.9468,-0.9582,-0.9642,-0.9809,-0.9879,-0.996,-1.0213,-1.0249,-1.0195,-1.0007,-1.0258,-1.033,-0.9997,-1.0247,-1.0611,-1.1048,-1.0734,-1.0667,-1.1319,-1.1117,-1.0648,-0.9008,-0.8996,-0.8682,-0.8192,-0.7534,-0.6089,-0.5357,-0.5056,-0.3661,-0.2374,-0.131,-0.1453,-0.1857,-0.2461,-0.2653,-0.2737,-0.2728,-0.2713,-0.2172,-0.1297,-0.1216,-0.0919,-0.0485,-0.0301,-0.0233,-0.0237,-0.013,-0.016,-0.0319,-0.0319,-0.0414,-0.0507,-0.051,-0.0537,-0.0556,0.0,0.0,0.0,-0.1905,-0.2389,-0.2594,-0.3149,-0.338,-0.3256,-0.337,0.0,-0.3057,-0.333,-0.3673,-0.4014,-0.5297,0.0,0.0,0.0,0.0,0.0,0.0,0.0,0.0,0.0,0.0,0.0,-1.3491,-1.3279,-1.3401,-1.2596,-1.1457,-1.0006,-0.9468,-0.9138,-0.8981,-0.8833,-0.8955,-0.9461,-0.9836,-0.9867,-0.937,-0.9483,-0.913,-0.7774,-0.7086,-0.6496,-0.5885,-0.5274,-0.4756,-0.4421,-0.4351,-0.4187,-0.3828,-0.5328,-0.6478,-0.6687,-0.795,-0.8959,-0.9089,-0.9244,-0.9374,-0.9584,-0.9681,-0.975,-0.9911,-0.9993,-1.0032,-0.9948,-0.993,-0.9927,-0.9958,-0.9902,-0.9952,-1.0408,-1.0377,-1.0449,-1.1006,-1.044,-0.9797,-0.8294,-0.8149,-0.7469,-0.6745,0.0,-0.4137,-0.3466,-0.3597,-0.2684,-0.2021,-0.1614,-0.1816,-0.2169,-0.2638,-0.2772,-0.3001,-0.3248,-0.3231,-0.2772,-0.1953,-0.186,-0.1422,-0.0652,-0.0461,-0.0358,-0.0296,-0.0158,-0.0123,-0.0154,-0.0093,-0.0123,-0.0242,-0.0184,-0.0243,-0.0442,-0.0667,-0.0884,-0.1094,-0.1624,-0.2118,-0.2525,-0.2936,-0.3211,-0.3316,-0.3493,0.0,0.0,0.0,0.0,0.0,0.0,0.0,0.0,-0.8299,0.0,-0.9884,-1.0998,-1.1845,-1.2308,-1.3217,-1.375,-1.3741,-1.3585,-1.3503,-1.347,-1.3262,-1.2821,-1.2,-1.1292,-1.0639,-0.999,-0.9579,-0.9213,-0.9066,-0.9218,-0.921,-0.8886,-0.8632,-0.8062,-0.698,-0.6273,-0.5638,-0.5037,-0.4696,-0.4408,-0.4164,-0.4075,-0.393,-0.3775,-0.487,-0.6014,-0.6755,-0.7777,-0.8556,-0.8567,-0.8735,-0.8934,-0.9093,-0.9155,-0.9249,-0.9406,-0.9461,-0.9506,-0.9516,-0.9555,-0.9625,-0.9452,-0.939,-0.9427,-0.9772,-0.9681,-0.9702,-1.0269,-1.0083,-0.9696,-0.7493,-0.719,-0.626,-0.5325,-0.4289,-0.2566,-0.1937,-0.2094,-0.1929,0.0,0.0,-0.2171,-0.2444,-0.2787,-0.2922,-0.3231,-0.3638,-0.3698,-0.3296,-0.2531,-0.243,-0.1835,-0.0835,-0.0614,-0.0477,-0.0381,-0.0246,-0.0152,-0.003,0.0091,0.012,0.0029,0.012,-0.003,-0.0394,-0.0701,-0.0898,-0.1038,-0.1315,-0.1712,-0.2231,-0.2469,-0.2784,-0.311,-0.3386,-0.3529,-0.3554,-0.3816,-0.4292,-0.5032,-0.583,-0.6722,-0.7654,-0.8473,-0.9209,-0.9774,-1.0902,-1.1589,-1.1743,-1.2868,-1.3509,-1.3418,-1.3429,-1.3424,-1.3373,-1.3618,-1.3762,-1.3782,-1.2814,-1.1745,-1.0825,-1.0116,-0.9348,-0.8447,-0.8518,-0.8528,-0.8236,-0.7654,-0.6955,-0.5997,-0.5173,-0.4552,-0.416,-0.3944,-0.3846,-0.3795,-0.3777,-0.3748,-0.3798,-0.4623,-0.5811,-0.7063,-0.7785,-0.8038,-0.8034,-0.8167,-0.8373,-0.8568,-0.8639,-0.8745,-0.9031,-0.9098,-0.9145,-0.9489,-0.9596,-0.9521,-0.9214,-0.9097,-0.9108,-0.9398,-0.8969,-0.8769,-0.949,-0.9715,-0.9619,-0.6966,-0.6461,-0.543,-0.4224,-0.2887,-0.1435,-0.0572,-0.0339,-0.1735,-0.2336,-0.2271,-0.2466,-0.2696,-0.2956,-0.2989,-0.3198,-0.3518,-0.3536,-0.303,-0.219,-0.233,-0.1817,-0.081,-0.0706,-0.0657,-0.0625,-0.0347,-0.0199,-0.0171,-0.0028,0.0028,0.0,0.0,-0.0113,-0.0393,-0.0617,-0.0757,-0.0757,-0.0813,-0.0966,-0.1311,-0.1336,-0.1735,-0.2485,-0.2754,-0.3039,-0.34,-0.3685,-0.3887,-0.4038,-0.5287,-0.6124,-0.6554,-0.7963,-0.9049,-0.9685,-1.0746,-1.1386,-1.1563,-1.2676,-1.3252,-1.3094,-1.3126,-1.3206,-1.3304,-1.3523,-1.346,-1.3092,-1.2256,-1.1203,-1.016,-0.9444,-0.8801,-0.8226,-0.8297,-0.82,-0.754,-0.7133,-0.6429,-0.5126,-0.4116,-0.3681,-0.3723,-0.3264,-0.3119,-0.3521,-0.3513,-0.3685,-0.4213,-0.495,-0.6015,-0.7199,-0.7602,-0.7664,-0.7654,-0.7794,-0.7935,-0.8162,-0.8226,-0.854,-0.9327,-0.9319,-0.9526,-1.0444,-1.0224,-0.9942,-0.9762,-0.9372,-0.9095,-0.895,-0.8584,-0.849,-0.8867,-0.8947,-0.8963,-0.6412,-0.5712,-0.4478,-0.3447,-0.2651,-0.1908,-0.1109,-0.0493,-0.1725,-0.1986,-0.1602,-0.1982,-0.225,-0.2373,-0.2697,-0.2889,-0.2955,-0.2825,-0.2341,-0.1696,-0.1676,-0.1291,-0.0596,-0.0632,-0.0678,-0.0588,-0.0741,-0.0757,-0.0701,-0.07,-0.0616,-0.0505,-0.0561,-0.0645,-0.0785,-0.0954,-0.0982,-0.0926,-0.0673,-0.0706,-0.1002,-0.0989,-0.127,-0.18,-0.2432,-0.2842,-0.2958,-0.3522,-0.3852,-0.3852,-0.5168,-0.609,-0.6529,-0.7901,-0.9055,-0.9825,-1.0412,-1.0994,-1.15,-1.2605,-1.3195,-1.2925,-1.3089,-1.3341,-1.36,-1.3884,-1.3996,-1.3878,-1.3207,-1.2107,-1.0414,-0.9765,-0.892,-0.7564,-0.7311,-0.7076,-0.6717,-0.5941,-0.529,-0.4764,-0.3688,-0.2984,-0.313,-0.2466,-0.2177,-0.2676,-0.291,-0.3391,-0.4219,-0.4614,-0.5279,-0.6531,-0.7005,-0.7099,-0.7103,-0.7245,-0.7324,-0.7434,-0.7501,-0.7961,-0.8816,-0.8967,-0.9375,-1.0219,-1.034,-1.0205,-1.0043,-0.9525,-0.9125,-0.8881,-0.8325,-0.8163,-0.8387,-0.8508,-0.8584,-0.5818,-0.5027,-0.3674,-0.2774,-0.2296,-0.2185,-0.1656,-0.0986,-0.157,-0.1374,-0.0816,-0.1427,-0.1781,-0.1835,-0.243,-0.2627,-0.2516,-0.2202,-0.1785,-0.1275,-0.105,-0.0708,-0.0308,-0.0478,-0.0621,-0.074,-0.1094,-0.1277,-0.1331,-0.1404,-0.1314,-0.1121,-0.1233,-0.1317,-0.1345,-0.1318,-0.1262,-0.1121,-0.0589,-0.0421,-0.0589,-0.0617,-0.0756,-0.1121,-0.2063,-0.2611,-0.2644,-0.3389,-0.3857,-0.3941,-0.5096,-0.6041,-0.6638,-0.7941,-0.9081,-0.9888,-1.0268,-1.0777,-1.1631,-1.2464,-1.2912,-1.2773,-1.2948,-1.327,-1.3687,-1.4102,-1.4424,-1.4526,-1.3988,-1.2751,-1.0875,-1.0097,-0.9094,-0.7194,-0.6428,-0.6152,-0.5937,-0.4964,-0.4186,-0.4224,-0.3113,-0.231,-0.2221,-0.1643,-0.1425,-0.1901,-0.2353,-0.3045,-0.386,-0.3968,-0.4439,-0.535,-0.6173,-0.6481,-0.6453,-0.6699,-0.6852,-0.6843,-0.6922,-0.7546,-0.8322,-0.8687,-0.9248,-1.0276,-1.0662,-1.0619,-1.0346,-0.9696,-0.9201,-0.8869,-0.8213,-0.7782,-0.8025,-0.8117,-0.8195,-0.5183,-0.4303,-0.3229,-0.205,-0.114,-0.1349,-0.1393,-0.1235,-0.1046,-0.0536,-0.0086,-0.1195,-0.1677,-0.1789,-0.2338,-0.2594,-0.2583,-0.2134,-0.1608,-0.1054,-0.0717,-0.037,-0.0062,-0.0179,-0.0657,-0.1278,-0.1247,-0.1521,-0.2075,-0.1904,-0.1764,-0.1734,-0.1847,-0.1958,-0.2015,-0.1569,-0.1317,-0.1258,-0.0448,0.0056,0.028,0.028,0.0056,-0.0477,-0.1291,-0.2021,-0.2671,-0.3299,-0.3699,-0.3862,-0.481,-0.5694,-0.6491,-0.7803,-0.8998,-0.9855,-1.0439,-1.1192,-1.2081,-1.2039,-1.2157,-1.2482,-1.249,-1.268,-1.3188,-1.3811,-1.4255,-1.4272,-1.3607,-1.2435,-1.074,-0.9944,-0.8826,-0.7022,-0.6274,-0.5745,-0.5236,-0.4682,-0.3886,-0.2695,-0.2108,-0.1507,-0.161,-0.0987,-0.0842,-0.1571,-0.2142,-0.2638,-0.3066,-0.3161,-0.3304,-0.4124,-0.5204,-0.5836,-0.5691,-0.6185,-0.6523,-0.6675,-0.6811,-0.7419,-0.8321,-0.9036,-0.9691,-1.0653,-1.1399,-1.1219,-1.0828,-1.0153,-0.9245,-0.8802,-0.8155,-0.7522,-0.7581,-0.7591,-0.7649,-0.5223,-0.4658,-0.3491,-0.2659,-0.2181,-0.2463,-0.2277,-0.1761,-0.1569,-0.0886,-0.0087,-0.0896,-0.1125,-0.0918,-0.19,-0.2118,-0.1627,-0.1118,-0.0539,0.0063,0.0402,0.0586,0.0554,0.0244,-0.0366,-0.1199,-0.155,-0.2174,-0.2821,-0.2892,-0.2734,-0.2491,-0.2681,-0.2764,-0.2713,-0.2406,-0.2071,-0.1706,-0.1091,-0.0392,0.0308,0.0393,0.014,-0.0393,-0.1175,-0.1956,-0.2653,-0.3274,-0.3774,-0.4239,-0.4976,-0.5875,-0.6871,-0.7875,-0.8907,-0.9959,-1.0829,-1.1486,-1.1965,-1.2246,-1.2472,-1.2683,-1.2726,-1.298,-1.351,-1.3477,-1.3525,-1.3826,-1.3681,-1.2713,-1.0801,-0.9974,-0.8718,-0.6602,-0.5629,-0.5073,-0.4443,-0.3938,-0.3364,-0.2788,-0.2154,-0.155,-0.1238,-0.068,-0.0575,-0.1104,-0.1626,-0.2077,-0.2631,-0.2794,-0.2865,-0.3116,-0.4082,-0.4768,-0.4864,-0.5416,-0.5891,-0.6112,-0.6383,-0.7068,-0.7967,-0.8672,-0.9394,-1.074,-1.1192,-1.144,-1.1351,-1.0322,-0.9352,-0.8844,-0.8042,-0.733,-0.7318,-0.7232,-0.7176,-0.5196,-0.4707,-0.3711,-0.3209,-0.3087,-0.3437,-0.317,-0.2448,-0.2139,-0.1345,-0.039,-0.0894,-0.086,-0.0571,-0.154,-0.159,-0.0842,-0.0314,0.0312,0.0988,0.1306,0.1313,0.1125,0.05,-0.0251,-0.1101,-0.1942,-0.2853,-0.3676,-0.3897,-0.3762,-0.346,-0.3588,-0.3597,-0.3463,-0.3183,-0.2738,-0.2293,-0.1705,-0.0951,-0.0196,-0.0028,-0.0112,-0.0392,-0.1147,-0.1928,-0.2627,-0.3246,-0.3916,-0.457,-0.5191,-0.6069,-0.7222,-0.8008,-0.9007,-1.0257,-1.1076,-1.1743,-1.2197,-1.2657,-1.2957,-1.302,-1.3272,-1.3482,-1.3469,-1.3304,-1.3217,-1.3329,-1.3548,-1.2709,-1.0798,-0.9993,-0.854,-0.6082,-0.5231,-0.4612,-0.3977,-0.3513,-0.3209,-0.2908,-0.2366,-0.1718,-0.0985,-0.0572,-0.0599,-0.0953,-0.1271,-0.1467,-0.2043,-0.2151,-0.21,-0.1838,-0.251,-0.3334,-0.3982,-0.4906,-0.5318,-0.5646,-0.605,-0.6712,-0.7512,-0.8221,-0.8962,-1.0194,-1.0814,-1.1216,-1.1227,-1.0403,-0.9166,-0.8748,-0.7977,-0.7138,-0.7067,-0.6918,-0.6786,-0.5042,-0.4166,-0.3766,-0.3458,-0.3232,-0.363,-0.36,-0.3183,-0.2581,-0.1774,-0.1022,-0.1269,-0.1139,-0.0619,-0.124,-0.1221,-0.0644,-0.0033,0.0648,0.1245,0.1621,0.1704,0.151,0.0514,-0.0423,-0.1321,-0.2271,-0.3321,-0.4397,-0.4703,-0.4767,-0.4609,-0.4615,-0.4574,-0.4298,-0.3574,-0.3074,-0.2907,-0.2125,-0.1454,-0.1202,-0.1062,-0.0783,-0.0476,-0.1119,-0.1931,-0.2521,-0.3218,-0.3996,-0.4873,-0.53,-0.6064,-0.7247,-0.8257,-0.9464,-1.079,-1.1241,-1.1895,-1.2967,-1.3241,-1.3349,-1.3523,-1.4012,-1.3934,-1.3137,-1.3557,-1.3605,-1.2939,-1.298,-1.2248,-1.0551,-0.9957,-0.8619,-0.625,-0.5295,-0.4631,-0.3851,-0.3685,-0.3255,-0.2787,-0.2345,-0.1632,-0.0544,-0.0658,-0.0852,-0.1085,-0.1382,-0.1423,-0.1104,-0.1039,-0.0769,-0.0492,-0.0823,-0.1609,-0.2893,-0.424,-0.513,-0.5481,-0.5885,-0.6585,-0.7391,-0.8161,-0.893,-0.9735,-1.0598,-1.1052,-1.1021,-1.0281,-0.8935,-0.8166,-0.7619,-0.704,-0.6872,-0.6741,-0.6642,-0.4995,-0.426,-0.4227,-0.4046,-0.3738,-0.3873,-0.3673,-0.3212,-0.2612,-0.1909,-0.1274,-0.1087,-0.0856,-0.0556,-0.0759,-0.0492,0.0129,0.0391,0.1077,0.2083,0.2305,0.2052,0.1391,0.0761,-0.0299,-0.1604,-0.2391,-0.3482,-0.4825,-0.5412,-0.56,-0.5477,-0.5322,-0.5152,-0.4794,-0.4187,-0.3577,-0.3132,-0.2824,-0.2348,-0.1649,-0.1679,-0.1679,-0.1512,-0.1792,-0.2322,-0.3051,-0.3416,-0.4132,-0.5246,-0.5546,-0.6367,-0.7773,-0.8826,-0.9799,-1.0711,-1.1585,-1.2422,-1.3201,-1.3773,-1.4082,-1.4133,-1.435,-1.435,-1.395,-1.4017,-1.3782,-1.2995,-1.2443,-1.151,-1.0184,-0.9759,-0.8617,-0.601,-0.5625,-0.5126,-0.3837,-0.3843,-0.3986,-0.291,-0.2109,-0.1283,-0.0747,-0.0467,-0.0621,-0.0787,-0.0707,-0.0569,-0.0468,-0.0323,-0.0236,-0.0378,-0.072,-0.1304,-0.2178,-0.3646,-0.4702,-0.5114,-0.5583,-0.6218,-0.697,-0.7972,-0.878,-0.916,-1.0085,-1.0863,-1.08,-1.0021,-0.8678,-0.7624,-0.704,-0.6872,-0.6708,-0.6609,-0.6511,-0.5101,-0.4694,-0.4499,-0.4281,-0.4081,-0.398,-0.3655,-0.3094,-0.2485,-0.1848,-0.1244,-0.0874,-0.0603,-0.0433,-0.0399,0.0066,0.0808,0.0951,0.173,0.2921,0.2811,0.228,0.1563,0.0776,-0.0302,-0.171,-0.3047,-0.4462,-0.5882,-0.6446,-0.6614,-0.661,-0.6188,-0.5727,-0.5317,-0.477,-0.4159,-0.3685,-0.3719,-0.3378,-0.2679,-0.2926,-0.3014,-0.2847,-0.282,-0.2991,-0.3416,-0.3719,-0.4377,-0.5355,-0.5846,-0.6777,-0.826,-0.9146,-0.9988,-1.0832,-1.1837,-1.2825,-1.3626,-1.4357,-1.4765,-1.4765,-1.4971,-1.4971,-1.4519,-1.4371,-1.3825,-1.2894,-1.204,-1.0987,-0.9687,-0.9317,-0.827,-0.5944,-0.6081,-0.5768,-0.3985,-0.4555,-0.4509,-0.3518,-0.2487,-0.1611,-0.0855,-0.041,-0.0372,-0.0631,-0.0259,0.0,-0.0061,-0.0091,0.0061,-0.0176,-0.0639,-0.1102,-0.1899,-0.3129,-0.4219,-0.4713,-0.555,-0.6119,-0.6679,-0.7684,-0.8458,-0.8775,-0.9448,-1.0288,-1.0281,-0.9564,-0.8511,-0.7326,-0.6811,-0.6613,-0.6515,-0.6482,-0.6416,-0.5378,-0.5328,-0.4513,-0.4174,-0.4136,-0.4005,-0.3577,-0.2963,-0.2252,-0.1614,-0.1043,-0.0674,-0.0333,-0.0196,-0.013,0.0421,0.1305,0.1629,0.2396,0.3469,0.2949,0.2493,0.2039,0.0505,-0.07,-0.1538,-0.4166,-0.6248,-0.7584,-0.7701,-0.7801,-0.7857,-0.7126,-0.6433,-0.5828,-0.534,-0.4877,-0.4519,-0.4494,-0.4522,-0.4543,-0.4697,-0.4584,-0.4116,-0.4064,-0.3904,-0.3497,-0.4104,-0.4759,-0.546,-0.6172,-0.7289,-0.8533,-0.9167,-0.9993,-1.1167,-1.1974,-1.2999,-1.427,-1.5003,-1.5294,-1.5313,-1.5885,-1.5732,-1.481,-1.4621,-1.4159,-1.2913,-1.1793,-1.0623,-0.9336,-0.8744,-0.7889,-0.6531,-0.6534,-0.6276,-0.5483,-0.5542,-0.5539,-0.4476,-0.3364,-0.2345,-0.1385,-0.0522,-0.0174,-0.0208,-0.0034,0.0263,0.0219,0.0,0.0062,0.0367,-0.0249,-0.1151,-0.1817,-0.2564,-0.3502,-0.4386,-0.5434,-0.6214,-0.6609,-0.7419,-0.8258,-0.8775,-0.9773,-1.0541,-1.0014,-0.9251,-0.8356,-0.7344,-0.6911,-0.6375,-0.6284,-0.6251,-0.635,-0.5848,-0.5415,-0.4696,-0.4298,-0.4196,-0.4127,-0.3687,-0.2924,-0.2216,-0.1478,-0.0773,-0.0168,0.0134,0.03,0.0432,0.0994,0.1861,0.2199,0.2618,0.2991,0.3025,0.2485,0.158,0.0643,-0.0831,-0.2734,-0.4495,-0.6277,-0.7703,-0.8286,-0.8555,-0.8627,-0.7983,-0.7268,-0.6701,-0.5823,-0.514,-0.4715,-0.4688,-0.4791,-0.5023,-0.5191,-0.5324,-0.5425,-0.4913,-0.4426,-0.4187,-0.438,-0.4838,-0.5487,-0.6199,-0.7289,-0.8507,-0.9008,-0.9794,-1.1153,-1.2139,-1.312,-1.4242,-1.5195,-1.5701,-1.5761,-1.6175,-1.6247,-1.5808,-1.5389,-1.4688,-1.3494,-1.215,-1.061,-0.9407,-0.8636,-0.7739,-0.634,-0.6935,-0.6904,-0.5828,-0.5731,-0.5487,-0.4794,-0.3915,-0.2813,-0.1525,-0.0525,0.0106,0.0538,0.057,0.0553,0.0879,0.0261,-0.0065,0.0061,-0.0695,-0.1222,-0.1774,-0.2372,-0.3117,-0.4035,-0.5055,-0.598,-0.6441,-0.7223,-0.8064,-0.9096,-1.0091,-1.0344,-0.9788,-0.898,-0.8122,-0.7219,-0.6489,-0.6196,-0.6042,-0.6086,-0.6185,-0.605,-0.5477,-0.4729,-0.4334,-0.4098,-0.4066,-0.3755,-0.3153,-0.2123,-0.1296,-0.0704,0.0135,0.0606,0.0808,0.1009,0.1469,0.2156,0.2695,0.2906,0.285,0.2921,0.2471,0.1577,0.0727,-0.0881,-0.314,-0.4786,-0.6579,-0.8527,-0.9187,-0.979,-1.0065,-0.9183,-0.8298,-0.7664,-0.6568,-0.5737,-0.534,-0.5371,-0.5609,-0.6032,-0.6406,-0.6595,-0.6509,-0.5833,-0.5191,-0.4736,-0.4818,-0.5066,-0.5546,-0.6416,-0.7557,-0.8639,-0.8929,-0.9638,-1.0965,-1.2099,-1.3121,-1.4155,-1.5202,-1.5917,-1.6048,-1.6098,-1.6102,-1.5961,-1.5478,-1.4557,-1.3412,-1.2025,-1.0519,-0.9202,-0.8529,-0.77,-0.6687,-0.7402,-0.7538,-0.6733,-0.6379,-0.6144,-0.5529,-0.4509,-0.3037,-0.1645,-0.0391,0.0395,0.1101,0.0953,0.0708,0.0935,0.0199,-0.0222,-0.0584,-0.0964,-0.1386,-0.1711,-0.2244,-0.2832,-0.3682,-0.4578,-0.5401,-0.605,-0.7125,-0.8129,-0.9544,-1.0667,-1.0856,-1.0372,-0.9101,-0.8106,-0.714,-0.6346,-0.5921,-0.5763,-0.5943,-0.6086,-0.6064,-0.5508,-0.4684,-0.423,-0.4048,-0.3851,-0.3737,-0.3449,-0.1923,-0.1144,-0.0765,0.0335,0.1008,0.1311,0.1573,0.1914,0.2363,0.3085,0.336,0.3176,0.3041,0.2688,0.2155,0.1013,-0.0602,-0.2608,-0.4662,-0.7049,-0.9406,-1.0454,-1.1435,-1.192,-1.0722,-0.9563,-0.8755,-0.7547,-0.6695,-0.6185,-0.6416,-0.6785,-0.7212,-0.8078,-0.8263,-0.7427,-0.6784,-0.5977,-0.5226,-0.5289,-0.5477,-0.5632,-0.6858,-0.7803,-0.8441,-0.8817,-0.9465,-1.0785,-1.1882,-1.2878,-1.3971,-1.4798,-1.5557,-1.585,-1.5512,-1.5337,-1.53,-1.4641,-1.3855,-1.2965,-1.178,-1.0479,-0.9207,-0.868,-0.8155,-0.7509,-0.7878,-0.819,-0.8449,-0.7568,-0.693,-0.6512,-0.506,-0.3133,-0.1603,-0.018,0.0768,0.1337,0.1142,0.0739,0.0532,-0.0032,-0.088,-0.1177,-0.1261,-0.1459,-0.1753,-0.1632,-0.2259,-0.32,-0.4049,-0.4735,-0.5965,-0.727,-0.889,-1.0274,-1.1257,-1.132,-1.0833,-0.9643,-0.8496,-0.7585,-0.6743,-0.5879,-0.5542,-0.5708,-0.5861,-0.6245,-0.567,-0.4865,-0.4391,-0.4167,-0.3811,-0.3569,-0.3229,-0.1696,-0.0935,-0.0425,0.0799,0.1476,0.1744,0.2105,0.2466,0.2847,0.3326,0.3641,0.3703,0.3819,0.3301,0.2634,0.1816,0.0465,-0.1452,-0.3965,-0.6653,-0.9508,-1.1401,-1.2552,-1.3186,-1.2435,-1.1292,-1.0057,-0.8973,-0.7716,-0.6668,-0.6954,-0.7224,-0.7465,-0.803,-0.8435,-0.8468,-0.7197,-0.6236,-0.5582,-0.5418,-0.5887,-0.6707,-0.7025,-0.7509,-0.8035,-0.8207,-0.8917,-1.0241,-1.1117,-1.2143,-1.3368,-1.3989,-1.4349,-1.4669,-1.451,-1.4395,-1.4572,-1.3825,-1.3519,-1.3295,-1.2335,-1.1163,-1.0638,-1.0176,-0.9666,-0.8993,-0.8449,-0.8125,-0.8147,-0.7915,-0.7517,-0.6759,-0.5425,-0.363,-0.1668,-0.0176,0.0962,0.1634,0.1229,0.0458,0.0295,-0.0547,-0.1486,-0.1313,-0.136,-0.1532,-0.1608,-0.1392,-0.1736,-0.2702,-0.3446,-0.4073,-0.5762,-0.7662,-0.9693,-1.1652,-1.2388,-1.2634,-1.1632,-1.0504,-0.9365,-0.8007,-0.6592,-0.5491,-0.5315,-0.5375,-0.5485,-0.6256,-0.5686,-0.4876,-0.4396,-0.4249,-0.403,-0.392,-0.353,-0.2202,-0.1259,-0.061,0.0786,0.164,0.2044,0.2486,0.2886,0.3193,0.3439,0.3851,0.4374,0.4809,0.4416,0.3547,0.293,0.1829,-0.0238,-0.3247,-0.6596,-0.9939,-1.2529,-1.4209,-1.4968,-1.4449,-1.3425,-1.2133,-1.0449,-0.9218,-0.8246,-0.7873,-0.7689,-0.8082,-0.8365,-0.8659,-0.8797,-0.7706,-0.6713,-0.5941,-0.5575,-0.5952,-0.6744,-0.7075,-0.7384,-0.7834,-0.7901,-0.8532,-0.9901,-1.0619,-1.1655,-1.2911,-1.3375,-1.3726,-1.4009,-1.3768,-1.3502,-1.3605,-1.3259,-1.3281,-1.3266,-1.2718,-1.2131,-1.126,-1.0633,-1.0122,-0.9668,-0.9114,-0.8657,-0.8456,-0.8207,-0.7767,-0.6924,-0.5829,-0.4235,-0.1873,-0.0544,0.0511,0.1135,0.0723,0.0364,0.0126,-0.1049,-0.1733,-0.1475,-0.1201,-0.1268,-0.1333,-0.1186,-0.1706,-0.2615,-0.4007,-0.4378,-0.6164,-0.8325,-1.0358,-1.2248,-1.3237,-1.3575,-1.2568,-1.1249,-0.9545,-0.8052,-0.641,-0.5351,-0.5168,-0.5095,-0.5206,-0.6092,-0.5572,-0.4747,-0.4336,-0.4272,-0.4298,-0.4332,-0.4249,-0.2839,-0.1845,-0.1011,0.0512,0.1616,0.2256,0.2671,0.3065,0.3331,0.3438,0.4108,0.4799,0.5414,0.5313,0.4734,0.4515,0.3415,0.1228,-0.2433,-0.6262,-0.9876,-1.3433,-1.6056,-1.6676,-1.6403,-1.5565,-1.4083,-1.2191,-1.0882,-0.9881,-0.8717,-0.8304,-0.8585,-0.8717,-0.883,-0.883,-0.7939,-0.6761,-0.5903,-0.5628,-0.5937,-0.6365,-0.6855,-0.7305,-0.7707,-0.7758,-0.8403,-0.9437,-1.0265,-1.1235,-1.2558,-1.299,-1.331,-1.365,-1.2885,-1.25,-1.2723,-1.2777,-1.2868,-1.323,-1.347,-1.2838,-1.172,-1.0396,-1.0012,-1.0042,-1.0088,-0.9785,-0.9234,-0.8641,-0.8075,-0.7411,-0.6383,-0.4636,-0.283,-0.1299,-0.0224,0.0555,0.0098,-0.035,-0.0582,-0.1247,-0.1584,-0.1354,-0.1105,-0.0874,-0.0932,-0.096,-0.1807,-0.2754,-0.4668,-0.5809,-0.7347,-0.9298,-1.109,-1.2734,-1.4312,-1.4556,-1.3711,-1.2093,-1.0073,-0.8162,-0.655,-0.5544,-0.486,-0.4901,-0.4958,-0.5439,-0.5173,-0.4692,-0.4443,-0.4398,-0.415,-0.4171,-0.4235,-0.2671,-0.176,-0.0828,0.0714,0.1765,0.2397,0.2547,0.2824,0.3098,0.3356,0.4039,0.5136,0.528,0.5819,0.5978,0.6087,0.532,0.288,-0.1644,-0.5358,-0.8557,-1.3718,-1.6836,-1.7389,-1.7655,-1.7061,-1.5517,-1.3901,-1.215,-1.0676,-0.9564,-0.8902,-0.8555,-0.8586,-0.8626,-0.8547,-0.7358,-0.6037,-0.5178,-0.5358,-0.5687,-0.5852,-0.6423,-0.6987,-0.7096,-0.7086,-0.778,-0.8927,-0.9595,-1.0641,-1.2151,-1.2191,-1.2093,-1.2545,-1.192,-1.1304,-1.1911,-1.2248,-1.2871,-1.3578,-1.3921,-1.3555,-1.2651,-1.1752,-1.112,-1.0809,-1.0502,-1.0184,-0.9823,-0.9406,-0.8832,-0.7939,-0.6613,-0.4816,-0.2952,-0.1988,-0.108,-0.0341,-0.0523,-0.1128,-0.1406,-0.1639,-0.1466,-0.1319,-0.0756,-0.0532,-0.0729,-0.1091,-0.2221,-0.3365,-0.5194,-0.7422,-0.898,-1.0424,-1.2276,-1.4026,-1.5764,-1.5423,-1.4491,-1.274,-1.0705,-0.8726,-0.6683,-0.5466,-0.4614,-0.4654,-0.4486,-0.5032,-0.5041,-0.4848,-0.4831,-0.4889,-0.5043,-0.4962,-0.4495,-0.3506,-0.2325,-0.1195,0.015,0.1046,0.1654,0.194,0.2246,0.2691,0.338,0.4142,0.5045,0.5588,0.6365,0.6898,0.6773,0.5805,0.2134,-0.1983,-0.5997,-1.0803,-1.4732,-1.7841,-1.8461,-1.8717,-1.8101,-1.6837,-1.5282,-1.3705,-1.2177,-1.0668,-0.9709,-0.9181,-0.8736,-0.8229,-0.7851,-0.6783,-0.5722,-0.4948,-0.535,-0.5487,-0.5626,-0.6253,-0.6854,-0.6889,-0.7002,-0.7677,-0.8592,-0.9243,-1.0022,-1.112,-1.1234,-1.1062,-1.1463,-1.0982,-1.1254,-1.1821,-1.2364,-1.3551,-1.4573,-1.4828,-1.4522,-1.377,-1.2625,-1.2004,-1.1866,-1.1278,-1.0976,-1.0932,-1.0352,-0.9383,-0.8542,-0.753,-0.5944,-0.4457,-0.3114,-0.2354,-0.182,-0.1176,-0.1688,-0.1916,-0.2052,-0.1565,-0.1179,-0.0476,-0.0196,-0.0504,-0.1312,-0.2726,-0.4147,-0.5878,-0.8432,-1.0722,-1.2096,-1.3489,-1.5087,-1.6477,-1.5956,-1.4913,-1.3102,-1.0942,-0.8399,-0.6394,-0.5084,-0.4148,-0.3812,-0.3642,-0.4627,-0.4908,-0.503,-0.5125,-0.5319,-0.5967,-0.5823,-0.5057,-0.4548,-0.3188,-0.1791,-0.0763,0.0174,0.0738,0.1153,0.1544,0.2137,0.3035,0.3845,0.4625,0.5703,0.644,0.7008,0.7005,0.428,-0.1579,-0.3605,-0.7795,-1.2797,-1.6889,-1.8392,-1.9265,-1.9429,-1.8695,-1.7755,-1.637,-1.4744,-1.3466,-1.1722,-1.0417,-0.9844,-0.915,-0.827,-0.6993,-0.6334,-0.5603,-0.506,-0.5265,-0.5481,-0.5318,-0.6209,-0.6689,-0.6919,-0.722,-0.7741,-0.841,-0.8949,-0.9771,-1.0586,-1.0641,-1.0577,-1.064,-1.0968,-1.1415,-1.2094,-1.3039,-1.4081,-1.4926,-1.529,-1.5171,-1.4596,-1.3547,-1.2884,-1.2596,-1.2127,-1.2032,-1.1928,-1.1122,-1.0194,-0.924,-0.8345,-0.7002,-0.5739,-0.452,-0.3903,-0.3317,-0.2653,-0.2235,-0.2514,-0.235,-0.1878,-0.1122,-0.0392,-0.0224,-0.0503,-0.1867,-0.3249,-0.4961,-0.6645,-0.9127,-1.1825,-1.3303,-1.4508,-1.5748,-1.6572,-1.6136,-1.5034,-1.303,-1.0677,-0.7981,-0.6018,-0.465,-0.3741,-0.2983,-0.2871,-0.3779,-0.4451,-0.4786,-0.4875,-0.4942,-0.5619,-0.5677,-0.5057,-0.461,-0.345,-0.1987,-0.1084,-0.023,0.0424,0.0562,0.09,0.1482,0.2279,0.3162,0.4072,0.5081,0.5813,0.6596,0.6934,0.2994,-0.2857,-0.5158,-0.7625,-1.2457,-1.6084,-1.834,-1.8724,-1.9263,-1.8992,-1.7804,-1.6718,-1.5377,-1.3989,-1.2421,-1.1205,-1.0153,-0.9124,-0.7939,-0.6354,-0.574,-0.5147,-0.47,-0.4916,-0.529,-0.5549,-0.5989,-0.636,-0.6719,-0.7002,-0.7529,-0.8139,-0.8858,-0.9623,-1.0406,-1.0817,-1.0965,-1.1205,-1.1586,-1.2066,-1.2649,-1.3354,-1.423,-1.4716,-1.5134,-1.5109,-1.4658,-1.3992,-1.3279,-1.267,-1.229,-1.2204,-1.174,-1.1507,-1.1361,-1.0624,-0.9435,-0.8205,-0.7041,-0.5973,-0.5269,-0.4673,-0.4064,-0.3552,-0.3458,-0.2963,-0.2214,-0.1315,-0.0307,-0.0363,-0.0559,-0.2334,-0.396,-0.577,-0.757,-0.9556,-1.2016,-1.3975,-1.5412,-1.6207,-1.6721,-1.6591,-1.5083,-1.2804,-1.0146,-0.7249,-0.5673,-0.4188,-0.3357,-0.2554,-0.2348,-0.3752,-0.4823,-0.5366,-0.5714,-0.5988,-0.6415,-0.6202,-0.547,-0.4762,-0.3641,-0.2426,-0.1532,-0.0911,-0.045,-0.0252,0.0112,0.0838,0.1507,0.248,0.3595,0.4398,0.5171,0.5952,0.6413,0.1372,-0.3752,-0.595,-0.8845,-1.4215,-1.6909,-1.8215,-1.8364,-1.8853,-1.8508,-1.7503,-1.6783,-1.5654,-1.4216,-1.3034,-1.1839,-1.0381,-0.9032,-0.7213,-0.62,-0.5314,-0.4731,-0.4418,-0.4572,-0.5147,-0.565,-0.599,-0.6313,-0.674,-0.7274,-0.7654,-0.7988,-0.8817,-0.9612,-1.026,-1.0662,-1.1104,-1.1454,-1.202,-1.2623,-1.3211,-1.3819,-1.4365,-1.4806,-1.5369,-1.542,-1.4939,-1.4287,-1.3561,-1.3025,-1.2542,-1.2106,-1.197,-1.2,-1.1954,-1.1842,-1.0927,-0.9718,-0.8468,-0.749,-0.6629,-0.6023,-0.5484,-0.5008,-0.4567,-0.3685,-0.2832,-0.1439,-0.0508,-0.0539,-0.1051,-0.283,-0.4608,-0.6438,-0.8408,-1.0397,-1.2085,-1.4026,-1.5197,-1.6019,-1.6387,-1.6037,-1.4042,-1.1412,-0.8951,-0.662,-0.4838,-0.333,-0.2715,-0.2221,-0.1958,-0.3952,-0.5356,-0.6073,-0.6612,-0.7025,-0.7384,-0.6961,-0.6037,-0.5094,-0.4048,-0.2839,-0.2062,-0.1558,-0.1292,-0.1065,-0.0644,0.014,0.0756,0.164,0.2811,0.3692,0.4548,0.5145,0.4714,0.1928,-0.376,-0.6308,-1.0388,-1.6087,-1.7805,-1.7923,-1.803,-1.8224,-1.7784,-1.6949,-1.6435,-1.5503,-1.4514,-1.3576,-1.2438,-1.0561,-0.8357,-0.6627,-0.5859,-0.5033,-0.44,-0.4156,-0.4378,-0.4992,-0.5603,-0.6006,-0.6321,-0.7081,-0.7869,-0.8118,-0.8061,-0.9214,-0.9704,-1.0087,-1.09,-1.1478,-1.1516,-1.2551,-1.3244,-1.3718,-1.4285,-1.4813,-1.5205,-1.5495,-1.5619,-1.4962,-1.4193,-1.3767,-1.3453,-1.2709,-1.2044,-1.2356,-1.2482,-1.251,-1.2296,-1.1983,-1.1065,-0.9651,-0.8856,-0.8006,-0.7253,-0.6723,-0.6133,-0.5592,-0.4545,-0.3457,-0.1777,-0.0832,-0.078,-0.1623,-0.3345,-0.5116,-0.6925,-0.9011,-1.1091,-1.2529,-1.4006,-1.4661,-1.4847,-1.4371,-1.3693,-1.1834,-1.0131,-0.7909,-0.5759,-0.3805,-0.2651,-0.2293,-0.1792,-0.1379,-0.4151,-0.5483,-0.6441,-0.68,-0.6936,-0.7665,-0.7516,-0.672,-0.572,-0.4681,-0.3528,-0.2573,-0.1807,-0.1466,-0.1596,-0.1286,-0.0802,-0.035,0.0441,0.1623,0.2711,0.353,0.4144,0.4735,0.198,-0.28,-0.5494,-1.1161,-1.5994,-1.7367,-1.7778,-1.7759,-1.7179,-1.6771,-1.612,-1.5548,-1.4971,-1.3965,-1.3338,-1.2052,-0.9941,-0.7676,-0.6271,-0.5368,-0.4618,-0.4079,-0.3971,-0.424,-0.4833,-0.5741,-0.5813,-0.652,-0.7779,-0.8459,-0.8917,-0.9302,-0.9819,-1.0211,-1.0322,-1.1314,-1.2012,-1.2043,-1.3023,-1.3989,-1.4388,-1.4643,-1.5063,-1.5472,-1.5368,-1.5072,-1.4809,-1.4436,-1.4007,-1.3653,-1.3195,-1.2852,-1.2963,-1.2832,-1.2856,-1.2949,-1.2686,-1.1789,-1.0603,-1.0012,-0.937,-0.8639,-0.7947,-0.7333,-0.6455,-0.5312,-0.401,-0.2318,-0.1538,-0.1461,-0.2256,-0.3967,-0.567,-0.7478,-0.9443,-1.1444,-1.2284,-1.3067,-1.2819,-1.2856,-1.2352,-1.1481,-0.9863,-0.8266,-0.6658,-0.5147,-0.3463,-0.2625,-0.2127,-0.154,-0.0982,-0.4944,-0.6284,-0.7422,-0.8031,-0.8223,-0.8651,-0.838,-0.7482,-0.6339,-0.5184,-0.4039,-0.2875,-0.2044,-0.1712,-0.1849,-0.1734,-0.1332,-0.1106,-0.0442,0.0501,0.1565,0.2336,0.2821,0.3059,0.127,-0.1765,-0.4277,-0.7282,-1.2607,-1.6101,-1.714,-1.6503,-1.5915,-1.5237,-1.4845,-1.415,-1.3377,-1.2497,-1.1657,-1.0485,-0.89,-0.7223,-0.5814,-0.5003,-0.4303,-0.3969,-0.403,-0.4378,-0.5108,-0.5998,-0.6273,-0.7174,-0.8487,-0.92,-0.9649,-1.0829,-1.0794,-1.0716,-1.0632,-1.168,-1.2089,-1.256,-1.3335,-1.4001,-1.4597,-1.4893,-1.4905,-1.4827,-1.4705,-1.4497,-1.4251,-1.3927,-1.3786,-1.3565,-1.3437,-1.3476,-1.3348,-1.3204,-1.317,-1.329,-1.329,-1.2355,-1.1548,-1.1015,-1.035,-0.9623,-0.8946,-0.8328,-0.714,-0.5689,-0.4336,-0.2833,-0.2409,-0.2288,-0.3315,-0.4682,-0.6292,-0.8017,-0.9541,-1.1133,-1.1524,-1.1852,-1.1703,-1.103,-1.0363,-0.9294,-0.7886,-0.6742,-0.5487,-0.4359,-0.3267,-0.2655,-0.2071,-0.1485,-0.0982,-0.5527,-0.7047,-0.8451,-0.9304,-0.9707,-0.9843,-0.9507,-0.8707,-0.7224,-0.5942,-0.4785,-0.3583,-0.2659,-0.2376,-0.2571,-0.2541,-0.2007,-0.1806,-0.1153,-0.0354,0.0416,0.1068,0.1518,0.16,0.0617,-0.2399,-0.3263,-0.5584,-0.8918,-1.2522,-1.48,-1.482,-1.4211,-1.3787,-1.3247,-1.2606,-1.1905,-1.1374,-1.0458,-0.9481,-0.8396,-0.694,-0.5869,-0.503,-0.4359,-0.3958,-0.4137,-0.4706,-0.5543,-0.626,-0.6943,-0.7917,-0.9416,-0.9983,-1.0644,-1.1513,-1.1607,-1.115,-1.1076,-1.1547,-1.2216,-1.2784,-1.3561,-1.4255,-1.4863,-1.5031,-1.4888,-1.4601,-1.4419,-1.4133,-1.3742,-1.3503,-1.3591,-1.3574,-1.3486,-1.3628,-1.3741,-1.3546,-1.3276,-1.3166,-1.3166,-1.305,-1.234,-1.1938,-1.1336,-1.0612,-0.9953,-0.9301,-0.7898,-0.6237,-0.4928,-0.3615,-0.3396,-0.3421,-0.433,-0.5561,-0.7131,-0.8403,-0.991,-1.0813,-1.119,-1.106,-1.0825,-0.9925,-0.883,-0.7508,-0.6359,-0.5386,-0.4446,-0.3763,-0.313,-0.2599,-0.2015,-0.1401,-0.0982,-0.5624,-0.7489,-0.9188,-1.0253,-1.0897,-1.0962,-1.0816,-1.0339,-0.8537,-0.7253,-0.6153,-0.4699,-0.3889,-0.3859,-0.3837,-0.3652,-0.3012,-0.2911,-0.2253,-0.1382,-0.0586,-0.01,0.027,0.0415,0.0367,-0.0596,-0.2146,-0.384,-0.5787,-0.9419,-1.1682,-1.2872,-1.2637,-1.2496,-1.2125,-1.1451,-1.0688,-1.0228,-0.9651,-0.9216,-0.831,-0.7138,-0.6068,-0.5527,-0.4767,-0.42,-0.4262,-0.5148,-0.5891,-0.6658,-0.7533,-0.8684,-1.016,-1.0692,-1.145,-1.2208,-1.1831,-1.1346,-1.1215,-1.1277,-1.1619,-1.2254,-1.3295,-1.4611,-1.5128,-1.5068,-1.491,-1.4653,-1.4371,-1.4016,-1.3679,-1.3506,-1.3474,-1.3571,-1.3543,-1.3658,-1.3782,-1.3826,-1.3556,-1.3138,-1.2983,-1.2973,-1.2832,-1.235,-1.211,-1.1457,-1.0559,-0.9884,-0.8444,-0.6871,-0.5735,-0.4739,-0.447,-0.4647,-0.5368,-0.6557,-0.767,-0.8622,-0.9865,-1.0468,-1.0855,-1.0539,-0.9944,-0.8984,-0.7862,-0.6341,-0.5081,-0.468,-0.4187,-0.3577,-0.2993,-0.2434,-0.1734,-0.1036,-0.0757,-0.5832,-0.8083,-0.964,-1.0892,-1.1841,-1.2265,-1.2296,-1.1865,-1.061,-0.9041,-0.7446,-0.5806,-0.5132,-0.531,-0.5062,-0.4831,-0.444,-0.4157,-0.3506,-0.2682,-0.1932,-0.1361,-0.0992,-0.0757,-0.0502,-0.0527,-0.1744,-0.2791,-0.3982,-0.7084,-0.9011,-1.0384,-1.1398,-1.1567,-1.1259,-1.0257,-0.9273,-0.8856,-0.8692,-0.8441,-0.7753,-0.7246,-0.6335,-0.5355,-0.5896,-0.5414,-0.5445,-0.6389,-0.695,-0.7555,-0.8595,-0.9825,-1.0877,-1.1323,-1.2056,-1.2756,-1.1947,-1.1268,-1.1101,-1.1117,-1.1304,-1.2555,-1.3772,-1.4857,-1.5206,-1.5253,-1.489,-1.4561,-1.4255,-1.391,-1.3277,-1.315,-1.3185,-1.3405,-1.3555,-1.3628,-1.3669,-1.3693,-1.359,-1.3113,-1.3055,-1.3079,-1.2914,-1.2677,-1.2521,-1.2255,-1.1363,-1.0336,-0.8894,-0.7583,-0.6437,-0.549,-0.5135,-0.5145,-0.5811,-0.6928,-0.8111,-0.8923,-0.9722,-0.9938,-1.0102,-0.9548,-0.8871,-0.7943,-0.7253,-0.622,-0.5325,-0.4595,-0.3863,-0.3105,-0.2631,-0.2238,-0.1511,-0.0784,-0.0672,-0.6205,-0.8367,-0.9651,-1.11,-1.255,-1.3205,-1.339,-1.3087,-1.1969,-1.0599,-0.8805,-0.7406,-0.7068,-0.7289,-0.7041,-0.663,-0.6379,-0.5931,-0.5335,-0.4688,-0.4033,-0.331,-0.2883,-0.251,-0.2165,-0.1478,-0.1403,-0.2284,-0.4174,-0.6056,-0.849,-1.033,-1.1015,-1.1336,-1.0493,-0.9058,-0.7803,-0.7551,-0.7691,-0.7916,-0.7444,-0.7251,-0.6977,-0.6054,-0.6433,-0.6465,-0.6524,-0.7203,-0.7851,-0.8492,-0.9419,-1.0669,-1.1422,-1.2048,-1.2618,-1.2526,-1.2069,-1.1122,-1.0951,-1.1056,-1.125,-1.2327,-1.371,-1.4616,-1.5088,-1.5244,-1.487,-1.4241,-1.4023,-1.3698,-1.3003,-1.2964,-1.3047,-1.3232,-1.3202,-1.3254,-1.325,-1.3258,-1.3234,-1.3055,-1.3055,-1.3017,-1.3104,-1.291,-1.2698,-1.2481,-1.1858,-1.0754,-0.9416,-0.8201,-0.7159,-0.63,-0.5642,-0.5755,-0.6027,-0.6913,-0.778,-0.8469,-0.9108,-0.913,-0.9078,-0.8589,-0.8333,-0.791,-0.722,-0.635,-0.5492,-0.4619,-0.3549,-0.249,-0.2071,-0.1652,-0.1706,-0.1091,-0.0868,-0.6702,-0.8315,-0.9167,-1.0898,-1.3042,-1.3602,-1.3905,-1.3861,-1.262,-1.1553,-1.0738,-0.9879,-0.9894,-1.0195,-0.9844,-0.9335,-0.8764,-0.8148,-0.7614,-0.7192,-0.6455,-0.6026,-0.5438,-0.4858,-0.4164,-0.3369,-0.3232,-0.3932,-0.5686,-0.7301,-0.9419,-1.0905,-1.1549,-1.1099,-1.0097,-0.8165,-0.7112,-0.6988,-0.7283,-0.7664,-0.7857,-0.7691,-0.7492,-0.7272,-0.7403,-0.7453,-0.7485,-0.8184,-0.8773,-0.9184,-1.0277,-1.135,-1.2072,-1.2776,-1.3112,-1.2932,-1.2319,-1.1507,-1.0755,-1.0979,-1.1445,-1.2103,-1.3439,-1.4381,-1.4736,-1.4908,-1.4841,-1.4237,-1.3994,-1.3576,-1.3175,-1.2944,-1.3023,-1.2992,-1.2987,-1.2905,-1.29,-1.2861,-1.2852,-1.2813,-1.2798,-1.2822,-1.3065,-1.3129,-1.2893,-1.2597,-1.2151,-1.1161,-0.9805,-0.858,-0.7461,-0.6742,-0.6021,-0.6103,-0.6293,-0.6743,-0.7413,-0.8096,-0.8345,-0.8249,-0.819,-0.7937,-0.7782,-0.7749,-0.7335,-0.6571,-0.5605,-0.4601,-0.3486,-0.2374,-0.1428,-0.1065,-0.1287,-0.1454,-0.1175,-0.7235,-0.9171,-0.9528,-1.0908,-1.2814,-1.3443,-1.3883,-1.4177,-1.3879,-1.3606,-1.3332,-1.2693,-1.2701,-1.2909,-1.2524,-1.2,-1.1616,-1.0551,-1.0045,-0.9439,-0.8822,-0.7832,-0.7287,-0.6987,-0.634,-0.5663,-0.5348,-0.5851,-0.7649,-0.8724,-1.0146,-1.1602,-1.1309,-0.9876,-0.843,-0.7025,-0.6529,-0.6172,-0.674,-0.753,-0.7889,-0.815,-0.8203,-0.7984,-0.8487,-0.8631,-0.8416,-0.9226,-0.9785,-1.0158,-1.1287,-1.2092,-1.2597,-1.3203,-1.3122,-1.2761,-1.2145,-1.11,-1.0652,-1.0759,-1.1345,-1.2149,-1.3153,-1.4169,-1.4614,-1.5059,-1.4837,-1.4474,-1.4256,-1.382,-1.3266,-1.3179,-1.3142,-1.2939,-1.2852,-1.2696,-1.2632,-1.2559,-1.251,-1.2486,-1.2446,-1.2759,-1.3027,-1.2992,-1.2811,-1.2479,-1.2018,-1.1252,-1.0017,-0.8689,-0.7511,-0.6907,-0.635,-0.6408,-0.656,-0.6687,-0.6915,-0.745,-0.7377,-0.702,-0.6993,-0.7231,-0.7328,-0.7341,-0.712,-0.6815,-0.5845,-0.4772,-0.3463,-0.2343,-0.1704,-0.112,-0.1176,-0.1427,-0.1483,-0.8163,-0.976,-0.9869,-1.0868,-1.2413,-1.317,-1.3818,-1.44,-1.4725,-1.4941,-1.4921,-1.4563,-1.4707,-1.4951,-1.4759,-1.4441,-1.4208,-1.3318,-1.2733,-1.2096,-1.161,-1.0824,-1.0051,-0.929,-0.8807,-0.8104,-0.7652,-0.8038,-0.927,-0.9857,-1.0795,-1.1413,-1.0864,-0.9453,-0.7898,-0.695,-0.648,-0.6367,-0.7042,-0.7723,-0.8182,-0.854,-0.8851,-0.8931,-0.9268,-0.9694,-0.9785,-1.0265,-1.0968,-1.1414,-1.2072,-1.2802,-1.305,-1.3122,-1.3078,-1.2698,-1.1718,-1.0775,-1.0404,-1.0504,-1.1037,-1.1584,-1.3021,-1.3932,-1.4412,-1.4835,-1.4828,-1.4609,-1.459,-1.4122,-1.3561,-1.3496,-1.3246,-1.3046,-1.2641,-1.2518,-1.2461,-1.2387,-1.219,-1.2141,-1.2348,-1.2686,-1.2856,-1.2783,-1.265,-1.2258,-1.187,-1.1014,-1.0242,-0.9082,-0.7922,-0.7245,-0.6752,-0.6685,-0.6502,-0.6313,-0.6576,-0.6872,-0.6586,-0.6171,-0.6445,-0.6757,-0.6848,-0.6978,-0.7022,-0.6842,-0.6079,-0.5039,-0.4039,-0.3226,-0.2563,-0.1983,-0.1372,-0.1567,-0.1983,-0.9523,-1.016,-1.0137,-1.0802,-1.1928,-1.2868,-1.3775,-1.4726,-1.5053,-1.5361,-1.5584,-1.5788,-1.6126,-1.6469,-1.6373,-1.6279,-1.6104,-1.5579,-1.5272,-1.5157,-1.4568,-1.3855,-1.3058,-1.2335,-1.1419,-1.0454,-0.9806,-0.9709,-1.0789,-1.1015,-1.1408,-1.1259,-1.0609,-0.9311,-0.8096,-0.7349,-0.6836,-0.6766,-0.7208,-0.7857,-0.8362,-0.8977,-0.93,-0.9541,-0.9903,-1.0263,-1.0537,-1.1036,-1.1399,-1.1881,-1.2501,-1.2995,-1.3284,-1.329,-1.3169,-1.2556,-1.1329,-1.0656,-1.0309,-1.0495,-1.0725,-1.1353,-1.2478,-1.3361,-1.4036,-1.4519,-1.4638,-1.463,-1.4563,-1.4286,-1.3968,-1.3695,-1.341,-1.2989,-1.2482,-1.2358,-1.2332,-1.219,-1.1918,-1.1943,-1.2258,-1.248,-1.2529,-1.248,-1.2144,-1.1717,-1.1301,-1.0925,-1.0222,-0.9804,-0.8683,-0.7804,-0.7324,-0.6963,-0.6704,-0.6317,-0.5918,-0.6178,-0.5952,-0.5653,-0.5994,-0.6296,-0.6564,-0.6775,-0.7066,-0.6885,-0.6344,-0.5731,-0.4987,-0.4244,-0.3608,-0.2977,-0.2425,-0.2538,-0.2952,-0.9813,-1.045,-1.047,-1.0865,-1.1637,-1.2698,-1.3809,-1.4934,-1.5913,-1.6495,-1.6744,-1.7368,-1.7535,-1.782,-1.7569,-1.7656,-1.7402,-1.6995,-1.6643,-1.6547,-1.6562,-1.5648,-1.4927,-1.4331,-1.3644,-1.2652,-1.1767,-1.1333,-1.2076,-1.2242,-1.1216,-1.0482,-1.0296,-0.9336,-0.8618,-0.8057,-0.7356,-0.703,-0.7482,-0.8035,-0.8631,-0.9266,-0.9657,-1.0054,-1.0472,-1.085,-1.1349,-1.1719,-1.2182,-1.302,-1.331,-1.37,-1.4124,-1.342,-1.2734,-1.1812,-1.1034,-1.055,-1.0507,-1.0727,-1.0939,-1.1192,-1.2147,-1.2929,-1.3605,-1.4079,-1.4421,-1.4402,-1.4516,-1.4345,-1.405,-1.3798,-1.361,-1.3285,-1.272,-1.233,-1.2264,-1.2017,-1.1769,-1.1744,-1.2051,-1.2026,-1.2067,-1.181,-1.147,-1.1071,-1.0732,-1.0457,-1.0286,-0.9897,-0.9328,-0.8402,-0.77,-0.7274,-0.6769,-0.6346,-0.5778,-0.5365,-0.537,-0.5339,-0.5357,-0.573,-0.6191,-0.6714,-0.7195,-0.7135,-0.682,-0.6314,-0.5994,-0.5382,-0.4758,-0.4103,-0.3611,-0.3721,-0.3969,-1.0263,-1.0755,-1.0801,-1.1138,-1.1811,-1.2854,-1.397,-1.5052,-1.6122,-1.6853,-1.7447,-1.7989,-1.834,-1.839,-1.8232,-1.8313,-1.8504,-1.7928,-1.7645,-1.7853,-1.7867,-1.7259,-1.6604,-1.5943,-1.5188,-1.4227,-1.3298,-1.2687,-1.2944,-1.2338,-1.1351,-1.0377,-1.014,-0.9457,-0.8845,-0.8449,-0.8024,-0.7737,-0.7836,-0.8318,-0.8931,-0.9582,-1.0102,-1.0556,-1.1049,-1.1465,-1.2,-1.235,-1.294,-1.3549,-1.364,-1.37,-1.383,-1.3025,-1.2197,-1.1381,-1.0901,-1.0617,-1.0589,-1.0653,-1.0867,-1.12,-1.1762,-1.245,-1.3027,-1.3536,-1.3801,-1.3989,-1.4269,-1.4439,-1.4129,-1.3871,-1.3784,-1.3667,-1.3022,-1.2366,-1.2116,-1.1868,-1.1744,-1.1619,-1.1594,-1.1544,-1.1385,-1.1108,-1.0811,-1.0475,-1.0267,-1.0137,-1.0124,-1.0117,-0.9575,-0.8803,-0.8088,-0.7474,-0.6961,-0.6474,-0.5947,-0.5609,-0.5771,-0.5622,-0.5221,-0.5413,-0.6169,-0.6816,-0.7435,-0.7379,-0.7396,-0.7398,-0.7125,-0.6499,-0.6,-0.5593,-0.5077,-0.4789,-0.5121,-1.0681,-1.1028,-1.1097,-1.1469,-1.2182,-1.3158,-1.407,-1.4934,-1.5776,-1.6694,-1.7578,-1.7975,-1.822,-1.829,-1.8278,-1.8398,-1.8479,-1.824,-1.8354,-1.8963,-1.9004,-1.8507,-1.7898,-1.7497,-1.6346,-1.5303,-1.4347,-1.3511,-1.2796,-1.2162,-1.1393,-1.0547,-1.0064,-0.9532,-0.9069,-0.8998,-0.8733,-0.8595,-0.8816,-0.9275,-0.9597,-1.0131,-1.0701,-1.1144,-1.1428,-1.1692,-1.231,-1.275,-1.31,-1.326,-1.3329,-1.3238,-1.2842,-1.2597,-1.1833,-1.1307,-1.0878,-1.0704,-1.0654,-1.072,-1.0761,-1.1048,-1.1461,-1.2092,-1.2656,-1.3038,-1.332,-1.3663,-1.3942,-1.4129,-1.3937,-1.3832,-1.376,-1.3644,-1.3229,-1.27,-1.2344,-1.1925,-1.1385,-1.1234,-1.0998,-1.0913,-1.0711,-1.0434,-1.0101,-0.9804,-0.9762,-0.9707,-0.9735,-0.9953,-0.9731,-0.9107,-0.8285,-0.7567,-0.7218,-0.6704,-0.6178,-0.6005,-0.6027,-0.5844,-0.5375,-0.5694,-0.6222,-0.6872,-0.7487,-0.7957,-0.8103,-0.804,-0.7903,-0.7515,-0.7128,-0.7041,-0.6616,-0.5937,-0.5941,-1.0136,-1.0751,-1.1122,-1.1591,-1.2151,-1.2767,-1.3734,-1.4933,-1.5581,-1.6546,-1.7579,-1.7959,-1.8002,-1.7936,-1.805,-1.8143,-1.817,-1.8371,-1.8614,-1.9083,-1.9475,-1.9082,-1.8511,-1.7787,-1.7008,-1.6128,-1.5084,-1.3973,-1.3141,-1.2241,-1.1411,-1.0716,-1.0328,-0.9982,-0.9381,-0.9411,-0.9514,-0.9343,-0.9799,-0.9889,-0.9861,-1.0559,-1.1211,-1.1398,-1.1563,-1.1874,-1.2266,-1.232,-1.2489,-1.2634,-1.2704,-1.2428,-1.1942,-1.2104,-1.1802,-1.127,-1.1037,-1.0924,-1.0878,-1.0981,-1.1176,-1.1226,-1.1579,-1.1956,-1.2353,-1.2644,-1.2922,-1.3265,-1.3541,-1.3703,-1.3796,-1.374,-1.3732,-1.3616,-1.3451,-1.3008,-1.2555,-1.1834,-1.1116,-1.0769,-1.0454,-1.0243,-1.0037,-0.9737,-0.9373,-0.9268,-0.9328,-0.9321,-0.9273,-0.9395,-0.9718,-0.9139,-0.828,-0.7627,-0.7316,-0.6706,-0.6073,-0.5906,-0.5939,-0.5711,-0.5517,-0.6115,-0.6748,-0.7035,-0.752,-0.8143,-0.8603,-0.8608,-0.8438,-0.8191,-0.7874,-0.7627,-0.7165,-0.6524,-0.6632,-0.9837,-1.0415,-1.1272,-1.184,-1.2151,-1.2652,-1.3653,-1.4845,-1.5545,-1.651,-1.7617,-1.7959,-1.8002,-1.7893,-1.8034,-1.8023,-1.8143,-1.829,-1.8922,-1.9475,-1.9255,-1.8995,-1.8474,-1.7701,-1.6649,-1.5786,-1.4946,-1.4004,-1.351,-1.2784,-1.2035,-1.1219,-1.0879,-1.0424,-0.9782,-0.9939,-1.0122,-1.0045,-1.0588,-1.0588,-1.0329,-1.1048,-1.1601,-1.1753,-1.1897,-1.2182,-1.2305,-1.2297,-1.2382,-1.2397,-1.2405,-1.1942,-1.1608,-1.1646,-1.1584,-1.1403,-1.1314,-1.1374,-1.1381,-1.1545,-1.1781,-1.1791,-1.1537,-1.189,-1.2172,-1.2399,-1.2351,-1.2689,-1.3263,-1.3501,-1.351,-1.349,-1.3661,-1.3642,-1.333,-1.292,-1.2156,-1.1302,-1.0739,-1.0355,-1.0073,-0.9854,-0.9646,-0.9343,-0.9042,-0.8979,-0.9023,-0.8959,-0.8902,-0.8865,-0.9194,-0.907,-0.8116,-0.7658,-0.7414,-0.6681,-0.5788,-0.5727,-0.5826,-0.5933,-0.5984,-0.6683,-0.7247,-0.7536,-0.7996,-0.8667,-0.9017,-0.9096,-0.8971,-0.8714,-0.8395,-0.8056,-0.751,-0.6858,-0.6507,-0.9544,-1.018,-1.1483,-1.2065,-1.2189,-1.2736,-1.3743,-1.4875,-1.5555,-1.651,-1.7645,-1.792,-1.8123,-1.8166,-1.8518,-1.8452,-1.8479,-1.856,-1.9212,-1.9378,-1.8804,-1.861,-1.7958,-1.7027,-1.6145,-1.5344,-1.4544,-1.4547,-1.4517,-1.3551,-1.2538,-1.1836,-1.1267,-1.0763,-1.0253,-1.0229,-1.043,-1.0646,-1.1012,-1.1346,-1.1518,-1.1712,-1.195,-1.215,-1.2243,-1.2344,-1.2459,-1.2544,-1.2505,-1.2444,-1.2313,-1.2073,-1.1763,-1.1732,-1.1763,-1.1751,-1.2011,-1.2107,-1.2196,-1.25,-1.2458,-1.2261,-1.1849,-1.1824,-1.214,-1.2194,-1.2122,-1.2417,-1.3017,-1.3243,-1.3278,-1.3352,-1.3561,-1.3486,-1.3119,-1.272,-1.1804,-1.0886,-1.0428,-1.0002,-0.9764,-0.953,-0.9353,-0.9042,-0.8855,-0.8811,-0.8713,-0.8623,-0.8587,-0.8549,-0.8696,-0.8437,-0.7773,-0.7455,-0.7329,-0.6636,-0.5664,-0.5531,-0.5661,-0.6029,-0.6482,-0.7125,-0.7653,-0.8033,-0.8547,-0.9058,-0.945,-0.9606,-0.9424,-0.9079,-0.876,-0.8229,-0.7182,-0.6507,-0.5887,-0.893,-1.0338,-1.1389,-1.1965,-1.2182,-1.2767,-1.3765,-1.5002,-1.5603,-1.6557,-1.754,-1.7606,-1.744,-1.705,-1.817,-1.8333,-1.7843,-1.8425,-1.9052,-1.9296,-1.8652,-1.8297,-1.766,-1.6622,-1.5854,-1.5132,-1.4549,-1.4496,-1.4796,-1.3894,-1.2824,-1.2006,-1.1654,-1.112,-1.0511,-1.0673,-1.1115,-1.1279,-1.1616,-1.1982,-1.205,-1.215,-1.2189,-1.2259,-1.2305,-1.2143,-1.2135,-1.2336,-1.222,-1.2228,-1.2466,-1.2497,-1.2436,-1.2305,-1.2397,-1.2626,-1.2882,-1.3105,-1.3312,-1.3579,-1.355,-1.2937,-1.2591,-1.2324,-1.2516,-1.2471,-1.2514,-1.2671,-1.3066,-1.3131,-1.3159,-1.3353,-1.3481,-1.308,-1.2691,-1.2209,-1.1523,-1.0774,-1.0125,-0.9798,-0.9521,-0.9439,-0.9446,-0.9137,-0.8798,-0.87,-0.8508,-0.842,-0.8178,-0.8193,-0.8215,-0.7837,-0.74,-0.704,-0.684,-0.6443,-0.5747,-0.5563,-0.5625,-0.6137,-0.6763,-0.7474,-0.7987,-0.8349,-0.8769,-0.9214,-0.9579,-0.9882,-0.9548,-0.9165,-0.8914,-0.8346,-0.7171,-0.6041,-0.5308]}]]